Wetterdaten: Samstag, 01.07.2017
Datum Zeit Temp. A. Feuchte A. Luftdruck Regen Wind Richtung Richtung Taupunkt Windben Empfang
01.07.2017 00:00 15,0 C 81 % 1004,0 hPa 0,0 l/m 1,2 km/h (1 Bft) W-NW 302 11,8 C 6,3 km/h (2 Bft) 100 %
01.07.2017 00:02 15,0 C 81 % 1004,0 hPa 0,0 l/m 0,0 km/h (0 Bft) W-NW 302 11,8 C 0,0 km/h (0 Bft) 100 %
01.07.2017 00:03 15,0 C 81 % 1004,0 hPa 0,0 l/m 0,1 km/h (0 Bft) W-NW 302 11,8 C 3,1 km/h (1 Bft) 100 %
01.07.2017 00:04 15,1 C 81 % 1004,0 hPa 0,0 l/m 0,0 km/h (0 Bft) W-NW 302 11,9 C 0,0 km/h (0 Bft) 100 %
01.07.2017 00:05 15,1 C 80 % 1004,0 hPa 0,0 l/m 0,0 km/h (0 Bft) W-NW 302 11,7 C 0,0 km/h (0 Bft) 100 %
01.07.2017 00:06 15,1 C 80 % 1004,1 hPa 0,0 l/m 0,0 km/h (0 Bft) W-NW 302 11,7 C 0,0 km/h (0 Bft) 100 %
01.07.2017 00:07 15,1 C 80 % 1004,0 hPa 0,0 l/m 0,0 km/h (0 Bft) W-NW 302 11,7 C 0,0 km/h (0 Bft) 100 %
01.07.2017 00:08 15,2 C 80 % 1004,0 hPa 0,0 l/m 0,4 km/h (0 Bft) W-NW 294 11,8 C 3,1 km/h (1 Bft) 100 %
01.07.2017 00:09 15,2 C 80 % 1004,0 hPa 0,0 l/m 0,0 km/h (0 Bft) W-NW 295 11,8 C 0,0 km/h (0 Bft) 100 %
01.07.2017 00:10 15,2 C 80 % 1004,0 hPa 0,0 l/m 0,0 km/h (0 Bft) W-NW 295 11,8 C 0,0 km/h (0 Bft) 100 %
01.07.2017 00:11 15,2 C 80 % 1004,0 hPa 0,0 l/m 0,0 km/h (0 Bft) W-NW 295 11,8 C 0,0 km/h (0 Bft) 96 %
01.07.2017 00:12 15,2 C 79 % 1004,0 hPa 0,0 l/m 0,0 km/h (0 Bft) W-NW 295 11,6 C 0,0 km/h (0 Bft) 96 %
01.07.2017 00:13 15,2 C 79 % 1004,0 hPa 0,0 l/m 0,0 km/h (0 Bft) W-NW 295 11,6 C 0,0 km/h (0 Bft) 100 %
01.07.2017 00:14 15,2 C 80 % 1004,0 hPa 0,0 l/m 0,0 km/h (0 Bft) W-NW 294 11,8 C 0,0 km/h (0 Bft) 92 %
01.07.2017 00:15 15,2 C 80 % 1004,0 hPa 0,0 l/m 0,0 km/h (0 Bft) W-NW 295 11,8 C 0,0 km/h (0 Bft) 100 %
01.07.2017 00:16 15,2 C 80 % 1004,0 hPa 0,0 l/m 0,0 km/h (0 Bft) W-NW 294 11,8 C 0,0 km/h (0 Bft) 93 %
01.07.2017 00:17 15,2 C 80 % 1004,0 hPa 0,0 l/m 0,0 km/h (0 Bft) W-NW 295 11,8 C 0,0 km/h (0 Bft) 100 %
01.07.2017 00:18 15,2 C 80 % 1004,0 hPa 0,0 l/m 0,0 km/h (0 Bft) W-NW 295 11,8 C 0,0 km/h (0 Bft) 96 %
01.07.2017 00:19 15,2 C 80 % 1004,0 hPa 0,0 l/m 0,0 km/h (0 Bft) W-NW 294 11,8 C 0,0 km/h (0 Bft) 100 %
01.07.2017 00:20 15,2 C 80 % 1004,0 hPa 0,0 l/m 0,0 km/h (0 Bft) W-NW 294 11,8 C 0,0 km/h (0 Bft) 96 %
01.07.2017 00:21 15,2 C 80 % 1004,0 hPa 0,0 l/m 0,0 km/h (0 Bft) W-NW 294 11,8 C 0,0 km/h (0 Bft) 100 %
01.07.2017 00:22 15,2 C 81 % 1004,0 hPa 0,0 l/m 0,0 km/h (0 Bft) W-NW 295 12,0 C 0,0 km/h (0 Bft) 100 %
01.07.2017 00:23 15,2 C 81 % 1004,0 hPa 0,0 l/m 0,0 km/h (0 Bft) W-NW 294 12,0 C 0,0 km/h (0 Bft) 100 %
01.07.2017 00:24 15,2 C 81 % 1004,0 hPa 0,0 l/m 0,0 km/h (0 Bft) W-NW 294 12,0 C 0,0 km/h (0 Bft) 100 %
01.07.2017 00:25 15,2 C 81 % 1004,0 hPa 0,0 l/m 0,0 km/h (0 Bft) W-NW 294 12,0 C 0,0 km/h (0 Bft) 100 %
01.07.2017 00:26 15,1 C 81 % 1004,0 hPa 0,0 l/m 0,0 km/h (0 Bft) W-NW 295 11,9 C 0,0 km/h (0 Bft) 100 %
01.07.2017 00:27 15,1 C 81 % 1004,0 hPa 0,0 l/m 0,0 km/h (0 Bft) W-NW 294 11,9 C 0,0 km/h (0 Bft) 100 %
01.07.2017 00:28 15,1 C 82 % 1004,0 hPa 0,0 l/m 0,0 km/h (0 Bft) W-NW 294 12,0 C 0,0 km/h (0 Bft) 100 %
01.07.2017 00:29 15,1 C 82 % 1004,0 hPa 0,0 l/m 0,0 km/h (0 Bft) W-NW 294 12,0 C 0,0 km/h (0 Bft) 100 %
01.07.2017 00:30 15,0 C 82 % 1004,0 hPa 0,0 l/m 0,0 km/h (0 Bft) W-NW 294 12,0 C 0,0 km/h (0 Bft) 100 %
01.07.2017 00:31 15,0 C 82 % 1004,0 hPa 0,0 l/m 0,0 km/h (0 Bft) W-NW 295 12,0 C 0,0 km/h (0 Bft) 100 %
01.07.2017 00:32 14,9 C 82 % 1004,0 hPa 0,0 l/m 0,0 km/h (0 Bft) W-NW 294 11,9 C 0,0 km/h (0 Bft) 100 %
01.07.2017 00:33 14,9 C 82 % 1004,0 hPa 0,0 l/m 0,1 km/h (0 Bft) W 278 11,9 C 3,1 km/h (1 Bft) 100 %
01.07.2017 00:34 14,8 C 82 % 1004,0 hPa 0,0 l/m 0,0 km/h (0 Bft) W 278 11,8 C 0,0 km/h (0 Bft) 100 %
01.07.2017 00:35 14,8 C 82 % 1004,0 hPa 0,0 l/m 0,0 km/h (0 Bft) W 278 11,8 C 0,0 km/h (0 Bft) 100 %
01.07.2017 00:36 14,8 C 83 % 1004,0 hPa 0,0 l/m 0,0 km/h (0 Bft) W 278 11,9 C 0,0 km/h (0 Bft) 100 %
01.07.2017 00:37 14,8 C 83 % 1004,0 hPa 0,0 l/m 0,0 km/h (0 Bft) W 278 11,9 C 0,0 km/h (0 Bft) 100 %
01.07.2017 00:38 14,8 C 83 % 1004,0 hPa 0,0 l/m 0,0 km/h (0 Bft) W 278 11,9 C 0,0 km/h (0 Bft) 100 %
01.07.2017 00:39 14,7 C 83 % 1004,0 hPa 0,0 l/m 0,0 km/h (0 Bft) W 278 11,8 C 0,0 km/h (0 Bft) 100 %
01.07.2017 00:40 14,7 C 83 % 1004,0 hPa 0,0 l/m 0,0 km/h (0 Bft) W 278 11,8 C 0,0 km/h (0 Bft) 100 %
01.07.2017 00:41 14,7 C 83 % 1004,0 hPa 0,0 l/m 0,0 km/h (0 Bft) W 278 11,8 C 0,0 km/h (0 Bft) 100 %
01.07.2017 00:42 14,7 C 83 % 1004,0 hPa 0,0 l/m 0,0 km/h (0 Bft) W 278 11,8 C 0,0 km/h (0 Bft) 96 %
01.07.2017 00:43 14,6 C 83 % 1004,1 hPa 0,0 l/m 0,0 km/h (0 Bft) W 278 11,7 C 0,0 km/h (0 Bft) 100 %
01.07.2017 00:45 14,6 C 85 % 1004,0 hPa 0,0 l/m 0,0 km/h (0 Bft) W 278 12,1 C 0,0 km/h (0 Bft) 100 %
01.07.2017 00:46 14,6 C 85 % 1004,1 hPa 0,0 l/m 0,0 km/h (0 Bft) W 278 12,1 C 0,0 km/h (0 Bft) 100 %
01.07.2017 00:47 14,6 C 85 % 1004,0 hPa 0,0 l/m 0,0 km/h (0 Bft) W 278 12,1 C 0,0 km/h (0 Bft) 100 %
01.07.2017 00:48 14,6 C 85 % 1004,0 hPa 0,0 l/m 0,0 km/h (0 Bft) W 278 12,1 C 0,0 km/h (0 Bft) 100 %
01.07.2017 00:49 14,5 C 85 % 1004,0 hPa 0,0 l/m 0,0 km/h (0 Bft) W 278 12,0 C 0,0 km/h (0 Bft) 100 %
01.07.2017 00:50 14,4 C 85 % 1004,0 hPa 0,0 l/m 0,0 km/h (0 Bft) W 278 11,9 C 0,0 km/h (0 Bft) 100 %
01.07.2017 00:51 14,4 C 85 % 1004,0 hPa 0,0 l/m 0,0 km/h (0 Bft) W 278 11,9 C 0,0 km/h (0 Bft) 100 %
01.07.2017 00:52 14,4 C 85 % 1004,0 hPa 0,0 l/m 0,0 km/h (0 Bft) W 278 11,9 C 0,0 km/h (0 Bft) 100 %
01.07.2017 00:53 14,4 C 84 % 1004,0 hPa 0,0 l/m 0,0 km/h (0 Bft) W 278 11,7 C 0,0 km/h (0 Bft) 100 %
01.07.2017 00:54 14,4 C 84 % 1004,0 hPa 0,0 l/m 0,0 km/h (0 Bft) W 278 11,7 C 0,0 km/h (0 Bft) 100 %
01.07.2017 00:55 14,3 C 84 % 1004,0 hPa 0,0 l/m 0,0 km/h (0 Bft) W 278 11,6 C 0,0 km/h (0 Bft) 100 %
01.07.2017 00:56 14,3 C 85 % 1004,1 hPa 0,0 l/m 0,0 km/h (0 Bft) W 278 11,8 C 0,0 km/h (0 Bft) 100 %
01.07.2017 00:57 14,3 C 85 % 1004,0 hPa 0,0 l/m 0,0 km/h (0 Bft) W 278 11,8 C 0,0 km/h (0 Bft) 100 %
01.07.2017 00:58 14,3 C 85 % 1004,0 hPa 0,0 l/m 0,0 km/h (0 Bft) W 278 11,8 C 0,0 km/h (0 Bft) 100 %
01.07.2017 00:59 14,3 C 85 % 1004,0 hPa 0,0 l/m 0,0 km/h (0 Bft) W 278 11,8 C 0,0 km/h (0 Bft) 100 %
01.07.2017 01:00 14,3 C 85 % 1004,0 hPa 0,0 l/m 0,0 km/h (0 Bft) W 278 11,8 C 0,0 km/h (0 Bft) 100 %
01.07.2017 01:01 14,3 C 85 % 1004,1 hPa 0,0 l/m 0,0 km/h (0 Bft) W 278 11,8 C 0,0 km/h (0 Bft) 100 %
01.07.2017 01:02 14,3 C 85 % 1004,1 hPa 0,0 l/m 0,0 km/h (0 Bft) W 278 11,8 C 0,0 km/h (0 Bft) 100 %
01.07.2017 01:03 14,3 C 85 % 1004,0 hPa 0,0 l/m 0,0 km/h (0 Bft) W 278 11,8 C 0,0 km/h (0 Bft) 100 %
01.07.2017 01:04 14,3 C 85 % 1004,0 hPa 0,0 l/m 0,0 km/h (0 Bft) W 278 11,8 C 0,0 km/h (0 Bft) 100 %
01.07.2017 01:05 14,3 C 84 % 1004,0 hPa 0,0 l/m 0,0 km/h (0 Bft) W 278 11,6 C 0,0 km/h (0 Bft) 100 %
01.07.2017 01:06 14,3 C 84 % 1004,0 hPa 0,0 l/m 0,0 km/h (0 Bft) W 278 11,6 C 0,0 km/h (0 Bft) 100 %
01.07.2017 01:07 14,3 C 84 % 1004,1 hPa 0,0 l/m 0,0 km/h (0 Bft) W 278 11,6 C 0,0 km/h (0 Bft) 100 %
01.07.2017 01:08 14,3 C 85 % 1004,0 hPa 0,0 l/m 0,0 km/h (0 Bft) W 278 11,8 C 0,0 km/h (0 Bft) 100 %
01.07.2017 01:09 14,3 C 84 % 1004,0 hPa 0,0 l/m 0,0 km/h (0 Bft) W 278 11,6 C 0,0 km/h (0 Bft) 100 %
01.07.2017 01:10 14,3 C 85 % 1004,0 hPa 0,0 l/m 0,0 km/h (0 Bft) W 278 11,8 C 0,0 km/h (0 Bft) 100 %
01.07.2017 01:11 14,3 C 85 % 1004,0 hPa 0,0 l/m 0,0 km/h (0 Bft) W 278 11,8 C 0,0 km/h (0 Bft) 100 %
01.07.2017 01:12 14,3 C 84 % 1004,0 hPa 0,0 l/m 0,0 km/h (0 Bft) W 278 11,6 C 0,0 km/h (0 Bft) 96 %
01.07.2017 01:13 14,3 C 84 % 1004,0 hPa 0,0 l/m 0,0 km/h (0 Bft) W 278 11,6 C 0,0 km/h (0 Bft) 100 %
01.07.2017 01:14 14,3 C 84 % 1004,0 hPa 0,0 l/m 0,0 km/h (0 Bft) W 278 11,6 C 0,0 km/h (0 Bft) 96 %
01.07.2017 01:15 14,3 C 84 % 1004,0 hPa 0,0 l/m 0,0 km/h (0 Bft) W 278 11,6 C 0,0 km/h (0 Bft) 96 %
01.07.2017 01:16 14,3 C 85 % 1004,0 hPa 0,0 l/m 0,0 km/h (0 Bft) W 278 11,8 C 0,0 km/h (0 Bft) 100 %
01.07.2017 01:17 14,3 C 84 % 1004,0 hPa 0,0 l/m 0,0 km/h (0 Bft) W 278 11,6 C 0,0 km/h (0 Bft) 96 %
01.07.2017 01:18 14,3 C 84 % 1004,0 hPa 0,0 l/m 0,0 km/h (0 Bft) W 278 11,6 C 0,0 km/h (0 Bft) 100 %
01.07.2017 01:19 14,3 C 84 % 1004,0 hPa 0,0 l/m 0,0 km/h (0 Bft) W 278 11,6 C 0,0 km/h (0 Bft) 96 %
01.07.2017 01:20 14,3 C 85 % 1004,0 hPa 0,0 l/m 0,0 km/h (0 Bft) W 278 11,8 C 0,0 km/h (0 Bft) 100 %
01.07.2017 01:21 14,3 C 85 % 1004,0 hPa 0,0 l/m 0,0 km/h (0 Bft) W 278 11,8 C 0,0 km/h (0 Bft) 96 %
01.07.2017 01:22 14,3 C 85 % 1004,0 hPa 0,0 l/m 0,0 km/h (0 Bft) W 278 11,8 C 0,0 km/h (0 Bft) 96 %
01.07.2017 01:23 14,3 C 85 % 1004,0 hPa 0,0 l/m 0,0 km/h (0 Bft) W 278 11,8 C 0,0 km/h (0 Bft) 100 %
01.07.2017 01:24 14,3 C 85 % 1004,0 hPa 0,0 l/m 0,0 km/h (0 Bft) W 278 11,8 C 0,0 km/h (0 Bft) 96 %
01.07.2017 01:25 14,3 C 85 % 1004,0 hPa 0,0 l/m 0,0 km/h (0 Bft) W 278 11,8 C 0,0 km/h (0 Bft) 100 %
01.07.2017 01:26 14,3 C 85 % 1004,0 hPa 0,0 l/m 0,0 km/h (0 Bft) W 278 11,8 C 0,0 km/h (0 Bft) 100 %
01.07.2017 01:27 14,3 C 85 % 1004,0 hPa 0,0 l/m 0,0 km/h (0 Bft) W 278 11,8 C 0,0 km/h (0 Bft) 100 %
01.07.2017 01:28 14,2 C 85 % 1004,0 hPa 0,0 l/m 0,0 km/h (0 Bft) W 278 11,7 C 0,0 km/h (0 Bft) 100 %
01.07.2017 01:29 14,2 C 85 % 1004,0 hPa 0,0 l/m 0,0 km/h (0 Bft) W 279 11,7 C 0,0 km/h (0 Bft) 100 %
01.07.2017 01:30 14,2 C 85 % 1004,0 hPa 0,0 l/m 0,0 km/h (0 Bft) W 278 11,7 C 0,0 km/h (0 Bft) 100 %
01.07.2017 01:31 14,2 C 85 % 1004,0 hPa 0,0 l/m 0,0 km/h (0 Bft) W 278 11,7 C 0,0 km/h (0 Bft) 100 %
01.07.2017 01:32 14,2 C 85 % 1004,0 hPa 0,0 l/m 0,0 km/h (0 Bft) W 278 11,7 C 0,0 km/h (0 Bft) 100 %
01.07.2017 01:33 14,1 C 85 % 1003,9 hPa 0,0 l/m 0,0 km/h (0 Bft) W 279 11,6 C 0,0 km/h (0 Bft) 100 %
01.07.2017 01:34 14,1 C 86 % 1003,9 hPa 0,0 l/m 0,0 km/h (0 Bft) W 278 11,8 C 0,0 km/h (0 Bft) 100 %
01.07.2017 01:35 14,1 C 86 % 1004,0 hPa 0,0 l/m 0,0 km/h (0 Bft) W 278 11,8 C 0,0 km/h (0 Bft) 100 %
01.07.2017 01:36 14,1 C 86 % 1004,0 hPa 0,0 l/m 0,0 km/h (0 Bft) W 278 11,8 C 0,0 km/h (0 Bft) 100 %
01.07.2017 01:37 14,1 C 86 % 1003,9 hPa 0,0 l/m 0,0 km/h (0 Bft) W 278 11,8 C 0,0 km/h (0 Bft) 100 %
01.07.2017 01:38 14,1 C 86 % 1003,9 hPa 0,0 l/m 0,0 km/h (0 Bft) W 278 11,8 C 0,0 km/h (0 Bft) 100 %
01.07.2017 01:39 14,0 C 86 % 1003,9 hPa 0,0 l/m 0,0 km/h (0 Bft) W 278 11,7 C 0,0 km/h (0 Bft) 100 %
01.07.2017 01:40 14,0 C 86 % 1003,9 hPa 0,0 l/m 0,0 km/h (0 Bft) W 278 11,7 C 0,0 km/h (0 Bft) 100 %
01.07.2017 01:41 14,0 C 86 % 1003,9 hPa 0,0 l/m 0,0 km/h (0 Bft) W 279 11,7 C 0,0 km/h (0 Bft) 100 %
01.07.2017 01:42 14,0 C 86 % 1003,9 hPa 0,0 l/m 0,0 km/h (0 Bft) W 278 11,7 C 0,0 km/h (0 Bft) 100 %
01.07.2017 01:43 13,9 C 86 % 1003,9 hPa 0,0 l/m 0,0 km/h (0 Bft) W 278 11,6 C 0,0 km/h (0 Bft) 100 %
01.07.2017 01:44 13,9 C 86 % 1003,9 hPa 0,0 l/m 0,0 km/h (0 Bft) W 278 11,6 C 0,0 km/h (0 Bft) 100 %
01.07.2017 01:45 13,9 C 87 % 1003,9 hPa 0,0 l/m 0,0 km/h (0 Bft) W 278 11,8 C 0,0 km/h (0 Bft) 100 %
01.07.2017 01:46 13,9 C 86 % 1003,8 hPa 0,0 l/m 0,0 km/h (0 Bft) W 278 11,6 C 0,0 km/h (0 Bft) 100 %
01.07.2017 01:47 13,9 C 86 % 1003,9 hPa 0,0 l/m 0,0 km/h (0 Bft) W 278 11,6 C 0,0 km/h (0 Bft) 100 %
01.07.2017 01:48 13,9 C 87 % 1003,9 hPa 0,0 l/m 0,0 km/h (0 Bft) W 278 11,8 C 0,0 km/h (0 Bft) 100 %
01.07.2017 01:49 13,9 C 87 % 1003,9 hPa 0,0 l/m 0,0 km/h (0 Bft) W 278 11,8 C 0,0 km/h (0 Bft) 100 %
01.07.2017 01:50 13,9 C 87 % 1003,9 hPa 0,0 l/m 0,0 km/h (0 Bft) W 278 11,8 C 0,0 km/h (0 Bft) 100 %
01.07.2017 01:51 13,9 C 87 % 1003,9 hPa 0,0 l/m 0,0 km/h (0 Bft) W 278 11,8 C 0,0 km/h (0 Bft) 100 %
01.07.2017 01:52 13,9 C 87 % 1003,9 hPa 0,0 l/m 0,2 km/h (0 Bft) W 268 11,8 C 3,1 km/h (1 Bft) 100 %
01.07.2017 01:53 13,9 C 87 % 1004,0 hPa 0,0 l/m 0,0 km/h (0 Bft) W 268 11,8 C 0,0 km/h (0 Bft) 100 %
01.07.2017 01:54 13,9 C 88 % 1004,0 hPa 0,0 l/m 0,0 km/h (0 Bft) W 268 11,9 C 0,0 km/h (0 Bft) 100 %
01.07.2017 01:55 13,9 C 88 % 1003,9 hPa 0,0 l/m 0,1 km/h (0 Bft) W 266 11,9 C 3,1 km/h (1 Bft) 100 %
01.07.2017 01:56 13,9 C 87 % 1003,9 hPa 0,0 l/m 0,0 km/h (0 Bft) W 266 11,8 C 0,0 km/h (0 Bft) 100 %
01.07.2017 01:57 13,9 C 87 % 1003,9 hPa 0,0 l/m 0,0 km/h (0 Bft) W 266 11,8 C 0,0 km/h (0 Bft) 100 %
01.07.2017 01:58 13,9 C 87 % 1003,9 hPa 0,0 l/m 0,0 km/h (0 Bft) W 266 11,8 C 0,0 km/h (0 Bft) 100 %
01.07.2017 01:59 13,9 C 87 % 1003,9 hPa 0,0 l/m 0,0 km/h (0 Bft) W 266 11,8 C 0,0 km/h (0 Bft) 100 %
01.07.2017 02:00 13,8 C 87 % 1003,9 hPa 0,0 l/m 0,0 km/h (0 Bft) W 266 11,7 C 0,0 km/h (0 Bft) 100 %
01.07.2017 02:01 13,9 C 88 % 1003,8 hPa 0,0 l/m 0,0 km/h (0 Bft) W 266 11,9 C 0,0 km/h (0 Bft) 100 %
01.07.2017 02:02 13,9 C 88 % 1003,8 hPa 0,0 l/m 0,0 km/h (0 Bft) W 266 11,9 C 0,0 km/h (0 Bft) 100 %
01.07.2017 02:03 13,8 C 88 % 1003,8 hPa 0,0 l/m 0,0 km/h (0 Bft) W 266 11,8 C 0,0 km/h (0 Bft) 100 %
01.07.2017 02:04 13,8 C 88 % 1003,8 hPa 0,0 l/m 0,0 km/h (0 Bft) W 266 11,8 C 0,0 km/h (0 Bft) 100 %
01.07.2017 02:05 13,8 C 88 % 1003,9 hPa 0,0 l/m 0,0 km/h (0 Bft) W 266 11,8 C 0,0 km/h (0 Bft) 100 %
01.07.2017 02:06 13,8 C 89 % 1003,9 hPa 0,0 l/m 0,0 km/h (0 Bft) W 266 12,0 C 0,0 km/h (0 Bft) 100 %
01.07.2017 02:07 13,8 C 89 % 1003,9 hPa 0,0 l/m 0,0 km/h (0 Bft) W 266 12,0 C 0,0 km/h (0 Bft) 100 %
01.07.2017 02:08 13,8 C 89 % 1003,9 hPa 0,0 l/m 0,0 km/h (0 Bft) W 265 12,0 C 0,0 km/h (0 Bft) 100 %
01.07.2017 02:09 13,7 C 88 % 1003,9 hPa 0,0 l/m 0,0 km/h (0 Bft) W-SW 244 11,7 C 0,0 km/h (0 Bft) 100 %
01.07.2017 02:10 13,7 C 89 % 1004,0 hPa 0,0 l/m 0,0 km/h (0 Bft) SW 233 11,9 C 0,0 km/h (0 Bft) 100 %
01.07.2017 02:11 13,7 C 88 % 1004,0 hPa 0,0 l/m 0,3 km/h (0 Bft) W-SW 252 11,7 C 3,1 km/h (1 Bft) 100 %
01.07.2017 02:12 13,7 C 88 % 1003,9 hPa 0,0 l/m 0,0 km/h (0 Bft) W-SW 252 11,7 C 0,0 km/h (0 Bft) 100 %
01.07.2017 02:13 13,7 C 88 % 1003,9 hPa 0,0 l/m 0,1 km/h (0 Bft) SW 228 11,7 C 3,1 km/h (1 Bft) 100 %
01.07.2017 02:14 13,8 C 88 % 1004,0 hPa 0,0 l/m 0,0 km/h (0 Bft) SW 228 11,8 C 0,0 km/h (0 Bft) 100 %
01.07.2017 02:15 13,8 C 89 % 1003,9 hPa 0,0 l/m 0,0 km/h (0 Bft) SW 228 12,0 C 0,0 km/h (0 Bft) 100 %
01.07.2017 02:16 13,8 C 88 % 1003,9 hPa 0,0 l/m 0,0 km/h (0 Bft) SW 228 11,8 C 0,0 km/h (0 Bft) 96 %
01.07.2017 02:17 13,8 C 88 % 1004,0 hPa 0,0 l/m 0,0 km/h (0 Bft) SW 228 11,8 C 0,0 km/h (0 Bft) 100 %
01.07.2017 02:19 13,8 C 87 % 1004,0 hPa 0,0 l/m 0,7 km/h (0 Bft) SW 219 11,7 C 6,3 km/h (2 Bft) 100 %
01.07.2017 02:20 13,8 C 87 % 1004,0 hPa 0,0 l/m 0,1 km/h (0 Bft) W-SW 249 11,7 C 3,1 km/h (1 Bft) 100 %
01.07.2017 02:21 13,9 C 87 % 1004,0 hPa 0,0 l/m 0,8 km/h (0 Bft) W 267 11,8 C 3,1 km/h (1 Bft) 100 %
01.07.2017 02:22 13,9 C 87 % 1004,0 hPa 0,0 l/m 0,0 km/h (0 Bft) W-NW 290 11,8 C 0,0 km/h (0 Bft) 100 %
01.07.2017 02:23 13,9 C 87 % 1004,0 hPa 0,0 l/m 0,0 km/h (0 Bft) W-NW 291 11,8 C 0,0 km/h (0 Bft) 96 %
01.07.2017 02:24 13,9 C 87 % 1004,0 hPa 0,0 l/m 0,0 km/h (0 Bft) W-NW 292 11,8 C 0,0 km/h (0 Bft) 100 %
01.07.2017 02:25 14,0 C 87 % 1004,0 hPa 0,0 l/m 0,0 km/h (0 Bft) W-NW 293 11,9 C 0,0 km/h (0 Bft) 96 %
01.07.2017 02:26 14,0 C 87 % 1004,0 hPa 0,0 l/m 0,0 km/h (0 Bft) NW 311 11,9 C 0,0 km/h (0 Bft) 100 %
01.07.2017 02:27 14,0 C 86 % 1003,9 hPa 0,0 l/m 0,0 km/h (0 Bft) NW 311 11,7 C 0,0 km/h (0 Bft) 96 %
01.07.2017 02:28 14,0 C 86 % 1004,0 hPa 0,0 l/m 0,6 km/h (0 Bft) SW 217 11,7 C 3,1 km/h (1 Bft) 100 %
01.07.2017 02:29 14,1 C 86 % 1003,9 hPa 0,0 l/m 0,0 km/h (0 Bft) W-SW 242 11,8 C 0,0 km/h (0 Bft) 96 %
01.07.2017 02:30 14,1 C 86 % 1003,9 hPa 0,0 l/m 1,2 km/h (1 Bft) W-SW 251 11,8 C 6,3 km/h (2 Bft) 100 %
01.07.2017 02:31 14,1 C 86 % 1004,0 hPa 0,0 l/m 0,0 km/h (0 Bft) W-SW 251 11,8 C 0,0 km/h (0 Bft) 96 %
01.07.2017 02:32 14,1 C 86 % 1004,0 hPa 0,0 l/m 0,8 km/h (0 Bft) SW 233 11,8 C 3,1 km/h (1 Bft) 96 %
01.07.2017 02:33 14,2 C 85 % 1003,9 hPa 0,0 l/m 1,6 km/h (1 Bft) SW 228 11,7 C 3,1 km/h (1 Bft) 100 %
01.07.2017 02:34 14,2 C 85 % 1003,9 hPa 0,0 l/m 0,0 km/h (0 Bft) SW 229 11,7 C 0,0 km/h (0 Bft) 100 %
01.07.2017 02:35 14,2 C 85 % 1004,0 hPa 0,0 l/m 2,5 km/h (1 Bft) W-SW 243 11,7 C 9,4 km/h (2 Bft) 100 %
01.07.2017 02:36 14,2 C 85 % 1004,0 hPa 0,0 l/m 2,7 km/h (1 Bft) W-SW 243 11,7 C 6,3 km/h (2 Bft) 100 %
01.07.2017 02:37 14,2 C 85 % 1004,0 hPa 0,0 l/m 1,4 km/h (1 Bft) SW 217 11,7 C 6,3 km/h (2 Bft) 100 %
01.07.2017 02:38 14,2 C 85 % 1004,0 hPa 0,0 l/m 5,0 km/h (1 Bft) SW 219 11,7 C 12,6 km/h (3 Bft) 100 %
01.07.2017 02:39 14,3 C 85 % 1004,0 hPa 0,0 l/m 1,7 km/h (1 Bft) S-SW 200 11,8 C 6,3 km/h (2 Bft) 100 %
01.07.2017 02:40 14,3 C 85 % 1004,0 hPa 0,0 l/m 2,7 km/h (1 Bft) S 190 11,8 C 9,4 km/h (2 Bft) 100 %
01.07.2017 02:41 14,3 C 85 % 1004,0 hPa 0,0 l/m 3,4 km/h (1 Bft) S-SW 208 11,8 C 12,6 km/h (3 Bft) 100 %
01.07.2017 02:42 14,3 C 85 % 1004,0 hPa 0,0 l/m 0,3 km/h (0 Bft) S-SW 213 11,8 C 3,1 km/h (1 Bft) 100 %
01.07.2017 02:43 14,3 C 85 % 1004,0 hPa 0,0 l/m 0,7 km/h (0 Bft) S-SW 210 11,8 C 3,1 km/h (1 Bft) 100 %
01.07.2017 02:44 14,3 C 85 % 1004,0 hPa 0,0 l/m 4,4 km/h (1 Bft) S-SO 160 11,8 C 6,3 km/h (2 Bft) 100 %
01.07.2017 02:45 14,3 C 84 % 1004,0 hPa 0,0 l/m 3,5 km/h (1 Bft) W-SW 255 11,6 C 12,6 km/h (3 Bft) 100 %
01.07.2017 02:46 14,3 C 84 % 1004,0 hPa 0,0 l/m 1,4 km/h (1 Bft) S-SW 209 11,6 C 6,3 km/h (2 Bft) 100 %
01.07.2017 02:47 14,3 C 84 % 1004,0 hPa 0,0 l/m 0,0 km/h (0 Bft) SW 234 11,6 C 0,0 km/h (0 Bft) 100 %
01.07.2017 02:48 14,3 C 85 % 1004,0 hPa 0,0 l/m 2,1 km/h (1 Bft) W-NW 288 11,8 C 3,1 km/h (1 Bft) 100 %
01.07.2017 02:49 14,3 C 85 % 1004,1 hPa 0,0 l/m 2,8 km/h (1 Bft) S-SO 156 11,8 C 9,4 km/h (2 Bft) 100 %
01.07.2017 02:50 14,3 C 84 % 1004,1 hPa 0,0 l/m 5,1 km/h (1 Bft) W-SW 257 11,6 C 12,6 km/h (3 Bft) 100 %
01.07.2017 02:51 14,3 C 84 % 1004,1 hPa 0,0 l/m 1,8 km/h (1 Bft) NW 318 11,6 C 6,3 km/h (2 Bft) 100 %
01.07.2017 02:52 14,3 C 85 % 1004,1 hPa 0,0 l/m 1,0 km/h (0 Bft) W 272 11,8 C 6,3 km/h (2 Bft) 100 %
01.07.2017 02:53 14,3 C 85 % 1004,1 hPa 0,0 l/m 0,0 km/h (0 Bft) W 272 11,8 C 0,0 km/h (0 Bft) 100 %
01.07.2017 02:54 14,3 C 85 % 1004,1 hPa 0,0 l/m 1,4 km/h (1 Bft) W 268 11,8 C 3,1 km/h (1 Bft) 100 %
01.07.2017 02:55 14,3 C 85 % 1004,1 hPa 0,0 l/m 4,8 km/h (1 Bft) W-NW 293 11,8 C 9,4 km/h (2 Bft) 100 %
01.07.2017 02:56 14,3 C 85 % 1004,1 hPa 0,0 l/m 0,9 km/h (0 Bft) NW 316 11,8 C 6,3 km/h (2 Bft) 100 %
01.07.2017 02:57 14,3 C 85 % 1004,1 hPa 0,0 l/m 1,8 km/h (1 Bft) W-SW 247 11,8 C 3,1 km/h (1 Bft) 100 %
01.07.2017 02:58 14,3 C 86 % 1004,1 hPa 0,0 l/m 0,0 km/h (0 Bft) W-SW 255 12,0 C 0,0 km/h (0 Bft) 100 %
01.07.2017 02:59 14,3 C 86 % 1004,1 hPa 0,0 l/m 1,4 km/h (1 Bft) W 264 12,0 C 6,3 km/h (2 Bft) 100 %
01.07.2017 03:00 14,3 C 86 % 1004,1 hPa 0,0 l/m 0,8 km/h (0 Bft) W 263 12,0 C 6,3 km/h (2 Bft) 100 %
01.07.2017 03:01 14,2 C 86 % 1004,1 hPa 0,0 l/m 0,5 km/h (0 Bft) W 267 11,9 C 3,1 km/h (1 Bft) 100 %
01.07.2017 03:02 14,2 C 87 % 1004,1 hPa 0,0 l/m 0,3 km/h (0 Bft) W-SW 238 12,1 C 3,1 km/h (1 Bft) 100 %
01.07.2017 03:03 14,2 C 87 % 1004,1 hPa 0,0 l/m 0,8 km/h (0 Bft) W-SW 256 12,1 C 3,1 km/h (1 Bft) 100 %
01.07.2017 03:04 14,2 C 87 % 1004,1 hPa 0,0 l/m 0,0 km/h (0 Bft) S-SW 205 12,1 C 0,0 km/h (0 Bft) 100 %
01.07.2017 03:05 14,2 C 87 % 1004,1 hPa 0,0 l/m 0,0 km/h (0 Bft) S-SW 205 12,1 C 0,0 km/h (0 Bft) 100 %
01.07.2017 03:06 14,1 C 87 % 1004,0 hPa 0,0 l/m 2,1 km/h (1 Bft) SW 224 12,0 C 6,3 km/h (2 Bft) 100 %
01.07.2017 03:07 14,1 C 87 % 1004,0 hPa 0,0 l/m 1,0 km/h (0 Bft) W 278 12,0 C 3,1 km/h (1 Bft) 100 %
01.07.2017 03:08 14,1 C 87 % 1004,0 hPa 0,0 l/m 1,0 km/h (0 Bft) W-NW 293 12,0 C 3,1 km/h (1 Bft) 100 %
01.07.2017 03:09 14,1 C 87 % 1004,0 hPa 0,0 l/m 1,3 km/h (1 Bft) W 276 12,0 C 6,3 km/h (2 Bft) 100 %
01.07.2017 03:10 14,0 C 87 % 1004,0 hPa 0,0 l/m 0,9 km/h (0 Bft) W 265 11,9 C 6,3 km/h (2 Bft) 100 %
01.07.2017 03:11 14,0 C 88 % 1004,0 hPa 0,0 l/m 0,1 km/h (0 Bft) W 265 12,0 C 3,1 km/h (1 Bft) 100 %
01.07.2017 03:12 14,0 C 88 % 1004,0 hPa 0,0 l/m 1,4 km/h (1 Bft) W-SW 245 12,0 C 3,1 km/h (1 Bft) 100 %
01.07.2017 03:13 14,0 C 88 % 1004,0 hPa 0,0 l/m 0,0 km/h (0 Bft) W-SW 245 12,0 C 0,0 km/h (0 Bft) 100 %
01.07.2017 03:14 13,9 C 88 % 1004,1 hPa 0,0 l/m 0,0 km/h (0 Bft) W-SW 245 11,9 C 0,0 km/h (0 Bft) 100 %
01.07.2017 03:15 13,9 C 88 % 1004,1 hPa 0,0 l/m 0,0 km/h (0 Bft) W-SW 248 11,9 C 0,0 km/h (0 Bft) 100 %
01.07.2017 03:16 13,9 C 88 % 1004,1 hPa 0,0 l/m 0,1 km/h (0 Bft) W-SW 248 11,9 C 3,1 km/h (1 Bft) 100 %
01.07.2017 03:17 13,9 C 89 % 1004,1 hPa 0,0 l/m 0,0 km/h (0 Bft) W-SW 248 12,1 C 0,0 km/h (0 Bft) 100 %
01.07.2017 03:18 13,9 C 88 % 1004,0 hPa 0,0 l/m 0,0 km/h (0 Bft) W-SW 248 11,9 C 0,0 km/h (0 Bft) 100 %
01.07.2017 03:19 13,9 C 88 % 1004,0 hPa 0,0 l/m 0,0 km/h (0 Bft) W-SW 248 11,9 C 0,0 km/h (0 Bft) 100 %
01.07.2017 03:20 13,9 C 88 % 1004,1 hPa 0,0 l/m 0,0 km/h (0 Bft) W-SW 248 11,9 C 0,0 km/h (0 Bft) 100 %
01.07.2017 03:21 13,9 C 88 % 1004,1 hPa 0,0 l/m 0,0 km/h (0 Bft) W-SW 248 11,9 C 0,0 km/h (0 Bft) 100 %
01.07.2017 03:22 13,9 C 89 % 1004,1 hPa 0,0 l/m 0,0 km/h (0 Bft) W-SW 248 12,1 C 0,0 km/h (0 Bft) 100 %
01.07.2017 03:23 13,9 C 89 % 1004,0 hPa 0,0 l/m 0,0 km/h (0 Bft) W-SW 248 12,1 C 0,0 km/h (0 Bft) 100 %
01.07.2017 03:24 13,8 C 89 % 1004,1 hPa 0,0 l/m 0,0 km/h (0 Bft) W-SW 248 12,0 C 0,0 km/h (0 Bft) 100 %
01.07.2017 03:25 13,8 C 89 % 1004,1 hPa 0,0 l/m 0,0 km/h (0 Bft) W-SW 248 12,0 C 0,0 km/h (0 Bft) 100 %
01.07.2017 03:26 13,8 C 89 % 1004,1 hPa 0,0 l/m 0,0 km/h (0 Bft) W-SW 248 12,0 C 0,0 km/h (0 Bft) 100 %
01.07.2017 03:27 13,8 C 89 % 1004,0 hPa 0,0 l/m 0,0 km/h (0 Bft) W-SW 248 12,0 C 0,0 km/h (0 Bft) 96 %
01.07.2017 03:28 13,8 C 89 % 1004,1 hPa 0,0 l/m 0,0 km/h (0 Bft) W-SW 248 12,0 C 0,0 km/h (0 Bft) 100 %
01.07.2017 03:29 13,8 C 89 % 1004,0 hPa 0,0 l/m 0,0 km/h (0 Bft) W-SW 248 12,0 C 0,0 km/h (0 Bft) 100 %
01.07.2017 03:30 13,8 C 89 % 1004,0 hPa 0,0 l/m 0,0 km/h (0 Bft) W-SW 248 12,0 C 0,0 km/h (0 Bft) 96 %
01.07.2017 03:31 13,7 C 90 % 1004,0 hPa 0,0 l/m 0,0 km/h (0 Bft) W-SW 248 12,1 C 0,0 km/h (0 Bft) 100 %
01.07.2017 03:32 13,7 C 90 % 1004,1 hPa 0,0 l/m 0,1 km/h (0 Bft) W-SW 248 12,1 C 3,1 km/h (1 Bft) 96 %
01.07.2017 03:33 13,7 C 90 % 1004,0 hPa 0,0 l/m 0,0 km/h (0 Bft) W-SW 248 12,1 C 0,0 km/h (0 Bft) 96 %
01.07.2017 03:34 13,7 C 90 % 1004,0 hPa 0,0 l/m 0,0 km/h (0 Bft) W-SW 248 12,1 C 0,0 km/h (0 Bft) 100 %
01.07.2017 03:35 13,7 C 90 % 1004,0 hPa 0,0 l/m 0,0 km/h (0 Bft) NW 326 12,1 C 0,0 km/h (0 Bft) 96 %
01.07.2017 03:36 13,7 C 90 % 1004,0 hPa 0,2 l/m 0,0 km/h (0 Bft) NW 319 12,1 C 0,0 km/h (0 Bft) 100 %
01.07.2017 03:37 13,6 C 90 % 1004,0 hPa 0,0 l/m 0,3 km/h (0 Bft) N-NW 332 12,0 C 3,1 km/h (1 Bft) 96 %
01.07.2017 03:38 13,6 C 90 % 1004,0 hPa 0,0 l/m 0,0 km/h (0 Bft) N-NW 332 12,0 C 0,0 km/h (0 Bft) 96 %
01.07.2017 03:39 13,6 C 91 % 1004,0 hPa 0,0 l/m 0,0 km/h (0 Bft) N-NW 330 12,2 C 0,0 km/h (0 Bft) 100 %
01.07.2017 03:40 13,6 C 91 % 1004,0 hPa 0,0 l/m 0,6 km/h (0 Bft) W-SW 256 12,2 C 3,1 km/h (1 Bft) 100 %
01.07.2017 03:41 13,6 C 90 % 1004,0 hPa 0,0 l/m 0,4 km/h (0 Bft) W-SW 256 12,0 C 3,1 km/h (1 Bft) 100 %
01.07.2017 03:42 13,6 C 90 % 1004,0 hPa 0,0 l/m 0,1 km/h (0 Bft) W-SW 255 12,0 C 3,1 km/h (1 Bft) 100 %
01.07.2017 03:43 13,5 C 91 % 1004,0 hPa 0,0 l/m 0,0 km/h (0 Bft) W-SW 255 12,1 C 0,0 km/h (0 Bft) 100 %
01.07.2017 03:44 13,5 C 91 % 1004,1 hPa 0,0 l/m 0,1 km/h (0 Bft) W-SW 253 12,1 C 3,1 km/h (1 Bft) 100 %
01.07.2017 03:45 13,5 C 91 % 1004,0 hPa 0,0 l/m 0,1 km/h (0 Bft) W-SW 255 12,1 C 3,1 km/h (1 Bft) 100 %
01.07.2017 03:46 13,5 C 91 % 1004,0 hPa 0,0 l/m 0,0 km/h (0 Bft) W-SW 255 12,1 C 0,0 km/h (0 Bft) 100 %
01.07.2017 03:47 13,4 C 91 % 1004,0 hPa 0,0 l/m 1,4 km/h (1 Bft) W-SW 237 12,0 C 3,1 km/h (1 Bft) 100 %
01.07.2017 03:48 13,4 C 91 % 1004,0 hPa 0,0 l/m 0,0 km/h (0 Bft) W-SW 237 12,0 C 0,0 km/h (0 Bft) 100 %
01.07.2017 03:49 13,4 C 91 % 1004,0 hPa 0,2 l/m 0,0 km/h (0 Bft) NW 325 12,0 C 0,0 km/h (0 Bft) 100 %
01.07.2017 03:50 13,4 C 91 % 1004,0 hPa 0,0 l/m 1,2 km/h (1 Bft) W-SW 238 12,0 C 6,3 km/h (2 Bft) 100 %
01.07.2017 03:51 13,4 C 91 % 1004,0 hPa 0,0 l/m 1,5 km/h (1 Bft) SW 224 12,0 C 6,3 km/h (2 Bft) 100 %
01.07.2017 03:52 13,4 C 91 % 1003,9 hPa 0,0 l/m 0,0 km/h (0 Bft) SW 224 12,0 C 0,0 km/h (0 Bft) 100 %
01.07.2017 03:53 13,4 C 91 % 1003,9 hPa 0,0 l/m 0,0 km/h (0 Bft) SW 224 12,0 C 0,0 km/h (0 Bft) 100 %
01.07.2017 03:54 13,4 C 91 % 1003,9 hPa 0,0 l/m 0,0 km/h (0 Bft) SW 224 12,0 C 0,0 km/h (0 Bft) 100 %
01.07.2017 03:55 13,4 C 91 % 1003,9 hPa 0,0 l/m 0,1 km/h (0 Bft) SW 234 12,0 C 3,1 km/h (1 Bft) 100 %
01.07.2017 03:56 13,4 C 91 % 1003,9 hPa 0,0 l/m 0,0 km/h (0 Bft) SW 235 12,0 C 0,0 km/h (0 Bft) 100 %
01.07.2017 03:57 13,4 C 91 % 1004,0 hPa 0,0 l/m 0,1 km/h (0 Bft) W-NW 288 12,0 C 3,1 km/h (1 Bft) 100 %
01.07.2017 03:58 13,4 C 92 % 1003,9 hPa 0,0 l/m 0,0 km/h (0 Bft) W-NW 288 12,1 C 0,0 km/h (0 Bft) 100 %
01.07.2017 03:59 13,3 C 92 % 1004,0 hPa 0,0 l/m 0,1 km/h (0 Bft) W-NW 288 12,0 C 3,1 km/h (1 Bft) 100 %
01.07.2017 04:00 13,3 C 92 % 1004,0 hPa 0,0 l/m 0,5 km/h (0 Bft) N-NW 348 12,0 C 3,1 km/h (1 Bft) 100 %
01.07.2017 04:03 13,3 C 92 % 1003,9 hPa 0,0 l/m 0,0 km/h (0 Bft) NW 321 12,0 C 0,0 km/h (0 Bft) 100 %
01.07.2017 04:04 13,3 C 92 % 1003,9 hPa 0,0 l/m 1,1 km/h (1 Bft) SW 225 12,0 C 3,1 km/h (1 Bft) 100 %
01.07.2017 04:05 13,3 C 92 % 1004,0 hPa 0,0 l/m 2,0 km/h (1 Bft) W-SW 239 12,0 C 6,3 km/h (2 Bft) 100 %
01.07.2017 04:06 13,3 C 92 % 1004,0 hPa 0,0 l/m 0,0 km/h (0 Bft) W-NW 300 12,0 C 0,0 km/h (0 Bft) 100 %
01.07.2017 04:07 13,2 C 92 % 1004,0 hPa 0,0 l/m 0,9 km/h (0 Bft) S-SW 212 11,9 C 6,3 km/h (2 Bft) 100 %
01.07.2017 04:08 13,2 C 92 % 1004,0 hPa 0,0 l/m 0,0 km/h (0 Bft) S-SW 211 11,9 C 0,0 km/h (0 Bft) 100 %
01.07.2017 04:09 13,2 C 92 % 1004,0 hPa 0,0 l/m 2,0 km/h (1 Bft) W 272 11,9 C 3,1 km/h (1 Bft) 100 %
01.07.2017 04:10 13,2 C 92 % 1004,0 hPa 0,0 l/m 0,0 km/h (0 Bft) W 272 11,9 C 0,0 km/h (0 Bft) 100 %
01.07.2017 04:11 13,2 C 92 % 1004,0 hPa 0,0 l/m 1,5 km/h (1 Bft) S-SO 160 11,9 C 6,3 km/h (2 Bft) 100 %
01.07.2017 04:12 13,2 C 92 % 1004,0 hPa 0,0 l/m 0,0 km/h (0 Bft) SW 224 11,9 C 0,0 km/h (0 Bft) 100 %
01.07.2017 04:13 13,2 C 92 % 1004,0 hPa 0,0 l/m 0,9 km/h (0 Bft) SW 231 11,9 C 3,1 km/h (1 Bft) 100 %
01.07.2017 04:14 13,2 C 92 % 1004,0 hPa 0,0 l/m 2,0 km/h (1 Bft) SW 235 11,9 C 6,3 km/h (2 Bft) 100 %
01.07.2017 04:15 13,2 C 92 % 1004,0 hPa 0,0 l/m 0,8 km/h (0 Bft) S 176 11,9 C 3,1 km/h (1 Bft) 100 %
01.07.2017 04:16 13,2 C 92 % 1004,0 hPa 0,0 l/m 0,7 km/h (0 Bft) S-SO 149 11,9 C 3,1 km/h (1 Bft) 100 %
01.07.2017 04:17 13,1 C 93 % 1004,0 hPa 0,0 l/m 0,0 km/h (0 Bft) S-SO 152 12,0 C 0,0 km/h (0 Bft) 100 %
01.07.2017 04:18 13,1 C 93 % 1004,0 hPa 0,0 l/m 1,0 km/h (0 Bft) S 188 12,0 C 6,3 km/h (2 Bft) 100 %
01.07.2017 04:19 13,1 C 93 % 1003,9 hPa 0,0 l/m 0,1 km/h (0 Bft) S-SO 165 12,0 C 3,1 km/h (1 Bft) 100 %
01.07.2017 04:20 13,1 C 93 % 1004,0 hPa 0,0 l/m 0,0 km/h (0 Bft) S-SO 164 12,0 C 0,0 km/h (0 Bft) 100 %
01.07.2017 04:21 13,1 C 93 % 1004,0 hPa 0,0 l/m 0,0 km/h (0 Bft) S 191 12,0 C 0,0 km/h (0 Bft) 100 %
01.07.2017 04:22 13,1 C 93 % 1004,0 hPa 0,0 l/m 0,0 km/h (0 Bft) S-SW 192 12,0 C 0,0 km/h (0 Bft) 100 %
01.07.2017 04:23 13,1 C 93 % 1004,0 hPa 0,0 l/m 0,0 km/h (0 Bft) S-SW 195 12,0 C 0,0 km/h (0 Bft) 100 %
01.07.2017 04:24 13,1 C 93 % 1004,0 hPa 0,0 l/m 1,2 km/h (1 Bft) S-SW 199 12,0 C 6,3 km/h (2 Bft) 100 %
01.07.2017 04:25 13,1 C 93 % 1004,0 hPa 0,0 l/m 0,3 km/h (0 Bft) S-SO 162 12,0 C 3,1 km/h (1 Bft) 100 %
01.07.2017 04:26 13,1 C 93 % 1004,0 hPa 0,0 l/m 0,0 km/h (0 Bft) S-SW 198 12,0 C 0,0 km/h (0 Bft) 100 %
01.07.2017 04:27 13,1 C 93 % 1004,0 hPa 0,0 l/m 2,6 km/h (1 Bft) SW 218 12,0 C 6,3 km/h (2 Bft) 100 %
01.07.2017 04:28 13,1 C 93 % 1003,9 hPa 0,0 l/m 0,6 km/h (0 Bft) SW 228 12,0 C 3,1 km/h (1 Bft) 100 %
01.07.2017 04:29 13,1 C 93 % 1003,9 hPa 0,0 l/m 0,0 km/h (0 Bft) SW 229 12,0 C 0,0 km/h (0 Bft) 100 %
01.07.2017 04:30 13,1 C 93 % 1004,0 hPa 0,0 l/m 0,1 km/h (0 Bft) SW 226 12,0 C 3,1 km/h (1 Bft) 100 %
01.07.2017 04:31 13,1 C 93 % 1004,0 hPa 0,0 l/m 1,8 km/h (1 Bft) W-SW 247 12,0 C 6,3 km/h (2 Bft) 100 %
01.07.2017 04:32 13,1 C 93 % 1004,0 hPa 0,0 l/m 0,8 km/h (0 Bft) S-SW 204 12,0 C 3,1 km/h (1 Bft) 100 %
01.07.2017 04:33 13,1 C 93 % 1003,9 hPa 0,0 l/m 2,9 km/h (1 Bft) SW 233 12,0 C 9,4 km/h (2 Bft) 100 %
01.07.2017 04:34 13,0 C 93 % 1004,0 hPa 0,0 l/m 0,2 km/h (0 Bft) SW 233 11,9 C 3,1 km/h (1 Bft) 96 %
01.07.2017 04:35 13,0 C 93 % 1003,9 hPa 0,0 l/m 0,0 km/h (0 Bft) W-SW 237 11,9 C 0,0 km/h (0 Bft) 96 %
01.07.2017 04:36 13,0 C 93 % 1003,9 hPa 0,0 l/m 1,7 km/h (1 Bft) W-SW 244 11,9 C 6,3 km/h (2 Bft) 100 %
01.07.2017 04:37 13,0 C 93 % 1003,9 hPa 0,0 l/m 0,9 km/h (0 Bft) SW 226 11,9 C 6,3 km/h (2 Bft) 96 %
01.07.2017 04:38 13,0 C 93 % 1003,9 hPa 0,0 l/m 0,0 km/h (0 Bft) SW 226 11,9 C 0,0 km/h (0 Bft) 96 %
01.07.2017 04:39 13,0 C 93 % 1003,9 hPa 0,0 l/m 0,0 km/h (0 Bft) SW 226 11,9 C 0,0 km/h (0 Bft) 100 %
01.07.2017 04:40 13,1 C 93 % 1003,9 hPa 0,0 l/m 0,0 km/h (0 Bft) SW 229 12,0 C 0,0 km/h (0 Bft) 100 %
01.07.2017 04:41 13,1 C 93 % 1003,9 hPa 0,0 l/m 1,4 km/h (1 Bft) W-SW 240 12,0 C 6,3 km/h (2 Bft) 96 %
01.07.2017 04:42 13,1 C 93 % 1004,0 hPa 0,2 l/m 3,3 km/h (1 Bft) W-SW 241 12,0 C 9,4 km/h (2 Bft) 96 %
01.07.2017 04:43 13,1 C 93 % 1004,0 hPa 0,0 l/m 0,1 km/h (0 Bft) W-SW 240 12,0 C 3,1 km/h (1 Bft) 100 %
01.07.2017 04:44 13,0 C 93 % 1003,9 hPa 0,0 l/m 0,0 km/h (0 Bft) W-SW 240 11,9 C 0,0 km/h (0 Bft) 96 %
01.07.2017 04:45 13,1 C 94 % 1004,0 hPa 0,0 l/m 0,1 km/h (0 Bft) W 279 12,2 C 3,1 km/h (1 Bft) 100 %
01.07.2017 04:46 13,1 C 94 % 1004,0 hPa 0,0 l/m 1,1 km/h (1 Bft) SW 219 12,2 C 3,1 km/h (1 Bft) 92 %
01.07.2017 04:47 13,0 C 93 % 1004,0 hPa 0,0 l/m 0,0 km/h (0 Bft) S-SO 167 11,9 C 0,0 km/h (0 Bft) 100 %
01.07.2017 04:48 13,0 C 94 % 1004,0 hPa 0,0 l/m 0,0 km/h (0 Bft) S-SO 166 12,1 C 0,0 km/h (0 Bft) 100 %
01.07.2017 04:49 13,0 C 94 % 1004,0 hPa 0,0 l/m 0,0 km/h (0 Bft) S-SO 166 12,1 C 0,0 km/h (0 Bft) 100 %
01.07.2017 04:50 13,0 C 94 % 1004,0 hPa 0,0 l/m 0,8 km/h (0 Bft) W-SW 257 12,1 C 3,1 km/h (1 Bft) 100 %
01.07.2017 04:51 13,0 C 94 % 1004,0 hPa 0,0 l/m 0,5 km/h (0 Bft) SW 218 12,1 C 3,1 km/h (1 Bft) 96 %
01.07.2017 04:52 13,0 C 94 % 1003,9 hPa 0,0 l/m 0,0 km/h (0 Bft) SW 218 12,1 C 0,0 km/h (0 Bft) 100 %
01.07.2017 04:53 13,0 C 94 % 1004,0 hPa 0,0 l/m 0,0 km/h (0 Bft) SW 218 12,1 C 0,0 km/h (0 Bft) 100 %
01.07.2017 04:54 13,0 C 94 % 1004,0 hPa 0,0 l/m 0,0 km/h (0 Bft) SW 218 12,1 C 0,0 km/h (0 Bft) 100 %
01.07.2017 04:55 13,0 C 94 % 1004,0 hPa 0,0 l/m 0,0 km/h (0 Bft) SW 218 12,1 C 0,0 km/h (0 Bft) 100 %
01.07.2017 04:56 13,0 C 94 % 1004,0 hPa 0,0 l/m 0,0 km/h (0 Bft) SW 218 12,1 C 0,0 km/h (0 Bft) 100 %
01.07.2017 04:57 13,0 C 94 % 1004,0 hPa 0,0 l/m 0,0 km/h (0 Bft) SW 218 12,1 C 0,0 km/h (0 Bft) 100 %
01.07.2017 04:58 13,0 C 94 % 1004,0 hPa 0,0 l/m 0,0 km/h (0 Bft) SW 218 12,1 C 0,0 km/h (0 Bft) 100 %
01.07.2017 04:59 13,0 C 94 % 1004,0 hPa 0,0 l/m 0,0 km/h (0 Bft) S 188 12,1 C 0,0 km/h (0 Bft) 100 %
01.07.2017 05:00 13,0 C 94 % 1004,0 hPa 0,0 l/m 0,0 km/h (0 Bft) S 188 12,1 C 0,0 km/h (0 Bft) 100 %
01.07.2017 05:01 13,0 C 94 % 1004,0 hPa 0,0 l/m 0,6 km/h (0 Bft) W 274 12,1 C 3,1 km/h (1 Bft) 100 %
01.07.2017 05:02 13,0 C 94 % 1004,0 hPa 0,2 l/m 0,3 km/h (0 Bft) W 272 12,1 C 3,1 km/h (1 Bft) 100 %
01.07.2017 05:03 13,0 C 94 % 1004,0 hPa 0,0 l/m 0,0 km/h (0 Bft) W 272 12,1 C 0,0 km/h (0 Bft) 100 %
01.07.2017 05:04 13,0 C 94 % 1004,0 hPa 0,0 l/m 0,1 km/h (0 Bft) W 272 12,1 C 3,1 km/h (1 Bft) 100 %
01.07.2017 05:05 13,0 C 94 % 1004,0 hPa 0,0 l/m 2,5 km/h (1 Bft) S-SO 158 12,1 C 6,3 km/h (2 Bft) 100 %
01.07.2017 05:06 12,9 C 94 % 1004,0 hPa 0,0 l/m 0,1 km/h (0 Bft) S-SW 193 12,0 C 3,1 km/h (1 Bft) 100 %
01.07.2017 05:07 12,9 C 94 % 1004,0 hPa 0,0 l/m 0,0 km/h (0 Bft) S-SW 193 12,0 C 0,0 km/h (0 Bft) 100 %
01.07.2017 05:08 12,9 C 94 % 1004,0 hPa 0,0 l/m 0,1 km/h (0 Bft) S-SW 207 12,0 C 3,1 km/h (1 Bft) 100 %
01.07.2017 05:09 12,9 C 94 % 1003,9 hPa 0,0 l/m 0,3 km/h (0 Bft) S-SW 202 12,0 C 3,1 km/h (1 Bft) 100 %
01.07.2017 05:10 12,9 C 94 % 1003,9 hPa 0,0 l/m 0,0 km/h (0 Bft) S-SW 203 12,0 C 0,0 km/h (0 Bft) 100 %
01.07.2017 05:11 12,9 C 94 % 1003,9 hPa 0,0 l/m 0,0 km/h (0 Bft) S-SW 202 12,0 C 0,0 km/h (0 Bft) 100 %
01.07.2017 05:12 12,9 C 94 % 1003,9 hPa 0,0 l/m 0,0 km/h (0 Bft) S-SW 203 12,0 C 0,0 km/h (0 Bft) 100 %
01.07.2017 05:13 13,0 C 94 % 1003,9 hPa 0,0 l/m 1,2 km/h (1 Bft) W-NW 292 12,1 C 3,1 km/h (1 Bft) 100 %
01.07.2017 05:14 13,0 C 94 % 1003,9 hPa 0,0 l/m 1,1 km/h (1 Bft) W 278 12,1 C 6,3 km/h (2 Bft) 100 %
01.07.2017 05:15 13,0 C 94 % 1004,0 hPa 0,0 l/m 0,0 km/h (0 Bft) W 278 12,1 C 0,0 km/h (0 Bft) 100 %
01.07.2017 05:16 13,0 C 94 % 1003,9 hPa 0,0 l/m 0,0 km/h (0 Bft) W-SW 252 12,1 C 0,0 km/h (0 Bft) 100 %
01.07.2017 05:17 13,0 C 94 % 1003,9 hPa 0,0 l/m 0,0 km/h (0 Bft) W-SW 244 12,1 C 0,0 km/h (0 Bft) 100 %
01.07.2017 05:18 13,0 C 94 % 1003,9 hPa 0,0 l/m 0,0 km/h (0 Bft) W-SW 244 12,1 C 0,0 km/h (0 Bft) 100 %
01.07.2017 05:19 13,0 C 94 % 1003,9 hPa 0,0 l/m 1,0 km/h (0 Bft) SW 233 12,1 C 3,1 km/h (1 Bft) 100 %
01.07.2017 05:20 12,9 C 94 % 1003,9 hPa 0,0 l/m 1,1 km/h (1 Bft) SW 229 12,0 C 3,1 km/h (1 Bft) 100 %
01.07.2017 05:21 13,0 C 94 % 1003,9 hPa 0,0 l/m 0,8 km/h (0 Bft) SW 228 12,1 C 3,1 km/h (1 Bft) 100 %
01.07.2017 05:22 13,0 C 94 % 1003,9 hPa 0,0 l/m 0,2 km/h (0 Bft) SW 228 12,1 C 3,1 km/h (1 Bft) 100 %
01.07.2017 05:23 13,0 C 94 % 1003,9 hPa 0,0 l/m 1,5 km/h (1 Bft) S-SW 204 12,1 C 12,6 km/h (3 Bft) 100 %
01.07.2017 05:24 13,0 C 94 % 1003,9 hPa 0,0 l/m 2,5 km/h (1 Bft) W-SW 246 12,1 C 6,3 km/h (2 Bft) 100 %
01.07.2017 05:25 13,0 C 94 % 1003,9 hPa 0,0 l/m 0,0 km/h (0 Bft) W-SW 245 12,1 C 0,0 km/h (0 Bft) 100 %
01.07.2017 05:26 13,0 C 94 % 1003,9 hPa 0,0 l/m 2,4 km/h (1 Bft) SW 229 12,1 C 6,3 km/h (2 Bft) 100 %
01.07.2017 05:27 13,0 C 94 % 1003,9 hPa 0,0 l/m 0,0 km/h (0 Bft) SW 221 12,1 C 0,0 km/h (0 Bft) 100 %
01.07.2017 05:28 12,9 C 94 % 1003,9 hPa 0,0 l/m 2,8 km/h (1 Bft) W-SW 249 12,0 C 6,3 km/h (2 Bft) 100 %
01.07.2017 05:29 12,9 C 94 % 1003,9 hPa 0,0 l/m 0,0 km/h (0 Bft) W-SW 249 12,0 C 0,0 km/h (0 Bft) 100 %
01.07.2017 05:30 12,9 C 94 % 1003,9 hPa 0,0 l/m 0,4 km/h (0 Bft) SW 233 12,0 C 3,1 km/h (1 Bft) 100 %
01.07.2017 05:31 13,0 C 94 % 1003,9 hPa 0,0 l/m 0,8 km/h (0 Bft) SW 236 12,1 C 3,1 km/h (1 Bft) 100 %
01.07.2017 05:32 12,9 C 94 % 1003,9 hPa 0,0 l/m 0,8 km/h (0 Bft) S 190 12,0 C 3,1 km/h (1 Bft) 100 %
01.07.2017 05:33 12,9 C 94 % 1003,9 hPa 0,0 l/m 0,5 km/h (0 Bft) S-SW 193 12,0 C 3,1 km/h (1 Bft) 100 %
01.07.2017 05:34 12,9 C 94 % 1003,9 hPa 0,0 l/m 0,0 km/h (0 Bft) S-SW 195 12,0 C 0,0 km/h (0 Bft) 100 %
01.07.2017 05:35 12,9 C 94 % 1003,9 hPa 0,0 l/m 0,9 km/h (0 Bft) SW 224 12,0 C 3,1 km/h (1 Bft) 100 %
01.07.2017 05:36 13,0 C 94 % 1003,9 hPa 0,0 l/m 0,0 km/h (0 Bft) SW 224 12,1 C 0,0 km/h (0 Bft) 100 %
01.07.2017 05:37 13,0 C 95 % 1004,0 hPa 0,0 l/m 0,0 km/h (0 Bft) SW 224 12,2 C 0,0 km/h (0 Bft) 100 %
01.07.2017 05:38 13,0 C 95 % 1004,0 hPa 0,0 l/m 0,3 km/h (0 Bft) W 274 12,2 C 3,1 km/h (1 Bft) 100 %
01.07.2017 05:39 13,0 C 95 % 1004,0 hPa 0,0 l/m 1,0 km/h (0 Bft) W 262 12,2 C 3,1 km/h (1 Bft) 100 %
01.07.2017 05:40 13,0 C 95 % 1004,0 hPa 0,0 l/m 1,1 km/h (1 Bft) SW 222 12,2 C 6,3 km/h (2 Bft) 100 %
01.07.2017 05:41 13,0 C 95 % 1004,0 hPa 0,0 l/m 1,8 km/h (1 Bft) S-SW 201 12,2 C 6,3 km/h (2 Bft) 100 %
01.07.2017 05:42 13,0 C 95 % 1004,0 hPa 0,0 l/m 0,0 km/h (0 Bft) S-SW 201 12,2 C 0,0 km/h (0 Bft) 100 %
01.07.2017 05:43 13,0 C 95 % 1004,0 hPa 0,0 l/m 1,3 km/h (1 Bft) SW 226 12,2 C 6,3 km/h (2 Bft) 96 %
01.07.2017 05:44 13,0 C 95 % 1004,0 hPa 0,0 l/m 3,1 km/h (1 Bft) W-SW 245 12,2 C 6,3 km/h (2 Bft) 100 %
01.07.2017 05:45 13,0 C 95 % 1004,1 hPa 0,0 l/m 0,8 km/h (0 Bft) W-SW 243 12,2 C 3,1 km/h (1 Bft) 97 %
01.07.2017 05:46 13,0 C 95 % 1004,1 hPa 0,0 l/m 0,1 km/h (0 Bft) W 270 12,2 C 3,1 km/h (1 Bft) 100 %
01.07.2017 05:47 13,0 C 94 % 1004,1 hPa 0,0 l/m 2,4 km/h (1 Bft) SW 214 12,1 C 9,4 km/h (2 Bft) 92 %
01.07.2017 05:48 13,1 C 94 % 1004,1 hPa 0,0 l/m 0,1 km/h (0 Bft) W-SW 257 12,2 C 3,1 km/h (1 Bft) 100 %
01.07.2017 05:49 13,1 C 95 % 1004,0 hPa 0,0 l/m 0,0 km/h (0 Bft) W-SW 257 12,3 C 0,0 km/h (0 Bft) 96 %
01.07.2017 05:50 13,1 C 95 % 1004,0 hPa 0,0 l/m 0,7 km/h (0 Bft) SW 219 12,3 C 3,1 km/h (1 Bft) 100 %
01.07.2017 05:51 13,1 C 95 % 1004,1 hPa 0,0 l/m 0,3 km/h (0 Bft) W-SW 250 12,3 C 3,1 km/h (1 Bft) 96 %
01.07.2017 05:52 13,1 C 95 % 1004,1 hPa 0,0 l/m 0,4 km/h (0 Bft) SW 227 12,3 C 3,1 km/h (1 Bft) 96 %
01.07.2017 05:53 13,1 C 94 % 1004,1 hPa 0,0 l/m 0,4 km/h (0 Bft) W-SW 254 12,2 C 3,1 km/h (1 Bft) 100 %
01.07.2017 05:54 13,1 C 95 % 1004,1 hPa 0,0 l/m 2,2 km/h (1 Bft) SW 220 12,3 C 3,1 km/h (1 Bft) 96 %
01.07.2017 05:55 13,1 C 94 % 1004,1 hPa 0,0 l/m 2,5 km/h (1 Bft) SW 221 12,2 C 9,4 km/h (2 Bft) 100 %
01.07.2017 05:56 13,1 C 94 % 1004,1 hPa 0,0 l/m 0,8 km/h (0 Bft) N-NW 340 12,2 C 6,3 km/h (2 Bft) 96 %
01.07.2017 05:57 13,1 C 94 % 1004,1 hPa 0,0 l/m 0,1 km/h (0 Bft) W-SW 241 12,2 C 3,1 km/h (1 Bft) 100 %
01.07.2017 05:58 13,1 C 94 % 1004,1 hPa 0,0 l/m 2,8 km/h (1 Bft) W 270 12,2 C 6,3 km/h (2 Bft) 100 %
01.07.2017 05:59 13,1 C 94 % 1004,1 hPa 0,0 l/m 1,8 km/h (1 Bft) SW 232 12,2 C 6,3 km/h (2 Bft) 100 %
01.07.2017 06:00 13,1 C 94 % 1004,1 hPa 0,0 l/m 0,5 km/h (0 Bft) SW 232 12,2 C 3,1 km/h (1 Bft) 100 %
01.07.2017 06:01 13,1 C 94 % 1004,1 hPa 0,0 l/m 0,1 km/h (0 Bft) SW 232 12,2 C 3,1 km/h (1 Bft) 100 %
01.07.2017 06:02 13,1 C 95 % 1004,1 hPa 0,0 l/m 3,5 km/h (1 Bft) S-SW 210 12,3 C 9,4 km/h (2 Bft) 100 %
01.07.2017 06:03 13,1 C 94 % 1004,1 hPa 0,0 l/m 3,3 km/h (1 Bft) W-SW 254 12,2 C 6,3 km/h (2 Bft) 100 %
01.07.2017 06:04 13,1 C 94 % 1004,1 hPa 0,0 l/m 1,7 km/h (1 Bft) W-SW 243 12,2 C 6,3 km/h (2 Bft) 100 %
01.07.2017 06:05 13,1 C 95 % 1004,1 hPa 0,0 l/m 0,8 km/h (0 Bft) W-SW 252 12,3 C 3,1 km/h (1 Bft) 100 %
01.07.2017 06:06 13,1 C 94 % 1004,1 hPa 0,0 l/m 2,8 km/h (1 Bft) W-SW 253 12,2 C 9,4 km/h (2 Bft) 100 %
01.07.2017 06:07 13,1 C 94 % 1004,1 hPa 0,0 l/m 3,9 km/h (1 Bft) S-SW 199 12,2 C 9,4 km/h (2 Bft) 100 %
01.07.2017 06:08 13,1 C 94 % 1004,1 hPa 0,0 l/m 3,5 km/h (1 Bft) W-NW 302 12,2 C 6,3 km/h (2 Bft) 100 %
01.07.2017 06:09 13,1 C 94 % 1004,1 hPa 0,0 l/m 1,6 km/h (1 Bft) SW 218 12,2 C 6,3 km/h (2 Bft) 100 %
01.07.2017 06:10 13,1 C 94 % 1004,1 hPa 0,0 l/m 2,4 km/h (1 Bft) W-SW 248 12,2 C 6,3 km/h (2 Bft) 100 %
01.07.2017 06:11 13,1 C 95 % 1004,1 hPa 0,0 l/m 0,0 km/h (0 Bft) W-SW 248 12,3 C 0,0 km/h (0 Bft) 100 %
01.07.2017 06:12 13,1 C 95 % 1004,1 hPa 0,0 l/m 0,0 km/h (0 Bft) W-SW 248 12,3 C 0,0 km/h (0 Bft) 100 %
01.07.2017 06:13 13,2 C 94 % 1004,1 hPa 0,0 l/m 3,4 km/h (1 Bft) S-SW 203 12,3 C 9,4 km/h (2 Bft) 100 %
01.07.2017 06:14 13,1 C 94 % 1004,1 hPa 0,0 l/m 1,3 km/h (1 Bft) SW 219 12,2 C 3,1 km/h (1 Bft) 100 %
01.07.2017 06:15 13,2 C 94 % 1004,1 hPa 0,0 l/m 1,6 km/h (1 Bft) SW 236 12,3 C 6,3 km/h (2 Bft) 100 %
01.07.2017 06:16 13,1 C 94 % 1004,1 hPa 0,0 l/m 2,1 km/h (1 Bft) SW 226 12,2 C 9,4 km/h (2 Bft) 100 %
01.07.2017 06:17 13,1 C 94 % 1004,1 hPa 0,0 l/m 0,1 km/h (0 Bft) SW 233 12,2 C 3,1 km/h (1 Bft) 100 %
01.07.2017 06:18 13,1 C 94 % 1004,1 hPa 0,0 l/m 0,8 km/h (0 Bft) W 262 12,2 C 3,1 km/h (1 Bft) 100 %
01.07.2017 06:19 13,1 C 94 % 1004,1 hPa 0,0 l/m 0,0 km/h (0 Bft) W 274 12,2 C 0,0 km/h (0 Bft) 100 %
01.07.2017 06:20 13,2 C 94 % 1004,1 hPa 0,0 l/m 0,0 km/h (0 Bft) W 274 12,3 C 0,0 km/h (0 Bft) 100 %
01.07.2017 06:21 13,2 C 95 % 1004,2 hPa 0,0 l/m 0,8 km/h (0 Bft) N-NW 333 12,4 C 3,1 km/h (1 Bft) 100 %
01.07.2017 06:22 13,2 C 95 % 1004,1 hPa 0,0 l/m 0,0 km/h (0 Bft) S-SW 198 12,4 C 0,0 km/h (0 Bft) 100 %
01.07.2017 06:23 13,2 C 94 % 1004,1 hPa 0,0 l/m 0,9 km/h (0 Bft) SW 228 12,3 C 3,1 km/h (1 Bft) 100 %
01.07.2017 06:24 13,2 C 94 % 1004,1 hPa 0,0 l/m 0,1 km/h (0 Bft) W-SW 256 12,3 C 3,1 km/h (1 Bft) 100 %
01.07.2017 06:25 13,2 C 94 % 1004,1 hPa 0,0 l/m 0,8 km/h (0 Bft) W 268 12,3 C 3,1 km/h (1 Bft) 100 %
01.07.2017 06:26 13,2 C 94 % 1004,1 hPa 0,0 l/m 0,4 km/h (0 Bft) SW 229 12,3 C 3,1 km/h (1 Bft) 100 %
01.07.2017 06:27 13,2 C 94 % 1004,1 hPa 0,0 l/m 0,8 km/h (0 Bft) W-SW 251 12,3 C 3,1 km/h (1 Bft) 100 %
01.07.2017 06:28 13,2 C 94 % 1004,1 hPa 0,0 l/m 1,2 km/h (1 Bft) W-SW 245 12,3 C 6,3 km/h (2 Bft) 100 %
01.07.2017 06:29 13,2 C 94 % 1004,1 hPa 0,0 l/m 0,4 km/h (0 Bft) W-SW 244 12,3 C 3,1 km/h (1 Bft) 100 %
01.07.2017 06:30 13,2 C 94 % 1004,1 hPa 0,0 l/m 0,1 km/h (0 Bft) SW 231 12,3 C 3,1 km/h (1 Bft) 100 %
01.07.2017 06:31 13,2 C 95 % 1004,1 hPa 0,0 l/m 1,4 km/h (1 Bft) S-SO 149 12,4 C 6,3 km/h (2 Bft) 100 %
01.07.2017 06:32 13,2 C 95 % 1004,1 hPa 0,0 l/m 0,0 km/h (0 Bft) S-SO 158 12,4 C 0,0 km/h (0 Bft) 100 %
01.07.2017 06:33 13,2 C 94 % 1004,1 hPa 0,0 l/m 3,5 km/h (1 Bft) W-SW 242 12,3 C 9,4 km/h (2 Bft) 100 %
01.07.2017 06:34 13,2 C 95 % 1004,1 hPa 0,0 l/m 0,0 km/h (0 Bft) W-SW 242 12,4 C 0,0 km/h (0 Bft) 100 %
01.07.2017 06:35 13,2 C 95 % 1004,1 hPa 0,0 l/m 0,0 km/h (0 Bft) W-SW 239 12,4 C 0,0 km/h (0 Bft) 100 %
01.07.2017 06:36 13,2 C 94 % 1004,1 hPa 0,0 l/m 2,3 km/h (1 Bft) SW 224 12,3 C 6,3 km/h (2 Bft) 100 %
01.07.2017 06:37 13,2 C 94 % 1004,1 hPa 0,0 l/m 0,0 km/h (0 Bft) SW 224 12,3 C 0,0 km/h (0 Bft) 100 %
01.07.2017 06:38 13,2 C 95 % 1004,1 hPa 0,0 l/m 0,0 km/h (0 Bft) SW 225 12,4 C 0,0 km/h (0 Bft) 100 %
01.07.2017 06:39 13,2 C 95 % 1004,1 hPa 0,0 l/m 1,0 km/h (0 Bft) SW 219 12,4 C 9,4 km/h (2 Bft) 100 %
01.07.2017 06:40 13,2 C 94 % 1004,1 hPa 0,0 l/m 1,9 km/h (1 Bft) W-SW 255 12,3 C 6,3 km/h (2 Bft) 100 %
01.07.2017 06:41 13,3 C 94 % 1004,1 hPa 0,0 l/m 0,0 km/h (0 Bft) W-SW 255 12,4 C 0,0 km/h (0 Bft) 100 %
01.07.2017 06:42 13,3 C 95 % 1004,1 hPa 0,0 l/m 1,7 km/h (1 Bft) SW 217 12,5 C 6,3 km/h (2 Bft) 100 %
01.07.2017 06:43 13,3 C 94 % 1004,1 hPa 0,0 l/m 0,0 km/h (0 Bft) SW 217 12,4 C 0,0 km/h (0 Bft) 100 %
01.07.2017 06:44 13,3 C 94 % 1004,1 hPa 0,0 l/m 1,0 km/h (0 Bft) W-SW 255 12,4 C 6,3 km/h (2 Bft) 100 %
01.07.2017 06:45 13,3 C 94 % 1004,1 hPa 0,0 l/m 3,8 km/h (1 Bft) W-SW 243 12,4 C 12,6 km/h (3 Bft) 100 %
01.07.2017 06:46 13,3 C 94 % 1004,1 hPa 0,0 l/m 1,0 km/h (0 Bft) W-NW 293 12,4 C 6,3 km/h (2 Bft) 100 %
01.07.2017 06:47 13,3 C 94 % 1004,0 hPa 0,0 l/m 2,7 km/h (1 Bft) SW 234 12,4 C 12,6 km/h (3 Bft) 100 %
01.07.2017 06:48 13,3 C 94 % 1004,1 hPa 0,0 l/m 0,5 km/h (0 Bft) SW 215 12,4 C 3,1 km/h (1 Bft) 96 %
01.07.2017 06:49 13,4 C 94 % 1004,1 hPa 0,0 l/m 1,6 km/h (1 Bft) SW 226 12,5 C 9,4 km/h (2 Bft) 96 %
01.07.2017 06:50 13,4 C 94 % 1004,1 hPa 0,0 l/m 2,4 km/h (1 Bft) W-SW 240 12,5 C 9,4 km/h (2 Bft) 100 %
01.07.2017 06:51 13,4 C 94 % 1004,1 hPa 0,0 l/m 3,1 km/h (1 Bft) W-SW 250 12,5 C 6,3 km/h (2 Bft) 100 %
01.07.2017 06:52 13,4 C 94 % 1004,2 hPa 0,0 l/m 0,4 km/h (0 Bft) SW 219 12,5 C 3,1 km/h (1 Bft) 100 %
01.07.2017 06:53 13,4 C 94 % 1004,2 hPa 0,0 l/m 0,3 km/h (0 Bft) SW 219 12,5 C 3,1 km/h (1 Bft) 100 %
01.07.2017 06:54 13,5 C 94 % 1004,2 hPa 0,0 l/m 2,2 km/h (1 Bft) SW 214 12,6 C 9,4 km/h (2 Bft) 100 %
01.07.2017 06:55 13,5 C 94 % 1004,1 hPa 0,0 l/m 0,9 km/h (0 Bft) W-SW 247 12,6 C 3,1 km/h (1 Bft) 96 %
01.07.2017 06:56 13,6 C 94 % 1004,1 hPa 0,0 l/m 0,9 km/h (0 Bft) N-NW 345 12,7 C 3,1 km/h (1 Bft) 100 %
01.07.2017 06:57 13,6 C 94 % 1004,2 hPa 0,0 l/m 1,4 km/h (1 Bft) W-SW 247 12,7 C 6,3 km/h (2 Bft) 97 %
01.07.2017 06:58 13,6 C 94 % 1004,2 hPa 0,0 l/m 4,2 km/h (1 Bft) W-SW 254 12,7 C 12,6 km/h (3 Bft) 100 %
01.07.2017 06:59 13,6 C 94 % 1004,1 hPa 0,0 l/m 8,0 km/h (2 Bft) SW 232 12,7 C 22,0 km/h (4 Bft) 97 %
01.07.2017 07:00 13,6 C 94 % 1004,2 hPa 0,0 l/m 0,4 km/h (0 Bft) W-SW 246 12,7 C 3,1 km/h (1 Bft) 96 %
01.07.2017 07:01 13,6 C 94 % 1004,2 hPa 0,0 l/m 2,5 km/h (1 Bft) S-SW 212 12,7 C 6,3 km/h (2 Bft) 100 %
01.07.2017 07:02 13,7 C 94 % 1004,2 hPa 0,0 l/m 2,5 km/h (1 Bft) W-SW 238 12,8 C 6,3 km/h (2 Bft) 96 %
01.07.2017 07:03 13,7 C 94 % 1004,2 hPa 0,0 l/m 0,0 km/h (0 Bft) SW 236 12,8 C 0,0 km/h (0 Bft) 100 %
01.07.2017 07:04 13,7 C 94 % 1004,1 hPa 0,0 l/m 1,2 km/h (1 Bft) SW 223 12,8 C 6,3 km/h (2 Bft) 96 %
01.07.2017 07:05 13,7 C 94 % 1004,1 hPa 0,0 l/m 0,0 km/h (0 Bft) SW 223 12,8 C 0,0 km/h (0 Bft) 100 %
01.07.2017 07:06 13,8 C 94 % 1004,2 hPa 0,0 l/m 0,7 km/h (0 Bft) SW 222 12,9 C 3,1 km/h (1 Bft) 100 %
01.07.2017 07:07 13,8 C 94 % 1004,1 hPa 0,0 l/m 2,2 km/h (1 Bft) S-SW 198 12,9 C 6,3 km/h (2 Bft) 100 %
01.07.2017 07:08 13,8 C 94 % 1004,2 hPa 0,0 l/m 0,8 km/h (0 Bft) SO 146 12,9 C 3,1 km/h (1 Bft) 100 %
01.07.2017 07:09 13,8 C 94 % 1004,2 hPa 0,0 l/m 0,0 km/h (0 Bft) S-SW 193 12,9 C 0,0 km/h (0 Bft) 100 %
01.07.2017 07:10 13,8 C 94 % 1004,2 hPa 0,0 l/m 0,9 km/h (0 Bft) S-SW 210 12,9 C 6,3 km/h (2 Bft) 100 %
01.07.2017 07:11 13,8 C 94 % 1004,2 hPa 0,0 l/m 0,3 km/h (0 Bft) W 273 12,9 C 3,1 km/h (1 Bft) 100 %
01.07.2017 07:12 13,9 C 94 % 1004,1 hPa 0,0 l/m 1,6 km/h (1 Bft) SW 231 12,9 C 6,3 km/h (2 Bft) 100 %
01.07.2017 07:13 13,9 C 94 % 1004,1 hPa 0,0 l/m 2,4 km/h (1 Bft) SW 224 12,9 C 6,3 km/h (2 Bft) 100 %
01.07.2017 07:14 13,9 C 94 % 1004,2 hPa 0,0 l/m 3,4 km/h (1 Bft) W-SW 255 12,9 C 12,6 km/h (3 Bft) 100 %
01.07.2017 07:15 13,9 C 93 % 1004,2 hPa 0,0 l/m 4,7 km/h (1 Bft) N-NW 332 12,8 C 9,4 km/h (2 Bft) 100 %
01.07.2017 07:16 13,9 C 94 % 1004,2 hPa 0,0 l/m 2,2 km/h (1 Bft) S-SW 200 12,9 C 6,3 km/h (2 Bft) 100 %
01.07.2017 07:17 13,9 C 94 % 1004,2 hPa 0,0 l/m 1,5 km/h (1 Bft) W-SW 251 12,9 C 6,3 km/h (2 Bft) 99 %
01.07.2017 07:18 13,9 C 93 % 1004,2 hPa 0,0 l/m 1,6 km/h (1 Bft) W-SW 256 12,8 C 6,3 km/h (2 Bft) 100 %
01.07.2017 07:19 13,9 C 94 % 1004,2 hPa 0,0 l/m 3,7 km/h (1 Bft) W-NW 300 12,9 C 9,4 km/h (2 Bft) 100 %
01.07.2017 07:20 13,9 C 93 % 1004,2 hPa 0,0 l/m 2,5 km/h (1 Bft) SW 221 12,8 C 9,4 km/h (2 Bft) 100 %
01.07.2017 07:21 14,0 C 93 % 1004,3 hPa 0,0 l/m 2,4 km/h (1 Bft) W 268 12,9 C 9,4 km/h (2 Bft) 100 %
01.07.2017 07:22 14,0 C 93 % 1004,2 hPa 0,0 l/m 2,0 km/h (1 Bft) W-SW 238 12,9 C 9,4 km/h (2 Bft) 100 %
01.07.2017 07:23 14,0 C 93 % 1004,3 hPa 0,0 l/m 2,9 km/h (1 Bft) W 264 12,9 C 9,4 km/h (2 Bft) 100 %
01.07.2017 07:24 14,0 C 93 % 1004,3 hPa 0,0 l/m 1,8 km/h (1 Bft) NW 317 12,9 C 6,3 km/h (2 Bft) 100 %
01.07.2017 07:25 14,0 C 93 % 1004,3 hPa 0,0 l/m 6,9 km/h (2 Bft) SW 233 12,9 C 12,6 km/h (3 Bft) 100 %
01.07.2017 07:26 14,0 C 93 % 1004,3 hPa 0,0 l/m 3,7 km/h (1 Bft) SW 219 12,9 C 6,3 km/h (2 Bft) 100 %
01.07.2017 07:27 14,1 C 93 % 1004,3 hPa 0,0 l/m 2,5 km/h (1 Bft) W-NW 293 13,0 C 6,3 km/h (2 Bft) 100 %
01.07.2017 07:28 14,1 C 93 % 1004,3 hPa 0,0 l/m 0,3 km/h (0 Bft) SW 227 13,0 C 3,1 km/h (1 Bft) 100 %
01.07.2017 07:29 14,1 C 94 % 1004,3 hPa 0,0 l/m 4,3 km/h (1 Bft) SW 233 13,1 C 6,3 km/h (2 Bft) 100 %
01.07.2017 07:30 14,1 C 93 % 1004,4 hPa 0,0 l/m 2,7 km/h (1 Bft) S-SO 148 13,0 C 12,6 km/h (3 Bft) 100 %
01.07.2017 07:31 14,1 C 93 % 1004,3 hPa 0,0 l/m 1,2 km/h (1 Bft) S-SW 205 13,0 C 3,1 km/h (1 Bft) 97 %
01.07.2017 07:32 14,1 C 93 % 1004,4 hPa 0,0 l/m 4,1 km/h (1 Bft) SW 217 13,0 C 9,4 km/h (2 Bft) 100 %
01.07.2017 07:33 14,1 C 93 % 1004,4 hPa 0,0 l/m 5,2 km/h (1 Bft) S 191 13,0 C 12,6 km/h (3 Bft) 100 %
01.07.2017 07:34 14,1 C 93 % 1004,3 hPa 0,0 l/m 4,8 km/h (1 Bft) S-SW 213 13,0 C 15,7 km/h (3 Bft) 100 %
01.07.2017 07:35 14,1 C 93 % 1004,4 hPa 0,0 l/m 2,4 km/h (1 Bft) W-SW 239 13,0 C 9,4 km/h (2 Bft) 100 %
01.07.2017 07:36 14,1 C 93 % 1004,3 hPa 0,0 l/m 2,2 km/h (1 Bft) W-SW 257 13,0 C 6,3 km/h (2 Bft) 100 %
01.07.2017 07:37 14,1 C 93 % 1004,3 hPa 0,0 l/m 7,8 km/h (2 Bft) W 271 13,0 C 12,6 km/h (3 Bft) 100 %
01.07.2017 07:38 14,1 C 93 % 1004,3 hPa 0,0 l/m 2,5 km/h (1 Bft) NW 304 13,0 C 6,3 km/h (2 Bft) 100 %
01.07.2017 07:39 14,1 C 93 % 1004,3 hPa 0,0 l/m 3,4 km/h (1 Bft) SW 214 13,0 C 6,3 km/h (2 Bft) 100 %
01.07.2017 07:40 14,1 C 93 % 1004,3 hPa 0,0 l/m 1,6 km/h (1 Bft) NW 306 13,0 C 6,3 km/h (2 Bft) 100 %
01.07.2017 07:41 14,1 C 93 % 1004,3 hPa 0,0 l/m 2,5 km/h (1 Bft) W 262 13,0 C 6,3 km/h (2 Bft) 100 %
01.07.2017 07:42 14,1 C 94 % 1004,3 hPa 0,0 l/m 4,2 km/h (1 Bft) S-SW 203 13,1 C 15,7 km/h (3 Bft) 100 %
01.07.2017 07:43 14,1 C 93 % 1004,4 hPa 0,0 l/m 2,8 km/h (1 Bft) SW 216 13,0 C 12,6 km/h (3 Bft) 100 %
01.07.2017 07:44 14,1 C 93 % 1004,3 hPa 0,0 l/m 6,0 km/h (2 Bft) SW 223 13,0 C 12,6 km/h (3 Bft) 100 %
01.07.2017 07:45 14,1 C 93 % 1004,4 hPa 0,0 l/m 1,4 km/h (1 Bft) W 262 13,0 C 6,3 km/h (2 Bft) 100 %
01.07.2017 07:46 14,1 C 93 % 1004,4 hPa 0,0 l/m 1,9 km/h (1 Bft) W 260 13,0 C 6,3 km/h (2 Bft) 100 %
01.07.2017 07:47 14,2 C 93 % 1004,4 hPa 0,0 l/m 0,6 km/h (0 Bft) W 260 13,1 C 3,1 km/h (1 Bft) 100 %
01.07.2017 07:48 14,2 C 93 % 1004,4 hPa 0,0 l/m 1,8 km/h (1 Bft) W 263 13,1 C 6,3 km/h (2 Bft) 100 %
01.07.2017 07:50 14,2 C 93 % 1004,5 hPa 0,0 l/m 3,3 km/h (1 Bft) S-SW 198 13,1 C 12,6 km/h (3 Bft) 100 %
01.07.2017 07:51 14,2 C 93 % 1004,5 hPa 0,0 l/m 6,0 km/h (2 Bft) SW 221 13,1 C 12,6 km/h (3 Bft) 100 %
01.07.2017 07:52 14,2 C 93 % 1004,5 hPa 0,0 l/m 7,3 km/h (2 Bft) W-SW 245 13,1 C 22,0 km/h (4 Bft) 100 %
01.07.2017 07:53 14,2 C 93 % 1004,5 hPa 0,0 l/m 5,0 km/h (1 Bft) W-NW 285 13,1 C 9,4 km/h (2 Bft) 100 %
01.07.2017 07:54 14,2 C 93 % 1004,5 hPa 0,0 l/m 3,0 km/h (1 Bft) W-SW 240 13,1 C 6,3 km/h (2 Bft) 100 %
01.07.2017 07:55 14,2 C 93 % 1004,5 hPa 0,0 l/m 3,0 km/h (1 Bft) W-SW 240 13,1 C 12,6 km/h (3 Bft) 100 %
01.07.2017 07:56 14,2 C 93 % 1004,5 hPa 0,0 l/m 1,5 km/h (1 Bft) W-SW 255 13,1 C 6,3 km/h (2 Bft) 100 %
01.07.2017 07:57 14,2 C 94 % 1004,5 hPa 0,0 l/m 0,4 km/h (0 Bft) S 175 13,2 C 3,1 km/h (1 Bft) 100 %
01.07.2017 07:58 14,2 C 93 % 1004,5 hPa 0,0 l/m 7,3 km/h (2 Bft) SW 221 13,1 C 15,7 km/h (3 Bft) 100 %
01.07.2017 07:59 14,2 C 93 % 1004,5 hPa 0,0 l/m 2,5 km/h (1 Bft) S 176 13,1 C 6,3 km/h (2 Bft) 98 %
01.07.2017 08:00 14,2 C 93 % 1004,5 hPa 0,2 l/m 2,4 km/h (1 Bft) S-SW 212 13,1 C 6,3 km/h (2 Bft) 100 %
01.07.2017 08:01 14,3 C 93 % 1004,5 hPa 0,0 l/m 0,5 km/h (0 Bft) N 359 13,2 C 3,1 km/h (1 Bft) 96 %
01.07.2017 08:02 14,3 C 94 % 1004,6 hPa 0,0 l/m 2,7 km/h (1 Bft) SW 215 13,3 C 6,3 km/h (2 Bft) 100 %
01.07.2017 08:03 14,3 C 94 % 1004,6 hPa 0,0 l/m 2,2 km/h (1 Bft) SW 229 13,3 C 12,6 km/h (3 Bft) 96 %
01.07.2017 08:04 14,3 C 93 % 1004,5 hPa 0,0 l/m 6,0 km/h (2 Bft) NW 307 13,2 C 12,6 km/h (3 Bft) 100 %
01.07.2017 08:05 14,3 C 93 % 1004,5 hPa 0,0 l/m 2,9 km/h (1 Bft) W 269 13,2 C 6,3 km/h (2 Bft) 96 %
01.07.2017 08:07 14,3 C 94 % 1004,6 hPa 0,0 l/m 3,6 km/h (1 Bft) S-SW 198 13,3 C 9,4 km/h (2 Bft) 98 %
01.07.2017 08:08 14,3 C 94 % 1004,6 hPa 0,0 l/m 3,5 km/h (1 Bft) SW 220 13,3 C 6,3 km/h (2 Bft) 96 %
01.07.2017 08:09 14,3 C 94 % 1004,5 hPa 0,0 l/m 0,3 km/h (0 Bft) W-SW 246 13,3 C 3,1 km/h (1 Bft) 100 %
01.07.2017 08:10 14,3 C 94 % 1004,5 hPa 0,0 l/m 2,8 km/h (1 Bft) W 264 13,3 C 6,3 km/h (2 Bft) 96 %
01.07.2017 08:11 14,3 C 94 % 1004,5 hPa 0,0 l/m 0,3 km/h (0 Bft) W-NW 298 13,3 C 3,1 km/h (1 Bft) 100 %
01.07.2017 08:12 14,3 C 94 % 1004,6 hPa 0,0 l/m 0,8 km/h (0 Bft) SW 226 13,3 C 3,1 km/h (1 Bft) 100 %
01.07.2017 08:13 14,3 C 94 % 1004,6 hPa 0,0 l/m 2,4 km/h (1 Bft) W-NW 290 13,3 C 6,3 km/h (2 Bft) 100 %
01.07.2017 08:14 14,3 C 94 % 1004,5 hPa 0,0 l/m 0,8 km/h (0 Bft) S-SW 211 13,3 C 3,1 km/h (1 Bft) 100 %
01.07.2017 08:15 14,3 C 94 % 1004,5 hPa 0,0 l/m 2,1 km/h (1 Bft) NW 317 13,3 C 6,3 km/h (2 Bft) 100 %
01.07.2017 08:16 14,3 C 94 % 1004,5 hPa 0,2 l/m 3,8 km/h (1 Bft) SW 220 13,3 C 9,4 km/h (2 Bft) 100 %
01.07.2017 08:17 14,3 C 94 % 1004,6 hPa 0,0 l/m 2,2 km/h (1 Bft) W-SW 241 13,3 C 6,3 km/h (2 Bft) 100 %
01.07.2017 08:18 14,3 C 94 % 1004,5 hPa 0,0 l/m 0,8 km/h (0 Bft) SW 220 13,3 C 3,1 km/h (1 Bft) 100 %
01.07.2017 08:19 14,3 C 94 % 1004,5 hPa 0,0 l/m 6,6 km/h (2 Bft) SW 227 13,3 C 15,7 km/h (3 Bft) 100 %
01.07.2017 08:20 14,3 C 94 % 1004,5 hPa 0,0 l/m 3,4 km/h (1 Bft) SW 231 13,3 C 9,4 km/h (2 Bft) 100 %
01.07.2017 08:21 14,3 C 94 % 1004,5 hPa 0,0 l/m 0,5 km/h (0 Bft) SW 231 13,3 C 3,1 km/h (1 Bft) 100 %
01.07.2017 08:22 14,3 C 94 % 1004,6 hPa 0,0 l/m 3,5 km/h (1 Bft) W-SW 247 13,3 C 12,6 km/h (3 Bft) 100 %
01.07.2017 08:23 14,4 C 94 % 1004,6 hPa 0,0 l/m 2,5 km/h (1 Bft) SW 223 13,4 C 6,3 km/h (2 Bft) 100 %
01.07.2017 08:24 14,4 C 94 % 1004,5 hPa 0,0 l/m 3,3 km/h (1 Bft) SW 224 13,4 C 6,3 km/h (2 Bft) 100 %
01.07.2017 08:25 14,4 C 94 % 1004,5 hPa 0,0 l/m 4,9 km/h (1 Bft) S-SW 210 13,4 C 12,6 km/h (3 Bft) 100 %
01.07.2017 08:26 14,4 C 94 % 1004,5 hPa 0,0 l/m 1,3 km/h (1 Bft) W 280 13,4 C 9,4 km/h (2 Bft) 100 %
01.07.2017 08:27 14,4 C 94 % 1004,5 hPa 0,0 l/m 4,9 km/h (1 Bft) W-SW 250 13,4 C 9,4 km/h (2 Bft) 100 %
01.07.2017 08:28 14,4 C 94 % 1004,6 hPa 0,0 l/m 0,0 km/h (0 Bft) W-SW 250 13,4 C 0,0 km/h (0 Bft) 100 %
01.07.2017 08:29 14,5 C 94 % 1004,6 hPa 0,0 l/m 0,7 km/h (0 Bft) SW 231 13,5 C 3,1 km/h (1 Bft) 100 %
01.07.2017 08:30 14,6 C 95 % 1004,6 hPa 0,0 l/m 0,2 km/h (0 Bft) SW 234 13,8 C 3,1 km/h (1 Bft) 100 %
01.07.2017 08:31 14,6 C 95 % 1004,5 hPa 0,0 l/m 1,2 km/h (1 Bft) W 259 13,8 C 3,1 km/h (1 Bft) 100 %
01.07.2017 08:32 14,6 C 95 % 1004,6 hPa 0,0 l/m 2,4 km/h (1 Bft) SW 228 13,8 C 9,4 km/h (2 Bft) 100 %
01.07.2017 08:33 14,7 C 95 % 1004,6 hPa 0,0 l/m 4,8 km/h (1 Bft) W-SW 248 13,9 C 12,6 km/h (3 Bft) 100 %
01.07.2017 08:34 14,7 C 94 % 1004,6 hPa 0,0 l/m 1,7 km/h (1 Bft) SW 221 13,7 C 9,4 km/h (2 Bft) 100 %
01.07.2017 08:35 14,7 C 94 % 1004,6 hPa 0,0 l/m 4,2 km/h (1 Bft) S-SW 205 13,7 C 15,7 km/h (3 Bft) 100 %
01.07.2017 08:36 14,7 C 94 % 1004,6 hPa 0,0 l/m 3,0 km/h (1 Bft) SO 141 13,7 C 9,4 km/h (2 Bft) 100 %
01.07.2017 08:37 14,7 C 94 % 1004,6 hPa 0,0 l/m 7,0 km/h (2 Bft) SO 138 13,7 C 22,0 km/h (4 Bft) 100 %
01.07.2017 08:38 14,8 C 94 % 1004,5 hPa 0,0 l/m 2,9 km/h (1 Bft) W-SW 242 13,8 C 9,4 km/h (2 Bft) 100 %
01.07.2017 08:39 14,8 C 94 % 1004,5 hPa 0,0 l/m 1,0 km/h (0 Bft) W-SW 242 13,8 C 6,3 km/h (2 Bft) 100 %
01.07.2017 08:40 14,8 C 94 % 1004,5 hPa 0,0 l/m 5,6 km/h (1 Bft) W-SW 238 13,8 C 12,6 km/h (3 Bft) 100 %
01.07.2017 08:41 14,8 C 94 % 1004,5 hPa 0,0 l/m 1,2 km/h (1 Bft) W 281 13,8 C 6,3 km/h (2 Bft) 100 %
01.07.2017 08:42 14,9 C 94 % 1004,6 hPa 0,0 l/m 4,2 km/h (1 Bft) SW 223 13,9 C 9,4 km/h (2 Bft) 100 %
01.07.2017 08:43 14,9 C 93 % 1004,6 hPa 0,0 l/m 6,3 km/h (2 Bft) W-SW 240 13,8 C 12,6 km/h (3 Bft) 100 %
01.07.2017 08:44 14,9 C 94 % 1004,5 hPa 0,0 l/m 4,8 km/h (1 Bft) W 281 13,9 C 9,4 km/h (2 Bft) 100 %
01.07.2017 08:45 14,9 C 93 % 1004,6 hPa 0,0 l/m 4,4 km/h (1 Bft) W-NW 300 13,8 C 9,4 km/h (2 Bft) 100 %
01.07.2017 08:46 15,0 C 93 % 1004,6 hPa 0,0 l/m 2,8 km/h (1 Bft) W-SW 249 13,9 C 9,4 km/h (2 Bft) 100 %
01.07.2017 08:47 15,0 C 93 % 1004,5 hPa 0,0 l/m 6,1 km/h (2 Bft) S-SW 197 13,9 C 18,8 km/h (3 Bft) 100 %
01.07.2017 08:48 15,0 C 93 % 1004,6 hPa 0,0 l/m 6,3 km/h (2 Bft) SW 222 13,9 C 15,7 km/h (3 Bft) 100 %
01.07.2017 08:49 15,1 C 92 % 1004,5 hPa 0,0 l/m 8,7 km/h (2 Bft) S 169 13,8 C 18,8 km/h (3 Bft) 100 %
01.07.2017 08:50 15,1 C 93 % 1004,5 hPa 0,0 l/m 1,8 km/h (1 Bft) W 271 14,0 C 6,3 km/h (2 Bft) 100 %
01.07.2017 08:51 15,1 C 93 % 1004,5 hPa 0,0 l/m 4,1 km/h (1 Bft) S 186 14,0 C 9,4 km/h (2 Bft) 100 %
01.07.2017 08:52 15,2 C 93 % 1004,6 hPa 0,0 l/m 5,2 km/h (1 Bft) W-SW 256 14,1 C 12,6 km/h (3 Bft) 100 %
01.07.2017 08:53 15,2 C 93 % 1004,5 hPa 0,0 l/m 6,7 km/h (2 Bft) W-SW 248 14,1 C 25,1 km/h (4 Bft) 100 %
01.07.2017 08:54 15,2 C 92 % 1004,6 hPa 0,0 l/m 4,3 km/h (1 Bft) NW 319 13,9 C 12,6 km/h (3 Bft) 100 %
01.07.2017 08:55 15,3 C 92 % 1004,5 hPa 0,0 l/m 2,8 km/h (1 Bft) N 7 14,0 C 6,3 km/h (2 Bft) 100 %
01.07.2017 08:56 15,3 C 93 % 1004,5 hPa 0,0 l/m 1,6 km/h (1 Bft) S-SO 148 14,2 C 3,1 km/h (1 Bft) 100 %
01.07.2017 08:57 15,3 C 92 % 1004,5 hPa 0,0 l/m 4,8 km/h (1 Bft) W 276 14,0 C 9,4 km/h (2 Bft) 100 %
01.07.2017 08:58 15,3 C 92 % 1004,5 hPa 0,0 l/m 6,5 km/h (2 Bft) SW 229 14,0 C 18,8 km/h (3 Bft) 100 %
01.07.2017 08:59 15,3 C 91 % 1004,6 hPa 0,0 l/m 9,2 km/h (2 Bft) W-SW 255 13,8 C 15,7 km/h (3 Bft) 100 %
01.07.2017 09:00 15,3 C 91 % 1004,6 hPa 0,0 l/m 5,1 km/h (1 Bft) W-SW 248 13,8 C 15,7 km/h (3 Bft) 100 %
01.07.2017 09:02 15,4 C 92 % 1004,6 hPa 0,0 l/m 5,3 km/h (1 Bft) W-SW 252 14,1 C 18,8 km/h (3 Bft) 100 %
01.07.2017 09:03 15,4 C 91 % 1004,7 hPa 0,0 l/m 8,4 km/h (2 Bft) S-SO 148 13,9 C 18,8 km/h (3 Bft) 100 %
01.07.2017 09:04 15,4 C 91 % 1004,7 hPa 0,0 l/m 3,0 km/h (1 Bft) W-SW 255 13,9 C 9,4 km/h (2 Bft) 93 %
01.07.2017 09:05 15,4 C 92 % 1004,7 hPa 0,0 l/m 3,6 km/h (1 Bft) W 259 14,1 C 9,4 km/h (2 Bft) 100 %
01.07.2017 09:06 15,4 C 91 % 1004,7 hPa 0,0 l/m 6,1 km/h (2 Bft) W-NW 288 13,9 C 15,7 km/h (3 Bft) 96 %
01.07.2017 09:07 15,4 C 91 % 1004,7 hPa 0,0 l/m 9,1 km/h (2 Bft) W 275 13,9 C 15,7 km/h (3 Bft) 100 %
01.07.2017 09:08 15,4 C 91 % 1004,7 hPa 0,0 l/m 11,1 km/h (2 Bft) W-SW 258 13,9 C 22,0 km/h (4 Bft) 96 %
01.07.2017 09:09 15,4 C 91 % 1004,7 hPa 0,0 l/m 9,3 km/h (2 Bft) W-SW 245 13,9 C 22,0 km/h (4 Bft) 96 %
01.07.2017 09:10 15,5 C 91 % 1004,7 hPa 0,0 l/m 6,0 km/h (2 Bft) S 171 14,0 C 12,6 km/h (3 Bft) 100 %
01.07.2017 09:11 15,5 C 91 % 1004,8 hPa 0,0 l/m 4,8 km/h (1 Bft) S-SW 200 14,0 C 9,4 km/h (2 Bft) 96 %
01.07.2017 09:12 15,5 C 91 % 1004,8 hPa 0,0 l/m 7,5 km/h (2 Bft) W-NW 282 14,0 C 12,6 km/h (3 Bft) 100 %
01.07.2017 09:13 15,5 C 91 % 1004,8 hPa 0,0 l/m 2,0 km/h (1 Bft) SW 215 14,0 C 9,4 km/h (2 Bft) 100 %
01.07.2017 09:14 15,5 C 91 % 1004,8 hPa 0,0 l/m 7,0 km/h (2 Bft) S-SW 199 14,0 C 15,7 km/h (3 Bft) 100 %
01.07.2017 09:15 15,5 C 91 % 1004,7 hPa 0,0 l/m 12,7 km/h (3 Bft) W-SW 244 14,0 C 22,0 km/h (4 Bft) 100 %
01.07.2017 09:16 15,5 C 91 % 1004,8 hPa 0,0 l/m 5,9 km/h (2 Bft) NW 315 14,0 C 9,4 km/h (2 Bft) 100 %
01.07.2017 09:17 15,5 C 91 % 1004,8 hPa 0,0 l/m 4,9 km/h (1 Bft) S-SW 212 14,0 C 12,6 km/h (3 Bft) 100 %
01.07.2017 09:18 15,5 C 91 % 1004,8 hPa 0,0 l/m 5,8 km/h (2 Bft) W 275 14,0 C 12,6 km/h (3 Bft) 100 %
01.07.2017 09:19 15,5 C 91 % 1004,7 hPa 0,0 l/m 6,3 km/h (2 Bft) SW 235 14,0 C 15,7 km/h (3 Bft) 100 %
01.07.2017 09:20 15,5 C 91 % 1004,7 hPa 0,0 l/m 4,2 km/h (1 Bft) W-SW 246 14,0 C 9,4 km/h (2 Bft) 100 %
01.07.2017 09:21 15,6 C 91 % 1004,7 hPa 0,0 l/m 2,1 km/h (1 Bft) W 266 14,1 C 3,1 km/h (1 Bft) 100 %
01.07.2017 09:22 15,6 C 91 % 1004,7 hPa 0,0 l/m 1,8 km/h (1 Bft) NW 309 14,1 C 6,3 km/h (2 Bft) 100 %
01.07.2017 09:23 15,6 C 91 % 1004,7 hPa 0,0 l/m 5,1 km/h (1 Bft) SW 226 14,1 C 9,4 km/h (2 Bft) 100 %
01.07.2017 09:24 15,6 C 92 % 1004,7 hPa 0,0 l/m 5,4 km/h (1 Bft) NW 313 14,3 C 12,6 km/h (3 Bft) 100 %
01.07.2017 09:25 15,6 C 91 % 1004,7 hPa 0,0 l/m 9,6 km/h (2 Bft) NW 311 14,1 C 18,8 km/h (3 Bft) 100 %
01.07.2017 09:26 15,6 C 91 % 1004,8 hPa 0,0 l/m 1,9 km/h (1 Bft) S-SW 211 14,1 C 6,3 km/h (2 Bft) 100 %
01.07.2017 09:41 15,6 C 91 % 1004,7 hPa 0,0 l/m 2,1 km/h (1 Bft) SW 234 14,1 C 6,3 km/h (2 Bft) 100 %
01.07.2017 09:42 15,7 C 91 % 1004,8 hPa 0,0 l/m 3,8 km/h (1 Bft) W 269 14,2 C 9,4 km/h (2 Bft) 100 %
01.07.2017 09:43 15,7 C 91 % 1004,7 hPa 0,0 l/m 1,7 km/h (1 Bft) N 349 14,2 C 6,3 km/h (2 Bft) 100 %
01.07.2017 09:44 15,7 C 91 % 1004,7 hPa 0,0 l/m 0,4 km/h (0 Bft) N 351 14,2 C 3,1 km/h (1 Bft) 100 %
01.07.2017 09:45 15,7 C 91 % 1004,7 hPa 0,0 l/m 1,7 km/h (1 Bft) SW 219 14,2 C 3,1 km/h (1 Bft) 100 %
01.07.2017 09:46 15,7 C 91 % 1004,7 hPa 0,0 l/m 7,5 km/h (2 Bft) NO 45 14,2 C 12,6 km/h (3 Bft) 100 %
01.07.2017 09:47 15,7 C 91 % 1004,7 hPa 0,0 l/m 5,2 km/h (1 Bft) W-NW 292 14,2 C 15,7 km/h (3 Bft) 100 %
01.07.2017 09:48 15,7 C 91 % 1004,8 hPa 0,0 l/m 8,5 km/h (2 Bft) W-SW 257 14,2 C 18,8 km/h (3 Bft) 100 %
01.07.2017 09:49 15,7 C 90 % 1004,8 hPa 0,0 l/m 6,4 km/h (2 Bft) S 179 14,1 C 12,6 km/h (3 Bft) 100 %
01.07.2017 09:50 15,7 C 90 % 1004,8 hPa 0,0 l/m 5,8 km/h (2 Bft) W-SW 243 14,1 C 9,4 km/h (2 Bft) 100 %
01.07.2017 09:51 15,7 C 91 % 1004,7 hPa 0,0 l/m 10,0 km/h (2 Bft) SW 226 14,2 C 25,1 km/h (4 Bft) 100 %
01.07.2017 09:52 15,7 C 90 % 1004,8 hPa 0,0 l/m 6,3 km/h (2 Bft) NW 310 14,1 C 18,8 km/h (3 Bft) 100 %
01.07.2017 09:53 15,7 C 91 % 1004,8 hPa 0,0 l/m 5,4 km/h (1 Bft) NW 311 14,2 C 9,4 km/h (2 Bft) 100 %
01.07.2017 09:54 15,7 C 91 % 1004,8 hPa 0,0 l/m 5,3 km/h (1 Bft) W-NW 288 14,2 C 12,6 km/h (3 Bft) 100 %
01.07.2017 09:55 15,7 C 91 % 1004,8 hPa 0,0 l/m 3,9 km/h (1 Bft) SW 236 14,2 C 6,3 km/h (2 Bft) 100 %
01.07.2017 09:56 15,8 C 91 % 1004,8 hPa 0,0 l/m 6,9 km/h (2 Bft) W-NW 283 14,3 C 12,6 km/h (3 Bft) 100 %
01.07.2017 09:57 15,8 C 91 % 1004,8 hPa 0,0 l/m 7,1 km/h (2 Bft) W-SW 241 14,3 C 18,8 km/h (3 Bft) 100 %
01.07.2017 09:58 15,8 C 91 % 1004,8 hPa 0,0 l/m 1,7 km/h (1 Bft) SW 221 14,3 C 6,3 km/h (2 Bft) 96 %
01.07.2017 09:59 15,8 C 91 % 1004,8 hPa 0,0 l/m 9,1 km/h (2 Bft) S-SW 198 14,3 C 18,8 km/h (3 Bft) 100 %
01.07.2017 10:00 15,8 C 91 % 1004,8 hPa 0,0 l/m 6,4 km/h (2 Bft) W-NW 293 14,3 C 15,7 km/h (3 Bft) 100 %
01.07.2017 10:01 15,8 C 90 % 1004,8 hPa 0,0 l/m 7,6 km/h (2 Bft) SW 217 14,2 C 18,8 km/h (3 Bft) 96 %
01.07.2017 10:02 15,8 C 91 % 1004,8 hPa 0,0 l/m 3,4 km/h (1 Bft) W 263 14,3 C 12,6 km/h (3 Bft) 100 %
01.07.2017 10:03 15,8 C 90 % 1004,9 hPa 0,0 l/m 4,6 km/h (1 Bft) W 259 14,2 C 9,4 km/h (2 Bft) 100 %
01.07.2017 10:04 15,8 C 90 % 1004,9 hPa 0,0 l/m 7,2 km/h (2 Bft) NW 305 14,2 C 18,8 km/h (3 Bft) 96 %
01.07.2017 10:05 15,8 C 90 % 1004,9 hPa 0,0 l/m 7,0 km/h (2 Bft) W-NW 300 14,2 C 15,7 km/h (3 Bft) 96 %
01.07.2017 10:06 15,9 C 90 % 1004,9 hPa 0,0 l/m 2,5 km/h (1 Bft) W-SW 251 14,3 C 9,4 km/h (2 Bft) 100 %
01.07.2017 10:07 15,9 C 90 % 1004,9 hPa 0,0 l/m 1,2 km/h (1 Bft) NW 305 14,3 C 6,3 km/h (2 Bft) 97 %
01.07.2017 10:08 15,9 C 91 % 1004,9 hPa 0,0 l/m 1,4 km/h (1 Bft) W-NW 303 14,4 C 3,1 km/h (1 Bft) 100 %
01.07.2017 10:09 15,9 C 90 % 1004,9 hPa 0,0 l/m 3,6 km/h (1 Bft) SW 227 14,3 C 12,6 km/h (3 Bft) 93 %
01.07.2017 10:10 15,9 C 90 % 1004,9 hPa 0,0 l/m 7,2 km/h (2 Bft) W-SW 240 14,3 C 12,6 km/h (3 Bft) 100 %
01.07.2017 10:11 15,9 C 90 % 1004,9 hPa 0,0 l/m 1,8 km/h (1 Bft) W-NW 301 14,3 C 3,1 km/h (1 Bft) 96 %
01.07.2017 10:12 15,9 C 90 % 1004,9 hPa 0,0 l/m 4,3 km/h (1 Bft) SW 235 14,3 C 9,4 km/h (2 Bft) 100 %
01.07.2017 10:13 15,9 C 90 % 1004,9 hPa 0,0 l/m 4,7 km/h (1 Bft) SW 233 14,3 C 12,6 km/h (3 Bft) 100 %
01.07.2017 10:14 15,9 C 90 % 1004,9 hPa 0,0 l/m 8,0 km/h (2 Bft) W-SW 251 14,3 C 18,8 km/h (3 Bft) 96 %
01.07.2017 10:15 15,9 C 89 % 1004,9 hPa 0,0 l/m 4,3 km/h (1 Bft) SW 220 14,1 C 12,6 km/h (3 Bft) 100 %
01.07.2017 10:16 15,9 C 90 % 1004,9 hPa 0,0 l/m 0,0 km/h (0 Bft) W-SW 256 14,3 C 0,0 km/h (0 Bft) 100 %
01.07.2017 10:17 16,0 C 90 % 1004,9 hPa 0,0 l/m 1,9 km/h (1 Bft) W-SW 254 14,4 C 6,3 km/h (2 Bft) 100 %
01.07.2017 10:18 16,0 C 90 % 1004,9 hPa 0,0 l/m 3,9 km/h (1 Bft) W-NW 301 14,4 C 6,3 km/h (2 Bft) 100 %
01.07.2017 10:19 16,0 C 90 % 1004,9 hPa 0,0 l/m 4,6 km/h (1 Bft) W-SW 246 14,4 C 6,3 km/h (2 Bft) 100 %
01.07.2017 10:20 16,0 C 90 % 1004,9 hPa 0,0 l/m 2,0 km/h (1 Bft) W-NW 295 14,4 C 3,1 km/h (1 Bft) 100 %
01.07.2017 10:21 16,0 C 90 % 1004,9 hPa 0,0 l/m 3,1 km/h (1 Bft) SW 227 14,4 C 9,4 km/h (2 Bft) 100 %
01.07.2017 10:22 16,0 C 90 % 1005,1 hPa 0,0 l/m 5,3 km/h (1 Bft) S-SW 205 14,4 C 9,4 km/h (2 Bft) 100 %
01.07.2017 10:23 16,0 C 90 % 1005,1 hPa 0,0 l/m 1,0 km/h (0 Bft) W-NW 302 14,4 C 3,1 km/h (1 Bft) 100 %
01.07.2017 10:24 16,0 C 90 % 1005,0 hPa 0,0 l/m 0,1 km/h (0 Bft) W-SW 240 14,4 C 3,1 km/h (1 Bft) 100 %
01.07.2017 10:25 16,0 C 90 % 1005,0 hPa 0,0 l/m 2,5 km/h (1 Bft) SW 226 14,4 C 9,4 km/h (2 Bft) 100 %
01.07.2017 10:26 16,0 C 90 % 1005,0 hPa 0,0 l/m 4,7 km/h (1 Bft) NW 309 14,4 C 9,4 km/h (2 Bft) 100 %
01.07.2017 10:27 16,0 C 90 % 1005,0 hPa 0,0 l/m 3,0 km/h (1 Bft) W-SW 245 14,4 C 6,3 km/h (2 Bft) 100 %
01.07.2017 10:28 16,0 C 90 % 1005,0 hPa 0,0 l/m 0,0 km/h (0 Bft) W-SW 245 14,4 C 0,0 km/h (0 Bft) 100 %
01.07.2017 10:29 16,0 C 91 % 1005,0 hPa 0,0 l/m 1,8 km/h (1 Bft) W-SW 247 14,5 C 6,3 km/h (2 Bft) 100 %
01.07.2017 10:30 16,0 C 90 % 1005,0 hPa 0,0 l/m 3,0 km/h (1 Bft) SW 226 14,4 C 6,3 km/h (2 Bft) 100 %
01.07.2017 10:31 16,0 C 90 % 1004,9 hPa 0,0 l/m 2,6 km/h (1 Bft) N-NW 338 14,4 C 9,4 km/h (2 Bft) 100 %
01.07.2017 10:32 16,1 C 90 % 1004,9 hPa 0,0 l/m 3,5 km/h (1 Bft) W 267 14,5 C 9,4 km/h (2 Bft) 100 %
01.07.2017 10:33 16,1 C 90 % 1004,9 hPa 0,0 l/m 4,6 km/h (1 Bft) W-SW 257 14,5 C 12,6 km/h (3 Bft) 100 %
01.07.2017 10:34 16,1 C 90 % 1005,0 hPa 0,0 l/m 0,9 km/h (0 Bft) W 269 14,5 C 3,1 km/h (1 Bft) 100 %
01.07.2017 10:35 16,1 C 90 % 1004,9 hPa 0,0 l/m 0,3 km/h (0 Bft) W 276 14,5 C 3,1 km/h (1 Bft) 100 %
01.07.2017 10:36 16,1 C 91 % 1004,9 hPa 0,0 l/m 1,0 km/h (0 Bft) S-SW 202 14,6 C 6,3 km/h (2 Bft) 100 %
01.07.2017 10:37 16,2 C 90 % 1005,0 hPa 0,0 l/m 5,0 km/h (1 Bft) N-NW 341 14,6 C 12,6 km/h (3 Bft) 100 %
01.07.2017 10:38 16,2 C 90 % 1005,0 hPa 0,0 l/m 6,1 km/h (2 Bft) W-SW 250 14,6 C 9,4 km/h (2 Bft) 100 %
01.07.2017 10:39 16,2 C 90 % 1004,9 hPa 0,0 l/m 0,3 km/h (0 Bft) SW 233 14,6 C 3,1 km/h (1 Bft) 100 %
01.07.2017 10:40 16,2 C 89 % 1004,9 hPa 0,0 l/m 4,6 km/h (1 Bft) SW 231 14,4 C 9,4 km/h (2 Bft) 100 %
01.07.2017 10:41 16,2 C 89 % 1005,0 hPa 0,0 l/m 4,4 km/h (1 Bft) SW 224 14,4 C 12,6 km/h (3 Bft) 100 %
01.07.2017 10:42 16,2 C 88 % 1005,0 hPa 0,0 l/m 2,6 km/h (1 Bft) W-SW 257 14,2 C 9,4 km/h (2 Bft) 100 %
01.07.2017 10:43 16,2 C 89 % 1005,0 hPa 0,0 l/m 4,6 km/h (1 Bft) S-SW 212 14,4 C 12,6 km/h (3 Bft) 100 %
01.07.2017 10:44 16,2 C 88 % 1005,0 hPa 0,0 l/m 7,7 km/h (2 Bft) SW 234 14,2 C 15,7 km/h (3 Bft) 100 %
01.07.2017 10:45 16,2 C 87 % 1005,0 hPa 0,0 l/m 3,6 km/h (1 Bft) W-SW 257 14,0 C 6,3 km/h (2 Bft) 100 %
01.07.2017 10:46 16,2 C 86 % 1005,0 hPa 0,0 l/m 5,8 km/h (2 Bft) SW 230 13,9 C 12,6 km/h (3 Bft) 100 %
01.07.2017 10:47 16,2 C 86 % 1005,0 hPa 0,0 l/m 5,7 km/h (1 Bft) W 266 13,9 C 12,6 km/h (3 Bft) 100 %
01.07.2017 10:48 16,2 C 87 % 1005,0 hPa 0,0 l/m 1,6 km/h (1 Bft) W-SW 251 14,0 C 3,1 km/h (1 Bft) 100 %
01.07.2017 10:49 16,2 C 86 % 1005,0 hPa 0,0 l/m 5,5 km/h (1 Bft) SW 228 13,9 C 12,6 km/h (3 Bft) 100 %
01.07.2017 10:50 16,3 C 86 % 1005,0 hPa 0,0 l/m 6,0 km/h (2 Bft) N 1 14,0 C 15,7 km/h (3 Bft) 100 %
01.07.2017 10:51 16,3 C 86 % 1004,9 hPa 0,0 l/m 3,3 km/h (1 Bft) S-SW 195 14,0 C 6,3 km/h (2 Bft) 100 %
01.07.2017 10:52 16,3 C 85 % 1005,0 hPa 0,0 l/m 4,6 km/h (1 Bft) W-NW 299 13,8 C 9,4 km/h (2 Bft) 100 %
01.07.2017 10:53 16,3 C 86 % 1005,0 hPa 0,0 l/m 4,2 km/h (1 Bft) SW 227 14,0 C 6,3 km/h (2 Bft) 100 %
01.07.2017 10:54 16,3 C 86 % 1004,9 hPa 0,0 l/m 6,9 km/h (2 Bft) W 274 14,0 C 12,6 km/h (3 Bft) 100 %
01.07.2017 10:55 16,3 C 84 % 1005,0 hPa 0,0 l/m 10,6 km/h (2 Bft) W-SW 243 13,6 C 22,0 km/h (4 Bft) 100 %
01.07.2017 10:56 16,3 C 85 % 1005,0 hPa 0,0 l/m 3,3 km/h (1 Bft) W 259 13,8 C 6,3 km/h (2 Bft) 100 %
01.07.2017 10:57 16,4 C 85 % 1005,0 hPa 0,0 l/m 4,8 km/h (1 Bft) W 267 13,9 C 9,4 km/h (2 Bft) 100 %
01.07.2017 10:58 16,4 C 85 % 1005,0 hPa 0,0 l/m 7,4 km/h (2 Bft) O-NO 65 13,9 C 18,8 km/h (3 Bft) 100 %
01.07.2017 10:59 16,4 C 84 % 1004,9 hPa 0,0 l/m 4,0 km/h (1 Bft) W-SW 238 13,7 C 15,7 km/h (3 Bft) 100 %
01.07.2017 11:00 16,4 C 84 % 1005,0 hPa 0,0 l/m 5,2 km/h (1 Bft) W 270 13,7 C 9,4 km/h (2 Bft) 100 %
01.07.2017 11:01 16,4 C 84 % 1005,0 hPa 0,0 l/m 6,4 km/h (2 Bft) SW 224 13,7 C 12,6 km/h (3 Bft) 96 %
01.07.2017 11:02 16,4 C 83 % 1005,0 hPa 0,0 l/m 3,6 km/h (1 Bft) S-SW 207 13,5 C 9,4 km/h (2 Bft) 97 %
01.07.2017 11:03 16,4 C 84 % 1005,0 hPa 0,0 l/m 2,4 km/h (1 Bft) SW 233 13,7 C 6,3 km/h (2 Bft) 100 %
01.07.2017 11:04 16,5 C 84 % 1005,0 hPa 0,0 l/m 1,8 km/h (1 Bft) SW 231 13,8 C 3,1 km/h (1 Bft) 91 %
01.07.2017 11:05 16,5 C 84 % 1005,0 hPa 0,0 l/m 9,0 km/h (2 Bft) SW 226 13,8 C 22,0 km/h (4 Bft) 100 %
01.07.2017 11:06 16,5 C 83 % 1005,0 hPa 0,0 l/m 3,6 km/h (1 Bft) W-NW 290 13,6 C 6,3 km/h (2 Bft) 93 %
01.07.2017 11:07 16,6 C 84 % 1004,9 hPa 0,0 l/m 6,2 km/h (2 Bft) NW 321 13,9 C 9,4 km/h (2 Bft) 100 %
01.07.2017 11:08 16,6 C 83 % 1004,9 hPa 0,0 l/m 5,2 km/h (1 Bft) S-SO 153 13,7 C 12,6 km/h (3 Bft) 96 %
01.07.2017 11:09 16,6 C 83 % 1004,9 hPa 0,0 l/m 9,4 km/h (2 Bft) W-NW 290 13,7 C 15,7 km/h (3 Bft) 100 %
01.07.2017 11:10 16,6 C 82 % 1004,9 hPa 0,0 l/m 8,5 km/h (2 Bft) W 268 13,5 C 12,6 km/h (3 Bft) 96 %
01.07.2017 11:11 16,6 C 83 % 1005,0 hPa 0,0 l/m 5,5 km/h (1 Bft) W-SW 245 13,7 C 9,4 km/h (2 Bft) 100 %
01.07.2017 11:12 16,6 C 83 % 1004,9 hPa 0,0 l/m 6,0 km/h (2 Bft) NW 314 13,7 C 15,7 km/h (3 Bft) 100 %
01.07.2017 11:13 16,6 C 82 % 1005,0 hPa 0,0 l/m 5,6 km/h (1 Bft) SW 217 13,5 C 15,7 km/h (3 Bft) 100 %
01.07.2017 11:14 16,6 C 82 % 1005,0 hPa 0,0 l/m 9,0 km/h (2 Bft) SW 230 13,5 C 18,8 km/h (3 Bft) 100 %
01.07.2017 11:15 16,6 C 81 % 1005,0 hPa 0,0 l/m 13,5 km/h (3 Bft) SW 229 13,3 C 28,2 km/h (4 Bft) 100 %
01.07.2017 11:16 16,6 C 81 % 1005,0 hPa 0,0 l/m 8,7 km/h (2 Bft) SW 215 13,3 C 12,6 km/h (3 Bft) 100 %
01.07.2017 11:17 16,6 C 82 % 1005,0 hPa 0,0 l/m 6,1 km/h (2 Bft) SW 217 13,5 C 9,4 km/h (2 Bft) 100 %
01.07.2017 11:18 16,6 C 82 % 1005,0 hPa 0,0 l/m 6,4 km/h (2 Bft) W-NW 294 13,5 C 18,8 km/h (3 Bft) 100 %
01.07.2017 11:19 16,7 C 82 % 1005,0 hPa 0,0 l/m 6,4 km/h (2 Bft) SW 232 13,6 C 15,7 km/h (3 Bft) 100 %
01.07.2017 11:20 16,7 C 82 % 1005,0 hPa 0,0 l/m 7,7 km/h (2 Bft) S-SW 212 13,6 C 15,7 km/h (3 Bft) 100 %
01.07.2017 11:21 16,7 C 82 % 1005,0 hPa 0,0 l/m 7,3 km/h (2 Bft) SW 214 13,6 C 12,6 km/h (3 Bft) 100 %
01.07.2017 11:22 16,7 C 82 % 1005,0 hPa 0,0 l/m 2,5 km/h (1 Bft) W-NW 298 13,6 C 6,3 km/h (2 Bft) 100 %
01.07.2017 11:23 16,7 C 82 % 1004,9 hPa 0,0 l/m 6,7 km/h (2 Bft) NW 313 13,6 C 12,6 km/h (3 Bft) 100 %
01.07.2017 11:24 16,8 C 82 % 1005,0 hPa 0,0 l/m 4,7 km/h (1 Bft) S-SW 207 13,7 C 22,0 km/h (4 Bft) 100 %
01.07.2017 11:25 16,8 C 81 % 1005,0 hPa 0,0 l/m 12,4 km/h (3 Bft) W-SW 247 13,5 C 28,2 km/h (4 Bft) 100 %
01.07.2017 11:26 16,8 C 81 % 1004,9 hPa 0,0 l/m 10,2 km/h (2 Bft) W-SW 246 13,5 C 18,8 km/h (3 Bft) 100 %
01.07.2017 11:27 16,8 C 81 % 1005,0 hPa 0,0 l/m 12,1 km/h (2 Bft) W-NW 297 13,5 C 25,1 km/h (4 Bft) 100 %
01.07.2017 11:28 16,8 C 81 % 1005,0 hPa 0,0 l/m 4,5 km/h (1 Bft) SW 226 13,5 C 9,4 km/h (2 Bft) 100 %
01.07.2017 11:29 16,8 C 81 % 1005,0 hPa 0,0 l/m 5,7 km/h (1 Bft) NW 319 13,5 C 15,7 km/h (3 Bft) 100 %
01.07.2017 11:30 16,8 C 81 % 1005,0 hPa 0,0 l/m 5,2 km/h (1 Bft) W-SW 254 13,5 C 12,6 km/h (3 Bft) 100 %
01.07.2017 11:31 16,8 C 82 % 1005,0 hPa 0,0 l/m 8,3 km/h (2 Bft) W-NW 290 13,7 C 12,6 km/h (3 Bft) 100 %
01.07.2017 11:32 16,9 C 82 % 1005,0 hPa 0,0 l/m 6,0 km/h (2 Bft) SW 229 13,8 C 12,6 km/h (3 Bft) 100 %
01.07.2017 11:33 16,9 C 82 % 1005,0 hPa 0,0 l/m 4,6 km/h (1 Bft) SW 236 13,8 C 12,6 km/h (3 Bft) 100 %
01.07.2017 11:34 16,9 C 82 % 1005,1 hPa 0,0 l/m 8,0 km/h (2 Bft) NW 311 13,8 C 12,6 km/h (3 Bft) 100 %
01.07.2017 11:35 16,9 C 80 % 1005,1 hPa 0,0 l/m 11,1 km/h (2 Bft) S-SW 201 13,4 C 28,2 km/h (4 Bft) 100 %
01.07.2017 11:36 16,9 C 81 % 1005,0 hPa 0,0 l/m 4,7 km/h (1 Bft) W-NW 285 13,6 C 9,4 km/h (2 Bft) 100 %
01.07.2017 11:37 16,9 C 81 % 1005,0 hPa 0,0 l/m 8,4 km/h (2 Bft) W-SW 252 13,6 C 18,8 km/h (3 Bft) 100 %
01.07.2017 11:38 17,0 C 80 % 1005,1 hPa 0,0 l/m 9,5 km/h (2 Bft) S-SW 207 13,5 C 18,8 km/h (3 Bft) 100 %
01.07.2017 11:39 17,0 C 79 % 1005,0 hPa 0,0 l/m 6,1 km/h (2 Bft) SW 221 13,3 C 12,6 km/h (3 Bft) 100 %
01.07.2017 11:40 17,0 C 78 % 1005,1 hPa 0,0 l/m 10,8 km/h (2 Bft) W-NW 290 13,1 C 18,8 km/h (3 Bft) 100 %
01.07.2017 11:41 17,0 C 79 % 1005,0 hPa 0,0 l/m 9,1 km/h (2 Bft) NO 56 13,3 C 15,7 km/h (3 Bft) 100 %
01.07.2017 11:42 17,0 C 79 % 1005,1 hPa 0,0 l/m 2,7 km/h (1 Bft) W 263 13,3 C 6,3 km/h (2 Bft) 100 %
01.07.2017 11:43 17,0 C 79 % 1005,1 hPa 0,0 l/m 8,8 km/h (2 Bft) N-NW 334 13,3 C 22,0 km/h (4 Bft) 100 %
01.07.2017 11:44 17,0 C 78 % 1005,2 hPa 0,0 l/m 11,4 km/h (2 Bft) O-SO 120 13,1 C 18,8 km/h (3 Bft) 100 %
01.07.2017 11:45 17,0 C 78 % 1005,2 hPa 0,0 l/m 10,9 km/h (2 Bft) SW 225 13,1 C 18,8 km/h (3 Bft) 100 %
01.07.2017 11:46 17,0 C 78 % 1005,1 hPa 0,0 l/m 3,8 km/h (1 Bft) W-SW 257 13,1 C 6,3 km/h (2 Bft) 100 %
01.07.2017 11:47 17,1 C 78 % 1005,1 hPa 0,0 l/m 9,7 km/h (2 Bft) S-SW 206 13,2 C 22,0 km/h (4 Bft) 100 %
01.07.2017 11:48 17,1 C 78 % 1005,1 hPa 0,0 l/m 9,5 km/h (2 Bft) SW 233 13,2 C 28,2 km/h (4 Bft) 100 %
01.07.2017 11:49 17,1 C 78 % 1005,2 hPa 0,0 l/m 9,3 km/h (2 Bft) W 271 13,2 C 18,8 km/h (3 Bft) 100 %
01.07.2017 11:50 17,1 C 78 % 1005,1 hPa 0,0 l/m 6,6 km/h (2 Bft) SW 229 13,2 C 12,6 km/h (3 Bft) 100 %
01.07.2017 11:51 17,0 C 78 % 1005,1 hPa 0,0 l/m 7,2 km/h (2 Bft) S-SO 159 13,1 C 12,6 km/h (3 Bft) 100 %
01.07.2017 11:52 17,0 C 78 % 1005,1 hPa 0,0 l/m 3,8 km/h (1 Bft) W 262 13,1 C 9,4 km/h (2 Bft) 100 %
01.07.2017 11:53 17,0 C 78 % 1005,1 hPa 0,0 l/m 10,6 km/h (2 Bft) W 272 13,1 C 18,8 km/h (3 Bft) 100 %
01.07.2017 11:54 17,0 C 77 % 1005,2 hPa 0,0 l/m 7,8 km/h (2 Bft) W-NW 286 12,9 C 18,8 km/h (3 Bft) 100 %
01.07.2017 11:55 17,0 C 79 % 1005,2 hPa 0,0 l/m 5,8 km/h (2 Bft) SW 228 13,3 C 9,4 km/h (2 Bft) 96 %
01.07.2017 11:56 17,0 C 79 % 1005,2 hPa 0,0 l/m 8,3 km/h (2 Bft) W-SW 247 13,3 C 18,8 km/h (3 Bft) 92 %
01.07.2017 11:57 16,9 C 78 % 1005,2 hPa 0,0 l/m 6,5 km/h (2 Bft) W 271 13,0 C 15,7 km/h (3 Bft) 100 %
01.07.2017 11:58 16,9 C 78 % 1005,3 hPa 0,0 l/m 11,5 km/h (2 Bft) W 266 13,0 C 22,0 km/h (4 Bft) 92 %
01.07.2017 11:59 16,9 C 77 % 1005,2 hPa 0,0 l/m 7,3 km/h (2 Bft) SW 220 12,8 C 9,4 km/h (2 Bft) 100 %
01.07.2017 12:00 16,9 C 78 % 1005,2 hPa 0,0 l/m 7,9 km/h (2 Bft) W 279 13,0 C 15,7 km/h (3 Bft) 96 %
01.07.2017 12:01 16,9 C 78 % 1005,2 hPa 0,0 l/m 4,1 km/h (1 Bft) N-NW 328 13,0 C 12,6 km/h (3 Bft) 100 %
01.07.2017 12:02 16,9 C 79 % 1005,2 hPa 0,0 l/m 5,8 km/h (2 Bft) W 275 13,2 C 18,8 km/h (3 Bft) 96 %
01.07.2017 12:03 16,9 C 79 % 1005,2 hPa 0,0 l/m 9,6 km/h (2 Bft) SW 233 13,2 C 18,8 km/h (3 Bft) 96 %
01.07.2017 12:04 16,9 C 78 % 1005,2 hPa 0,0 l/m 10,3 km/h (2 Bft) S-SW 195 13,0 C 25,1 km/h (4 Bft) 99 %
01.07.2017 12:05 16,9 C 78 % 1005,2 hPa 0,0 l/m 12,1 km/h (2 Bft) W 264 13,0 C 22,0 km/h (4 Bft) 98 %
01.07.2017 12:06 16,9 C 78 % 1005,3 hPa 0,0 l/m 9,0 km/h (2 Bft) S-SW 205 13,0 C 18,8 km/h (3 Bft) 100 %
01.07.2017 12:07 17,0 C 78 % 1005,2 hPa 0,0 l/m 8,1 km/h (2 Bft) W 266 13,1 C 22,0 km/h (4 Bft) 100 %
01.07.2017 12:08 17,0 C 79 % 1005,3 hPa 0,0 l/m 2,5 km/h (1 Bft) S 184 13,3 C 12,6 km/h (3 Bft) 100 %
01.07.2017 12:09 17,0 C 79 % 1005,2 hPa 0,0 l/m 11,0 km/h (2 Bft) W 279 13,3 C 28,2 km/h (4 Bft) 100 %
01.07.2017 12:10 17,0 C 79 % 1005,2 hPa 0,0 l/m 7,6 km/h (2 Bft) W-SW 244 13,3 C 18,8 km/h (3 Bft) 100 %
01.07.2017 12:11 17,0 C 79 % 1005,2 hPa 0,0 l/m 7,1 km/h (2 Bft) W-SW 248 13,3 C 15,7 km/h (3 Bft) 100 %
01.07.2017 12:12 17,0 C 79 % 1005,3 hPa 0,0 l/m 6,3 km/h (2 Bft) W-NW 290 13,3 C 9,4 km/h (2 Bft) 100 %
01.07.2017 12:13 17,0 C 79 % 1005,3 hPa 0,0 l/m 8,5 km/h (2 Bft) W 276 13,3 C 15,7 km/h (3 Bft) 100 %
01.07.2017 12:14 17,1 C 79 % 1005,2 hPa 0,0 l/m 6,7 km/h (2 Bft) N 355 13,4 C 12,6 km/h (3 Bft) 100 %
01.07.2017 12:15 17,0 C 79 % 1005,3 hPa 0,0 l/m 4,7 km/h (1 Bft) S-SW 206 13,3 C 9,4 km/h (2 Bft) 100 %
01.07.2017 12:16 17,0 C 79 % 1005,3 hPa 0,0 l/m 4,9 km/h (1 Bft) SW 233 13,3 C 9,4 km/h (2 Bft) 100 %
01.07.2017 12:17 17,1 C 79 % 1005,2 hPa 0,0 l/m 2,8 km/h (1 Bft) S-SW 202 13,4 C 6,3 km/h (2 Bft) 100 %
01.07.2017 12:18 17,1 C 80 % 1005,3 hPa 0,0 l/m 7,9 km/h (2 Bft) W 269 13,6 C 15,7 km/h (3 Bft) 100 %
01.07.2017 12:19 17,0 C 78 % 1005,4 hPa 0,0 l/m 11,8 km/h (2 Bft) NW 321 13,1 C 25,1 km/h (4 Bft) 100 %
01.07.2017 12:20 17,0 C 78 % 1005,3 hPa 0,0 l/m 9,4 km/h (2 Bft) S-SW 200 13,1 C 12,6 km/h (3 Bft) 100 %
01.07.2017 12:21 17,0 C 78 % 1005,3 hPa 0,0 l/m 7,6 km/h (2 Bft) S 190 13,1 C 15,7 km/h (3 Bft) 100 %
01.07.2017 12:22 16,9 C 79 % 1005,3 hPa 0,0 l/m 8,1 km/h (2 Bft) SW 230 13,2 C 12,6 km/h (3 Bft) 100 %
01.07.2017 12:23 16,9 C 79 % 1005,4 hPa 0,0 l/m 8,8 km/h (2 Bft) W-SW 239 13,2 C 12,6 km/h (3 Bft) 100 %
01.07.2017 12:24 16,9 C 79 % 1005,4 hPa 0,0 l/m 4,9 km/h (1 Bft) W-SW 239 13,2 C 12,6 km/h (3 Bft) 100 %
01.07.2017 12:25 16,9 C 79 % 1005,4 hPa 0,0 l/m 6,4 km/h (2 Bft) SW 226 13,2 C 12,6 km/h (3 Bft) 100 %
01.07.2017 12:26 16,9 C 79 % 1005,4 hPa 0,0 l/m 3,9 km/h (1 Bft) SW 221 13,2 C 6,3 km/h (2 Bft) 100 %
01.07.2017 12:27 16,9 C 79 % 1005,4 hPa 0,0 l/m 5,6 km/h (1 Bft) SW 214 13,2 C 15,7 km/h (3 Bft) 100 %
01.07.2017 12:28 16,9 C 79 % 1005,4 hPa 0,0 l/m 3,1 km/h (1 Bft) W-SW 254 13,2 C 9,4 km/h (2 Bft) 100 %
01.07.2017 12:29 17,0 C 80 % 1005,4 hPa 0,0 l/m 8,1 km/h (2 Bft) W-SW 255 13,5 C 18,8 km/h (3 Bft) 100 %
01.07.2017 12:30 16,9 C 79 % 1005,5 hPa 0,0 l/m 6,9 km/h (2 Bft) SW 224 13,2 C 15,7 km/h (3 Bft) 100 %
01.07.2017 12:31 16,9 C 79 % 1005,5 hPa 0,0 l/m 6,3 km/h (2 Bft) W-SW 249 13,2 C 12,6 km/h (3 Bft) 100 %
01.07.2017 12:32 17,0 C 80 % 1005,5 hPa 0,0 l/m 3,8 km/h (1 Bft) W-NW 285 13,5 C 6,3 km/h (2 Bft) 100 %
01.07.2017 12:33 17,0 C 79 % 1005,5 hPa 0,0 l/m 4,2 km/h (1 Bft) NW 308 13,3 C 9,4 km/h (2 Bft) 100 %
01.07.2017 12:34 17,0 C 80 % 1005,4 hPa 0,0 l/m 7,6 km/h (2 Bft) NW 307 13,5 C 12,6 km/h (3 Bft) 100 %
01.07.2017 12:35 17,0 C 79 % 1005,5 hPa 0,0 l/m 5,7 km/h (1 Bft) W 275 13,3 C 9,4 km/h (2 Bft) 100 %
01.07.2017 12:36 17,1 C 79 % 1005,5 hPa 0,0 l/m 8,6 km/h (2 Bft) W-SW 246 13,4 C 15,7 km/h (3 Bft) 100 %
01.07.2017 12:37 17,1 C 79 % 1005,5 hPa 0,0 l/m 6,4 km/h (2 Bft) W-NW 303 13,4 C 12,6 km/h (3 Bft) 100 %
01.07.2017 12:38 17,1 C 79 % 1005,5 hPa 0,0 l/m 4,2 km/h (1 Bft) N-NW 332 13,4 C 6,3 km/h (2 Bft) 100 %
01.07.2017 12:39 17,1 C 79 % 1005,5 hPa 0,0 l/m 4,2 km/h (1 Bft) W 278 13,4 C 9,4 km/h (2 Bft) 100 %
01.07.2017 12:40 17,1 C 80 % 1005,5 hPa 0,0 l/m 1,4 km/h (1 Bft) W-NW 290 13,6 C 6,3 km/h (2 Bft) 100 %
01.07.2017 12:41 17,1 C 80 % 1005,5 hPa 0,0 l/m 11,1 km/h (2 Bft) W 277 13,6 C 18,8 km/h (3 Bft) 100 %
01.07.2017 12:42 17,1 C 79 % 1005,5 hPa 0,0 l/m 8,9 km/h (2 Bft) W 276 13,4 C 18,8 km/h (3 Bft) 100 %
01.07.2017 12:43 17,1 C 79 % 1005,5 hPa 0,0 l/m 4,7 km/h (1 Bft) W-SW 243 13,4 C 12,6 km/h (3 Bft) 100 %
01.07.2017 12:44 17,1 C 79 % 1005,5 hPa 0,0 l/m 5,8 km/h (2 Bft) SO 135 13,4 C 12,6 km/h (3 Bft) 100 %
01.07.2017 12:45 17,1 C 79 % 1005,5 hPa 0,0 l/m 3,8 km/h (1 Bft) W-SW 243 13,4 C 9,4 km/h (2 Bft) 100 %
01.07.2017 12:46 17,1 C 79 % 1005,6 hPa 0,0 l/m 13,2 km/h (3 Bft) W-NW 294 13,4 C 34,5 km/h (5 Bft) 100 %
01.07.2017 12:47 17,1 C 78 % 1005,7 hPa 0,0 l/m 6,7 km/h (2 Bft) W-SW 240 13,2 C 15,7 km/h (3 Bft) 100 %
01.07.2017 12:48 17,1 C 78 % 1005,6 hPa 0,0 l/m 8,1 km/h (2 Bft) W 271 13,2 C 22,0 km/h (4 Bft) 100 %
01.07.2017 12:49 17,1 C 79 % 1005,6 hPa 0,0 l/m 10,4 km/h (2 Bft) SW 223 13,4 C 22,0 km/h (4 Bft) 100 %
01.07.2017 12:50 17,1 C 78 % 1005,7 hPa 0,0 l/m 5,6 km/h (1 Bft) W-NW 283 13,2 C 12,6 km/h (3 Bft) 96 %
01.07.2017 12:51 17,0 C 79 % 1005,7 hPa 0,0 l/m 6,0 km/h (2 Bft) SW 220 13,3 C 15,7 km/h (3 Bft) 100 %
01.07.2017 12:52 17,0 C 78 % 1005,8 hPa 0,0 l/m 7,3 km/h (2 Bft) W 274 13,1 C 15,7 km/h (3 Bft) 100 %
01.07.2017 12:53 17,0 C 79 % 1005,9 hPa 0,0 l/m 5,3 km/h (1 Bft) NW 309 13,3 C 6,3 km/h (2 Bft) 100 %
01.07.2017 12:54 16,9 C 80 % 1005,8 hPa 0,0 l/m 7,6 km/h (2 Bft) NW 311 13,4 C 15,7 km/h (3 Bft) 96 %
01.07.2017 12:55 16,9 C 80 % 1005,9 hPa 0,0 l/m 16,5 km/h (3 Bft) W 270 13,4 C 25,1 km/h (4 Bft) 100 %
01.07.2017 12:56 16,9 C 80 % 1005,9 hPa 0,0 l/m 15,0 km/h (3 Bft) NW 320 13,4 C 22,0 km/h (4 Bft) 96 %
01.07.2017 12:57 16,8 C 81 % 1005,9 hPa 0,0 l/m 17,3 km/h (3 Bft) W-NW 302 13,5 C 22,0 km/h (4 Bft) 96 %
01.07.2017 12:58 16,7 C 82 % 1005,9 hPa 0,0 l/m 16,2 km/h (3 Bft) NW 304 13,6 C 28,2 km/h (4 Bft) 100 %
01.07.2017 12:59 16,5 C 84 % 1006,0 hPa 0,0 l/m 17,1 km/h (3 Bft) NW 310 13,8 C 28,2 km/h (4 Bft) 96 %
01.07.2017 13:00 16,3 C 84 % 1005,9 hPa 0,0 l/m 18,2 km/h (3 Bft) W 278 13,6 C 28,2 km/h (4 Bft) 100 %
01.07.2017 13:01 16,2 C 85 % 1006,1 hPa 0,0 l/m 12,0 km/h (2 Bft) NW 307 13,7 C 18,8 km/h (3 Bft) 96 %
01.07.2017 13:02 16,1 C 86 % 1006,1 hPa 0,0 l/m 9,1 km/h (2 Bft) W-SW 255 13,8 C 12,6 km/h (3 Bft) 100 %
01.07.2017 13:03 15,9 C 87 % 1006,1 hPa 0,0 l/m 8,6 km/h (2 Bft) W-SW 240 13,7 C 12,6 km/h (3 Bft) 96 %
01.07.2017 13:04 15,8 C 88 % 1006,1 hPa 0,2 l/m 8,3 km/h (2 Bft) W 266 13,8 C 15,7 km/h (3 Bft) 100 %
01.07.2017 13:05 15,7 C 89 % 1006,1 hPa 0,0 l/m 4,6 km/h (1 Bft) W 267 13,9 C 9,4 km/h (2 Bft) 100 %
01.07.2017 13:06 15,6 C 89 % 1006,1 hPa 0,0 l/m 10,3 km/h (2 Bft) W-SW 257 13,8 C 18,8 km/h (3 Bft) 100 %
01.07.2017 13:07 15,6 C 90 % 1006,1 hPa 0,0 l/m 7,8 km/h (2 Bft) W-NW 295 14,0 C 12,6 km/h (3 Bft) 100 %
01.07.2017 13:09 15,4 C 90 % 1006,1 hPa 0,0 l/m 9,3 km/h (2 Bft) W-NW 300 13,8 C 18,8 km/h (3 Bft) 100 %
01.07.2017 13:10 15,4 C 90 % 1006,1 hPa 0,0 l/m 10,0 km/h (2 Bft) W-NW 300 13,8 C 18,8 km/h (3 Bft) 99 %
01.07.2017 13:11 15,3 C 91 % 1006,1 hPa 0,0 l/m 6,8 km/h (2 Bft) W-SW 242 13,8 C 12,6 km/h (3 Bft) 100 %
01.07.2017 13:12 15,3 C 91 % 1006,1 hPa 0,0 l/m 6,1 km/h (2 Bft) NW 316 13,8 C 9,4 km/h (2 Bft) 100 %
01.07.2017 13:13 15,3 C 91 % 1006,1 hPa 0,0 l/m 4,6 km/h (1 Bft) SW 223 13,8 C 12,6 km/h (3 Bft) 100 %
01.07.2017 13:14 15,2 C 91 % 1006,1 hPa 0,0 l/m 7,9 km/h (2 Bft) W-NW 291 13,7 C 18,8 km/h (3 Bft) 100 %
01.07.2017 13:15 15,2 C 92 % 1006,1 hPa 0,0 l/m 7,2 km/h (2 Bft) N-NW 339 13,9 C 15,7 km/h (3 Bft) 100 %
01.07.2017 13:16 15,2 C 91 % 1006,1 hPa 0,0 l/m 9,9 km/h (2 Bft) S 181 13,7 C 15,7 km/h (3 Bft) 100 %
01.07.2017 13:17 15,2 C 91 % 1006,1 hPa 0,0 l/m 8,6 km/h (2 Bft) W-NW 291 13,7 C 18,8 km/h (3 Bft) 100 %
01.07.2017 13:18 15,2 C 92 % 1006,1 hPa 0,0 l/m 3,7 km/h (1 Bft) NW 322 13,9 C 9,4 km/h (2 Bft) 100 %
01.07.2017 13:19 15,2 C 92 % 1006,1 hPa 0,0 l/m 6,7 km/h (2 Bft) W 279 13,9 C 12,6 km/h (3 Bft) 100 %
01.07.2017 13:20 15,2 C 92 % 1006,1 hPa 0,0 l/m 6,0 km/h (2 Bft) W-NW 297 13,9 C 9,4 km/h (2 Bft) 100 %
01.07.2017 13:21 15,3 C 92 % 1006,1 hPa 0,0 l/m 5,0 km/h (1 Bft) W-NW 293 14,0 C 9,4 km/h (2 Bft) 100 %
01.07.2017 13:22 15,3 C 92 % 1006,1 hPa 0,0 l/m 4,0 km/h (1 Bft) SW 230 14,0 C 12,6 km/h (3 Bft) 100 %
01.07.2017 13:23 15,3 C 92 % 1006,1 hPa 0,0 l/m 7,7 km/h (2 Bft) W 266 14,0 C 15,7 km/h (3 Bft) 100 %
01.07.2017 13:24 15,3 C 92 % 1006,1 hPa 0,0 l/m 7,0 km/h (2 Bft) W-NW 295 14,0 C 15,7 km/h (3 Bft) 100 %
01.07.2017 13:25 15,3 C 92 % 1006,1 hPa 0,0 l/m 11,5 km/h (2 Bft) W-SW 251 14,0 C 25,1 km/h (4 Bft) 100 %
01.07.2017 13:26 15,4 C 91 % 1006,1 hPa 0,0 l/m 8,2 km/h (2 Bft) W-NW 293 13,9 C 15,7 km/h (3 Bft) 100 %
01.07.2017 13:27 15,4 C 92 % 1006,1 hPa 0,0 l/m 4,4 km/h (1 Bft) W-SW 244 14,1 C 6,3 km/h (2 Bft) 100 %
01.07.2017 13:28 15,4 C 92 % 1006,1 hPa 0,0 l/m 6,7 km/h (2 Bft) SW 229 14,1 C 12,6 km/h (3 Bft) 100 %
01.07.2017 13:29 15,5 C 91 % 1006,1 hPa 0,0 l/m 7,7 km/h (2 Bft) SW 224 14,0 C 12,6 km/h (3 Bft) 100 %
01.07.2017 13:30 15,5 C 92 % 1006,1 hPa 0,0 l/m 5,2 km/h (1 Bft) W 261 14,2 C 9,4 km/h (2 Bft) 100 %
01.07.2017 13:31 15,6 C 92 % 1006,2 hPa 0,0 l/m 4,4 km/h (1 Bft) W 276 14,3 C 6,3 km/h (2 Bft) 96 %
01.07.2017 13:32 15,6 C 92 % 1006,2 hPa 0,0 l/m 2,1 km/h (1 Bft) W-SW 246 14,3 C 6,3 km/h (2 Bft) 100 %
01.07.2017 13:33 15,6 C 92 % 1006,2 hPa 0,0 l/m 1,0 km/h (0 Bft) S 183 14,3 C 6,3 km/h (2 Bft) 100 %
01.07.2017 13:34 15,6 C 92 % 1006,2 hPa 0,0 l/m 4,0 km/h (1 Bft) N-NW 332 14,3 C 6,3 km/h (2 Bft) 100 %
01.07.2017 13:35 15,7 C 92 % 1006,2 hPa 0,0 l/m 5,2 km/h (1 Bft) SW 226 14,4 C 12,6 km/h (3 Bft) 100 %
01.07.2017 13:36 15,7 C 92 % 1006,2 hPa 0,0 l/m 7,5 km/h (2 Bft) SW 217 14,4 C 15,7 km/h (3 Bft) 100 %
01.07.2017 13:37 15,7 C 92 % 1006,2 hPa 0,0 l/m 3,0 km/h (1 Bft) W-NW 294 14,4 C 6,3 km/h (2 Bft) 100 %
01.07.2017 13:38 15,7 C 92 % 1006,2 hPa 0,0 l/m 2,1 km/h (1 Bft) W-SW 252 14,4 C 9,4 km/h (2 Bft) 99 %
01.07.2017 13:39 15,7 C 92 % 1006,2 hPa 0,0 l/m 1,7 km/h (1 Bft) W-NW 289 14,4 C 3,1 km/h (1 Bft) 100 %
01.07.2017 13:40 15,7 C 91 % 1006,2 hPa 0,0 l/m 4,7 km/h (1 Bft) SW 228 14,2 C 12,6 km/h (3 Bft) 100 %
01.07.2017 13:41 15,8 C 91 % 1006,2 hPa 0,0 l/m 8,9 km/h (2 Bft) W-SW 241 14,3 C 18,8 km/h (3 Bft) 100 %
01.07.2017 13:42 15,7 C 91 % 1006,2 hPa 0,0 l/m 2,7 km/h (1 Bft) SO 138 14,2 C 6,3 km/h (2 Bft) 100 %
01.07.2017 13:43 15,8 C 92 % 1006,1 hPa 0,0 l/m 3,6 km/h (1 Bft) W-NW 298 14,5 C 9,4 km/h (2 Bft) 100 %
01.07.2017 13:44 15,8 C 91 % 1006,2 hPa 0,0 l/m 5,5 km/h (1 Bft) W 269 14,3 C 9,4 km/h (2 Bft) 100 %
01.07.2017 13:45 15,8 C 91 % 1006,2 hPa 0,0 l/m 6,0 km/h (2 Bft) W 274 14,3 C 12,6 km/h (3 Bft) 100 %
01.07.2017 13:46 15,8 C 91 % 1006,1 hPa 0,0 l/m 3,8 km/h (1 Bft) W 264 14,3 C 9,4 km/h (2 Bft) 96 %
01.07.2017 13:47 15,8 C 91 % 1006,2 hPa 0,0 l/m 3,4 km/h (1 Bft) NW 326 14,3 C 12,6 km/h (3 Bft) 100 %
01.07.2017 13:48 15,7 C 90 % 1006,2 hPa 0,0 l/m 8,6 km/h (2 Bft) W-SW 257 14,1 C 12,6 km/h (3 Bft) 92 %
01.07.2017 13:49 15,7 C 90 % 1006,2 hPa 0,0 l/m 1,4 km/h (1 Bft) W 281 14,1 C 6,3 km/h (2 Bft) 96 %
01.07.2017 13:50 15,7 C 91 % 1006,3 hPa 0,0 l/m 1,8 km/h (1 Bft) W-NW 303 14,2 C 6,3 km/h (2 Bft) 100 %
01.07.2017 13:51 15,8 C 91 % 1006,3 hPa 0,0 l/m 2,0 km/h (1 Bft) W-SW 255 14,3 C 3,1 km/h (1 Bft) 96 %
01.07.2017 13:52 15,8 C 91 % 1006,2 hPa 0,0 l/m 1,3 km/h (1 Bft) N-NW 340 14,3 C 3,1 km/h (1 Bft) 100 %
01.07.2017 13:53 15,8 C 91 % 1006,2 hPa 0,0 l/m 2,2 km/h (1 Bft) W-NW 302 14,3 C 6,3 km/h (2 Bft) 96 %
01.07.2017 13:54 15,8 C 91 % 1006,2 hPa 0,0 l/m 7,6 km/h (2 Bft) W-SW 241 14,3 C 15,7 km/h (3 Bft) 100 %
01.07.2017 13:55 15,8 C 90 % 1006,2 hPa 0,0 l/m 6,5 km/h (2 Bft) W-SW 244 14,2 C 12,6 km/h (3 Bft) 96 %
01.07.2017 13:56 15,8 C 90 % 1006,2 hPa 0,0 l/m 0,3 km/h (0 Bft) W-NW 292 14,2 C 3,1 km/h (1 Bft) 96 %
01.07.2017 13:57 15,8 C 91 % 1006,3 hPa 0,0 l/m 0,9 km/h (0 Bft) W-NW 302 14,3 C 3,1 km/h (1 Bft) 100 %
01.07.2017 13:58 15,8 C 91 % 1006,3 hPa 0,0 l/m 2,2 km/h (1 Bft) W 267 14,3 C 3,1 km/h (1 Bft) 96 %
01.07.2017 13:59 15,8 C 91 % 1006,4 hPa 0,0 l/m 1,7 km/h (1 Bft) W 266 14,3 C 6,3 km/h (2 Bft) 100 %
01.07.2017 14:00 15,8 C 91 % 1006,4 hPa 0,0 l/m 3,5 km/h (1 Bft) W-NW 295 14,3 C 6,3 km/h (2 Bft) 96 %
01.07.2017 14:01 15,8 C 91 % 1006,4 hPa 0,0 l/m 5,0 km/h (1 Bft) SW 229 14,3 C 12,6 km/h (3 Bft) 100 %
01.07.2017 14:02 15,8 C 91 % 1006,4 hPa 0,0 l/m 3,0 km/h (1 Bft) W-NW 290 14,3 C 6,3 km/h (2 Bft) 100 %
01.07.2017 14:03 15,8 C 91 % 1006,4 hPa 0,0 l/m 5,2 km/h (1 Bft) NW 307 14,3 C 12,6 km/h (3 Bft) 100 %
01.07.2017 14:04 15,8 C 90 % 1006,4 hPa 0,0 l/m 9,3 km/h (2 Bft) SW 233 14,2 C 15,7 km/h (3 Bft) 100 %
01.07.2017 14:05 15,8 C 90 % 1006,4 hPa 0,0 l/m 8,9 km/h (2 Bft) NW 314 14,2 C 18,8 km/h (3 Bft) 100 %
01.07.2017 14:06 15,8 C 91 % 1006,5 hPa 0,0 l/m 9,0 km/h (2 Bft) SO 140 14,3 C 22,0 km/h (4 Bft) 100 %
01.07.2017 14:07 15,7 C 91 % 1006,6 hPa 0,2 l/m 9,4 km/h (2 Bft) S-SW 200 14,2 C 15,7 km/h (3 Bft) 100 %
01.07.2017 14:08 15,7 C 90 % 1006,6 hPa 0,0 l/m 14,1 km/h (3 Bft) N-NW 342 14,1 C 22,0 km/h (4 Bft) 100 %
01.07.2017 14:09 15,7 C 91 % 1006,5 hPa 0,0 l/m 8,4 km/h (2 Bft) W 269 14,2 C 12,6 km/h (3 Bft) 100 %
01.07.2017 14:10 15,6 C 91 % 1006,5 hPa 0,0 l/m 4,1 km/h (1 Bft) W 277 14,1 C 9,4 km/h (2 Bft) 100 %
01.07.2017 14:11 15,6 C 91 % 1006,6 hPa 0,2 l/m 8,0 km/h (2 Bft) NW 314 14,1 C 15,7 km/h (3 Bft) 100 %
01.07.2017 14:12 15,5 C 91 % 1006,6 hPa 0,0 l/m 7,1 km/h (2 Bft) W-SW 248 14,0 C 15,7 km/h (3 Bft) 100 %
01.07.2017 14:13 15,4 C 92 % 1006,6 hPa 0,2 l/m 6,7 km/h (2 Bft) NW 318 14,1 C 12,6 km/h (3 Bft) 100 %
01.07.2017 14:14 15,4 C 92 % 1006,7 hPa 0,0 l/m 8,6 km/h (2 Bft) W-NW 293 14,1 C 18,8 km/h (3 Bft) 100 %
01.07.2017 14:15 15,3 C 92 % 1006,7 hPa 0,2 l/m 7,8 km/h (2 Bft) NW 304 14,0 C 12,6 km/h (3 Bft) 100 %
01.07.2017 14:16 15,3 C 93 % 1006,7 hPa 0,0 l/m 5,2 km/h (1 Bft) W-NW 295 14,2 C 15,7 km/h (3 Bft) 100 %
01.07.2017 14:17 15,2 C 93 % 1006,8 hPa 0,2 l/m 6,5 km/h (2 Bft) NW 307 14,1 C 9,4 km/h (2 Bft) 100 %
01.07.2017 14:18 15,2 C 94 % 1006,8 hPa 0,0 l/m 5,0 km/h (1 Bft) NW 314 14,2 C 9,4 km/h (2 Bft) 100 %
01.07.2017 14:19 15,2 C 94 % 1006,8 hPa 0,0 l/m 4,7 km/h (1 Bft) W 276 14,2 C 9,4 km/h (2 Bft) 100 %
01.07.2017 14:20 15,2 C 94 % 1006,8 hPa 0,0 l/m 8,1 km/h (2 Bft) N-NW 331 14,2 C 15,7 km/h (3 Bft) 100 %
01.07.2017 14:21 15,1 C 94 % 1006,9 hPa 0,0 l/m 10,4 km/h (2 Bft) W-SW 252 14,1 C 22,0 km/h (4 Bft) 100 %
01.07.2017 14:22 15,1 C 93 % 1006,8 hPa 0,0 l/m 18,7 km/h (3 Bft) S-SW 193 14,0 C 34,5 km/h (5 Bft) 100 %
01.07.2017 14:23 14,9 C 93 % 1006,9 hPa 0,0 l/m 11,9 km/h (2 Bft) W-NW 286 13,8 C 18,8 km/h (3 Bft) 100 %
01.07.2017 14:24 14,9 C 93 % 1006,9 hPa 0,2 l/m 12,1 km/h (2 Bft) W-NW 290 13,8 C 22,0 km/h (4 Bft) 100 %
01.07.2017 14:25 14,8 C 93 % 1006,9 hPa 0,0 l/m 11,9 km/h (2 Bft) W 276 13,7 C 18,8 km/h (3 Bft) 100 %
01.07.2017 14:26 14,8 C 93 % 1006,9 hPa 0,0 l/m 9,7 km/h (2 Bft) NW 323 13,7 C 22,0 km/h (4 Bft) 100 %
01.07.2017 14:27 14,7 C 94 % 1006,9 hPa 0,0 l/m 9,4 km/h (2 Bft) W-NW 288 13,7 C 18,8 km/h (3 Bft) 100 %
01.07.2017 14:28 14,7 C 94 % 1006,9 hPa 0,0 l/m 9,1 km/h (2 Bft) W 273 13,7 C 12,6 km/h (3 Bft) 100 %
01.07.2017 14:29 14,6 C 94 % 1006,9 hPa 0,0 l/m 6,8 km/h (2 Bft) W-NW 295 13,6 C 15,7 km/h (3 Bft) 100 %
01.07.2017 14:30 14,6 C 94 % 1006,8 hPa 0,0 l/m 9,7 km/h (2 Bft) W 273 13,6 C 12,6 km/h (3 Bft) 100 %
01.07.2017 14:31 14,6 C 94 % 1007,0 hPa 0,0 l/m 6,5 km/h (2 Bft) W 269 13,6 C 15,7 km/h (3 Bft) 100 %
01.07.2017 14:32 14,6 C 94 % 1006,9 hPa 0,0 l/m 7,3 km/h (2 Bft) NW 316 13,6 C 9,4 km/h (2 Bft) 100 %
01.07.2017 14:33 14,6 C 94 % 1007,0 hPa 0,0 l/m 8,1 km/h (2 Bft) W 273 13,6 C 18,8 km/h (3 Bft) 100 %
01.07.2017 14:34 14,6 C 94 % 1007,0 hPa 0,0 l/m 6,9 km/h (2 Bft) SW 225 13,6 C 12,6 km/h (3 Bft) 100 %
01.07.2017 14:35 14,6 C 95 % 1007,0 hPa 0,0 l/m 3,8 km/h (1 Bft) W-NW 300 13,8 C 9,4 km/h (2 Bft) 100 %
01.07.2017 14:36 14,6 C 95 % 1007,0 hPa 0,0 l/m 7,0 km/h (2 Bft) W 277 13,8 C 12,6 km/h (3 Bft) 100 %
01.07.2017 14:37 14,6 C 95 % 1007,0 hPa 0,0 l/m 5,2 km/h (1 Bft) W-NW 301 13,8 C 6,3 km/h (2 Bft) 100 %
01.07.2017 14:38 14,6 C 95 % 1007,0 hPa 0,0 l/m 6,0 km/h (2 Bft) W-NW 293 13,8 C 12,6 km/h (3 Bft) 100 %
01.07.2017 14:39 14,6 C 95 % 1007,0 hPa 0,0 l/m 6,6 km/h (2 Bft) W-SW 252 13,8 C 12,6 km/h (3 Bft) 100 %
01.07.2017 14:40 14,6 C 95 % 1007,0 hPa 0,0 l/m 5,5 km/h (1 Bft) NW 318 13,8 C 9,4 km/h (2 Bft) 100 %
01.07.2017 14:42 14,7 C 95 % 1007,0 hPa 0,0 l/m 5,6 km/h (1 Bft) W 259 13,9 C 12,6 km/h (3 Bft) 100 %
01.07.2017 14:43 14,7 C 95 % 1006,9 hPa 0,0 l/m 1,7 km/h (1 Bft) W-NW 300 13,9 C 3,1 km/h (1 Bft) 100 %
01.07.2017 14:44 14,7 C 95 % 1007,0 hPa 0,0 l/m 3,0 km/h (1 Bft) N-NW 345 13,9 C 6,3 km/h (2 Bft) 100 %
01.07.2017 14:45 14,8 C 95 % 1007,0 hPa 0,0 l/m 1,3 km/h (1 Bft) W 273 14,0 C 3,1 km/h (1 Bft) 100 %
01.07.2017 14:46 14,8 C 95 % 1006,9 hPa 0,0 l/m 1,8 km/h (1 Bft) N-NW 328 14,0 C 6,3 km/h (2 Bft) 97 %
01.07.2017 14:47 14,8 C 95 % 1006,9 hPa 0,0 l/m 1,7 km/h (1 Bft) W 276 14,0 C 3,1 km/h (1 Bft) 100 %
01.07.2017 14:48 14,8 C 95 % 1006,9 hPa 0,0 l/m 5,2 km/h (1 Bft) W-NW 299 14,0 C 12,6 km/h (3 Bft) 100 %
01.07.2017 14:49 14,9 C 95 % 1006,9 hPa 0,0 l/m 3,3 km/h (1 Bft) W-NW 297 14,1 C 9,4 km/h (2 Bft) 96 %
01.07.2017 14:50 14,9 C 95 % 1006,9 hPa 0,0 l/m 5,2 km/h (1 Bft) W 281 14,1 C 9,4 km/h (2 Bft) 96 %
01.07.2017 14:52 14,9 C 94 % 1007,0 hPa 0,0 l/m 8,1 km/h (2 Bft) W-NW 285 13,9 C 15,7 km/h (3 Bft) 98 %
01.07.2017 14:53 15,0 C 94 % 1007,0 hPa 0,0 l/m 4,0 km/h (1 Bft) W-NW 289 14,0 C 9,4 km/h (2 Bft) 100 %
01.07.2017 14:54 15,1 C 95 % 1006,9 hPa 0,0 l/m 6,7 km/h (2 Bft) W-NW 288 14,3 C 12,6 km/h (3 Bft) 96 %
01.07.2017 14:55 15,1 C 94 % 1006,9 hPa 0,0 l/m 11,7 km/h (2 Bft) W-NW 297 14,1 C 22,0 km/h (4 Bft) 100 %
01.07.2017 14:57 15,1 C 94 % 1007,0 hPa 0,0 l/m 6,3 km/h (2 Bft) W-NW 292 14,1 C 18,8 km/h (3 Bft) 97 %
01.07.2017 14:58 15,2 C 94 % 1007,0 hPa 0,2 l/m 4,6 km/h (1 Bft) W-NW 284 14,2 C 9,4 km/h (2 Bft) 100 %
01.07.2017 14:59 15,2 C 94 % 1007,1 hPa 0,0 l/m 8,1 km/h (2 Bft) SW 229 14,2 C 18,8 km/h (3 Bft) 96 %
01.07.2017 15:00 15,2 C 94 % 1007,0 hPa 0,0 l/m 9,0 km/h (2 Bft) W-SW 240 14,2 C 15,7 km/h (3 Bft) 100 %
01.07.2017 15:01 15,2 C 94 % 1007,0 hPa 0,0 l/m 9,4 km/h (2 Bft) W-NW 295 14,2 C 15,7 km/h (3 Bft) 100 %
01.07.2017 15:02 15,2 C 93 % 1007,0 hPa 0,0 l/m 6,6 km/h (2 Bft) W-SW 255 14,1 C 15,7 km/h (3 Bft) 100 %
01.07.2017 15:03 15,3 C 94 % 1007,0 hPa 0,0 l/m 3,0 km/h (1 Bft) NW 304 14,3 C 9,4 km/h (2 Bft) 100 %
01.07.2017 15:04 15,3 C 93 % 1007,0 hPa 0,0 l/m 10,3 km/h (2 Bft) W 276 14,2 C 18,8 km/h (3 Bft) 100 %
01.07.2017 15:05 15,3 C 93 % 1007,0 hPa 0,0 l/m 9,2 km/h (2 Bft) W 269 14,2 C 15,7 km/h (3 Bft) 100 %
01.07.2017 15:06 15,3 C 93 % 1007,0 hPa 0,0 l/m 3,8 km/h (1 Bft) W 259 14,2 C 6,3 km/h (2 Bft) 100 %
01.07.2017 15:07 15,3 C 93 % 1007,0 hPa 0,0 l/m 5,0 km/h (1 Bft) W-NW 285 14,2 C 9,4 km/h (2 Bft) 100 %
01.07.2017 15:08 15,3 C 94 % 1007,0 hPa 0,0 l/m 4,1 km/h (1 Bft) NW 306 14,3 C 6,3 km/h (2 Bft) 100 %
01.07.2017 15:09 15,3 C 94 % 1007,1 hPa 0,0 l/m 2,2 km/h (1 Bft) W 278 14,3 C 6,3 km/h (2 Bft) 100 %
01.07.2017 15:10 15,4 C 94 % 1007,1 hPa 0,0 l/m 7,5 km/h (2 Bft) W-NW 283 14,4 C 12,6 km/h (3 Bft) 100 %
01.07.2017 15:11 15,4 C 94 % 1007,0 hPa 0,0 l/m 5,2 km/h (1 Bft) W-NW 300 14,4 C 15,7 km/h (3 Bft) 100 %
01.07.2017 15:12 15,4 C 94 % 1007,0 hPa 0,0 l/m 3,0 km/h (1 Bft) W-NW 289 14,4 C 6,3 km/h (2 Bft) 100 %
01.07.2017 15:13 15,4 C 94 % 1007,1 hPa 0,0 l/m 7,7 km/h (2 Bft) S-SW 195 14,4 C 12,6 km/h (3 Bft) 100 %
01.07.2017 15:14 15,5 C 94 % 1007,1 hPa 0,0 l/m 8,3 km/h (2 Bft) W 276 14,5 C 12,6 km/h (3 Bft) 100 %
01.07.2017 15:15 15,5 C 94 % 1007,2 hPa 0,0 l/m 5,8 km/h (2 Bft) W 268 14,5 C 9,4 km/h (2 Bft) 100 %
01.07.2017 15:16 15,5 C 94 % 1007,2 hPa 0,0 l/m 10,2 km/h (2 Bft) W 264 14,5 C 18,8 km/h (3 Bft) 100 %
01.07.2017 15:17 15,4 C 93 % 1007,2 hPa 0,2 l/m 13,6 km/h (3 Bft) W 263 14,3 C 22,0 km/h (4 Bft) 100 %
01.07.2017 15:18 15,4 C 93 % 1007,2 hPa 0,0 l/m 10,3 km/h (2 Bft) NW 322 14,3 C 25,1 km/h (4 Bft) 100 %
01.07.2017 15:19 15,4 C 93 % 1007,2 hPa 0,0 l/m 11,9 km/h (2 Bft) W 276 14,3 C 22,0 km/h (4 Bft) 100 %
01.07.2017 15:20 15,4 C 93 % 1007,2 hPa 0,0 l/m 11,4 km/h (2 Bft) W-SW 252 14,3 C 18,8 km/h (3 Bft) 100 %
01.07.2017 15:21 15,4 C 93 % 1007,2 hPa 0,0 l/m 4,7 km/h (1 Bft) NW 314 14,3 C 9,4 km/h (2 Bft) 100 %
01.07.2017 15:22 15,4 C 93 % 1007,2 hPa 0,0 l/m 4,5 km/h (1 Bft) NW 323 14,3 C 18,8 km/h (3 Bft) 100 %
01.07.2017 15:23 15,4 C 93 % 1007,2 hPa 0,0 l/m 8,3 km/h (2 Bft) W 276 14,3 C 18,8 km/h (3 Bft) 100 %
01.07.2017 15:24 15,4 C 93 % 1007,2 hPa 0,0 l/m 7,7 km/h (2 Bft) W 281 14,3 C 9,4 km/h (2 Bft) 100 %
01.07.2017 15:25 15,4 C 93 % 1007,2 hPa 0,0 l/m 5,3 km/h (1 Bft) W 269 14,3 C 12,6 km/h (3 Bft) 100 %
01.07.2017 15:26 15,4 C 93 % 1007,2 hPa 0,0 l/m 5,6 km/h (1 Bft) W 278 14,3 C 9,4 km/h (2 Bft) 100 %
01.07.2017 15:27 15,4 C 94 % 1007,2 hPa 0,0 l/m 1,1 km/h (1 Bft) W 262 14,4 C 3,1 km/h (1 Bft) 100 %
01.07.2017 15:28 15,5 C 94 % 1007,3 hPa 0,0 l/m 2,2 km/h (1 Bft) W-NW 299 14,5 C 6,3 km/h (2 Bft) 100 %
01.07.2017 15:29 15,5 C 94 % 1007,3 hPa 0,0 l/m 7,3 km/h (2 Bft) W-NW 288 14,5 C 12,6 km/h (3 Bft) 100 %
01.07.2017 15:30 15,5 C 94 % 1007,3 hPa 0,0 l/m 7,1 km/h (2 Bft) NW 326 14,5 C 12,6 km/h (3 Bft) 100 %
01.07.2017 15:31 15,5 C 94 % 1007,3 hPa 0,0 l/m 10,6 km/h (2 Bft) NW 319 14,5 C 15,7 km/h (3 Bft) 100 %
01.07.2017 15:32 15,5 C 93 % 1007,3 hPa 0,0 l/m 8,2 km/h (2 Bft) NW 316 14,4 C 15,7 km/h (3 Bft) 100 %
01.07.2017 15:33 15,5 C 93 % 1007,3 hPa 0,0 l/m 8,9 km/h (2 Bft) W-NW 294 14,4 C 12,6 km/h (3 Bft) 100 %
01.07.2017 15:34 15,5 C 93 % 1007,3 hPa 0,0 l/m 12,7 km/h (3 Bft) W-SW 254 14,4 C 22,0 km/h (4 Bft) 100 %
01.07.2017 15:35 15,5 C 93 % 1007,3 hPa 0,0 l/m 10,3 km/h (2 Bft) W 264 14,4 C 12,6 km/h (3 Bft) 100 %
01.07.2017 15:36 15,5 C 93 % 1007,3 hPa 0,0 l/m 3,9 km/h (1 Bft) W-SW 257 14,4 C 6,3 km/h (2 Bft) 100 %
01.07.2017 15:37 15,5 C 94 % 1007,3 hPa 0,0 l/m 3,5 km/h (1 Bft) W-SW 238 14,5 C 9,4 km/h (2 Bft) 100 %
01.07.2017 15:38 15,5 C 94 % 1007,4 hPa 0,0 l/m 0,6 km/h (0 Bft) W-NW 287 14,5 C 3,1 km/h (1 Bft) 100 %
01.07.2017 15:39 15,6 C 94 % 1007,4 hPa 0,0 l/m 5,0 km/h (1 Bft) W-NW 288 14,6 C 9,4 km/h (2 Bft) 100 %
01.07.2017 15:40 15,6 C 94 % 1007,4 hPa 0,0 l/m 7,3 km/h (2 Bft) W-SW 255 14,6 C 9,4 km/h (2 Bft) 100 %
01.07.2017 15:41 15,5 C 94 % 1007,4 hPa 0,0 l/m 10,9 km/h (2 Bft) NW 308 14,5 C 25,1 km/h (4 Bft) 100 %
01.07.2017 15:42 15,5 C 94 % 1007,4 hPa 0,0 l/m 6,7 km/h (2 Bft) W-NW 295 14,5 C 12,6 km/h (3 Bft) 100 %
01.07.2017 15:43 15,5 C 94 % 1007,4 hPa 0,0 l/m 5,6 km/h (1 Bft) W 277 14,5 C 9,4 km/h (2 Bft) 100 %
01.07.2017 15:44 15,5 C 94 % 1007,4 hPa 0,0 l/m 5,2 km/h (1 Bft) W-NW 286 14,5 C 12,6 km/h (3 Bft) 100 %
01.07.2017 15:45 15,4 C 93 % 1007,4 hPa 0,0 l/m 10,2 km/h (2 Bft) S-SW 208 14,3 C 22,0 km/h (4 Bft) 100 %
01.07.2017 15:46 15,4 C 93 % 1007,4 hPa 0,0 l/m 4,9 km/h (1 Bft) NW 318 14,3 C 12,6 km/h (3 Bft) 100 %
01.07.2017 15:47 15,4 C 93 % 1007,4 hPa 0,0 l/m 5,5 km/h (1 Bft) W-SW 244 14,3 C 9,4 km/h (2 Bft) 100 %
01.07.2017 15:48 15,4 C 93 % 1007,4 hPa 0,0 l/m 5,7 km/h (1 Bft) W-NW 303 14,3 C 12,6 km/h (3 Bft) 96 %
01.07.2017 15:49 15,4 C 94 % 1007,4 hPa 0,0 l/m 3,7 km/h (1 Bft) W-NW 300 14,4 C 9,4 km/h (2 Bft) 100 %
01.07.2017 15:50 15,4 C 94 % 1007,4 hPa 0,0 l/m 5,0 km/h (1 Bft) W-SW 245 14,4 C 15,7 km/h (3 Bft) 100 %
01.07.2017 15:51 15,4 C 93 % 1007,4 hPa 0,0 l/m 8,8 km/h (2 Bft) W 276 14,3 C 18,8 km/h (3 Bft) 92 %
01.07.2017 15:52 15,4 C 94 % 1007,5 hPa 0,0 l/m 1,7 km/h (1 Bft) W-SW 250 14,4 C 6,3 km/h (2 Bft) 100 %
01.07.2017 15:53 15,4 C 94 % 1007,5 hPa 0,0 l/m 3,5 km/h (1 Bft) W-NW 295 14,4 C 6,3 km/h (2 Bft) 97 %
01.07.2017 15:54 15,4 C 94 % 1007,5 hPa 0,0 l/m 5,9 km/h (2 Bft) SW 236 14,4 C 9,4 km/h (2 Bft) 100 %
01.07.2017 15:55 15,4 C 94 % 1007,5 hPa 0,0 l/m 5,2 km/h (1 Bft) W 260 14,4 C 9,4 km/h (2 Bft) 96 %
01.07.2017 15:56 15,4 C 94 % 1007,5 hPa 0,0 l/m 4,1 km/h (1 Bft) W 279 14,4 C 6,3 km/h (2 Bft) 96 %
01.07.2017 15:57 15,4 C 94 % 1007,5 hPa 0,0 l/m 7,8 km/h (2 Bft) W-NW 302 14,4 C 15,7 km/h (3 Bft) 100 %
01.07.2017 15:58 15,4 C 94 % 1007,5 hPa 0,0 l/m 10,5 km/h (2 Bft) W 264 14,4 C 15,7 km/h (3 Bft) 96 %
01.07.2017 15:59 15,4 C 94 % 1007,5 hPa 0,0 l/m 5,9 km/h (2 Bft) W-NW 295 14,4 C 18,8 km/h (3 Bft) 100 %
01.07.2017 16:00 15,4 C 94 % 1007,5 hPa 0,0 l/m 5,9 km/h (2 Bft) W-SW 244 14,4 C 12,6 km/h (3 Bft) 96 %
01.07.2017 16:01 15,4 C 94 % 1007,5 hPa 0,0 l/m 10,3 km/h (2 Bft) NW 304 14,4 C 22,0 km/h (4 Bft) 100 %
01.07.2017 16:02 15,4 C 94 % 1007,5 hPa 0,0 l/m 5,2 km/h (1 Bft) W 269 14,4 C 12,6 km/h (3 Bft) 100 %
01.07.2017 16:03 15,4 C 94 % 1007,5 hPa 0,0 l/m 4,5 km/h (1 Bft) NW 311 14,4 C 9,4 km/h (2 Bft) 100 %
01.07.2017 16:04 15,4 C 94 % 1007,5 hPa 0,0 l/m 4,8 km/h (1 Bft) W-SW 252 14,4 C 6,3 km/h (2 Bft) 100 %
01.07.2017 16:05 15,4 C 94 % 1007,6 hPa 0,0 l/m 3,7 km/h (1 Bft) NW 323 14,4 C 9,4 km/h (2 Bft) 100 %
01.07.2017 16:06 15,4 C 94 % 1007,6 hPa 0,0 l/m 8,7 km/h (2 Bft) W-NW 297 14,4 C 12,6 km/h (3 Bft) 100 %
01.07.2017 16:07 15,4 C 94 % 1007,5 hPa 0,0 l/m 6,4 km/h (2 Bft) SW 233 14,4 C 12,6 km/h (3 Bft) 100 %
01.07.2017 16:08 15,4 C 94 % 1007,5 hPa 0,0 l/m 3,1 km/h (1 Bft) NW 306 14,4 C 6,3 km/h (2 Bft) 100 %
01.07.2017 16:09 15,4 C 94 % 1007,6 hPa 0,0 l/m 8,2 km/h (2 Bft) W-NW 300 14,4 C 12,6 km/h (3 Bft) 100 %
01.07.2017 16:10 15,4 C 94 % 1007,6 hPa 0,0 l/m 7,7 km/h (2 Bft) W 259 14,4 C 15,7 km/h (3 Bft) 100 %
01.07.2017 16:11 15,4 C 94 % 1007,7 hPa 0,0 l/m 5,3 km/h (1 Bft) NW 309 14,4 C 9,4 km/h (2 Bft) 100 %
01.07.2017 16:12 15,4 C 94 % 1007,7 hPa 0,0 l/m 6,6 km/h (2 Bft) W-SW 241 14,4 C 9,4 km/h (2 Bft) 100 %
01.07.2017 16:13 15,3 C 94 % 1007,7 hPa 0,0 l/m 6,4 km/h (2 Bft) W-SW 257 14,3 C 12,6 km/h (3 Bft) 100 %
01.07.2017 16:14 15,3 C 94 % 1007,7 hPa 0,0 l/m 6,3 km/h (2 Bft) W-NW 296 14,3 C 9,4 km/h (2 Bft) 100 %
01.07.2017 16:15 15,3 C 94 % 1007,7 hPa 0,0 l/m 6,8 km/h (2 Bft) W-SW 240 14,3 C 12,6 km/h (3 Bft) 100 %
01.07.2017 16:16 15,3 C 94 % 1007,8 hPa 0,0 l/m 4,2 km/h (1 Bft) W 276 14,3 C 6,3 km/h (2 Bft) 100 %
01.07.2017 16:17 15,3 C 94 % 1007,8 hPa 0,0 l/m 5,5 km/h (1 Bft) NW 316 14,3 C 9,4 km/h (2 Bft) 100 %
01.07.2017 16:18 15,2 C 94 % 1007,8 hPa 0,0 l/m 7,8 km/h (2 Bft) W-SW 249 14,2 C 15,7 km/h (3 Bft) 100 %
01.07.2017 16:19 15,2 C 94 % 1007,8 hPa 0,0 l/m 8,4 km/h (2 Bft) W-SW 257 14,2 C 15,7 km/h (3 Bft) 100 %
01.07.2017 16:20 15,2 C 94 % 1007,8 hPa 0,0 l/m 5,8 km/h (2 Bft) W-NW 294 14,2 C 9,4 km/h (2 Bft) 100 %
01.07.2017 16:21 15,2 C 95 % 1007,8 hPa 0,0 l/m 5,1 km/h (1 Bft) W-NW 303 14,4 C 15,7 km/h (3 Bft) 100 %
01.07.2017 16:22 15,2 C 95 % 1007,8 hPa 0,0 l/m 5,2 km/h (1 Bft) SW 226 14,4 C 9,4 km/h (2 Bft) 100 %
01.07.2017 16:23 15,1 C 95 % 1007,8 hPa 0,0 l/m 2,7 km/h (1 Bft) W-SW 248 14,3 C 6,3 km/h (2 Bft) 100 %
01.07.2017 16:24 15,1 C 95 % 1007,8 hPa 0,0 l/m 4,9 km/h (1 Bft) W-NW 295 14,3 C 9,4 km/h (2 Bft) 100 %
01.07.2017 16:25 15,1 C 95 % 1007,8 hPa 0,0 l/m 1,6 km/h (1 Bft) W-SW 240 14,3 C 6,3 km/h (2 Bft) 100 %
01.07.2017 16:26 15,1 C 95 % 1007,8 hPa 0,0 l/m 2,5 km/h (1 Bft) W 260 14,3 C 6,3 km/h (2 Bft) 100 %
01.07.2017 16:27 15,1 C 95 % 1007,9 hPa 0,0 l/m 1,4 km/h (1 Bft) W-SW 253 14,3 C 6,3 km/h (2 Bft) 100 %
01.07.2017 16:28 15,1 C 95 % 1007,9 hPa 0,0 l/m 5,3 km/h (1 Bft) W 262 14,3 C 9,4 km/h (2 Bft) 100 %
01.07.2017 16:29 15,1 C 95 % 1007,9 hPa 0,2 l/m 0,8 km/h (0 Bft) W 267 14,3 C 3,1 km/h (1 Bft) 100 %
01.07.2017 16:30 15,1 C 96 % 1007,9 hPa 0,0 l/m 2,6 km/h (1 Bft) W-NW 298 14,5 C 6,3 km/h (2 Bft) 100 %
01.07.2017 16:31 15,1 C 95 % 1007,9 hPa 0,0 l/m 4,6 km/h (1 Bft) S-SW 210 14,3 C 12,6 km/h (3 Bft) 100 %
01.07.2017 16:32 15,1 C 96 % 1007,8 hPa 0,0 l/m 2,1 km/h (1 Bft) SW 221 14,5 C 6,3 km/h (2 Bft) 100 %
01.07.2017 16:33 15,1 C 96 % 1007,9 hPa 0,0 l/m 2,8 km/h (1 Bft) W-SW 252 14,5 C 6,3 km/h (2 Bft) 100 %
01.07.2017 16:34 15,1 C 96 % 1007,9 hPa 0,0 l/m 0,2 km/h (0 Bft) W-SW 252 14,5 C 3,1 km/h (1 Bft) 100 %
01.07.2017 16:35 15,1 C 96 % 1007,9 hPa 0,0 l/m 1,8 km/h (1 Bft) W-NW 293 14,5 C 6,3 km/h (2 Bft) 100 %
01.07.2017 16:36 15,1 C 96 % 1007,9 hPa 0,0 l/m 2,9 km/h (1 Bft) NW 308 14,5 C 6,3 km/h (2 Bft) 100 %
01.07.2017 16:37 15,1 C 96 % 1007,9 hPa 0,0 l/m 4,9 km/h (1 Bft) W-NW 293 14,5 C 6,3 km/h (2 Bft) 100 %
01.07.2017 16:38 15,1 C 96 % 1007,9 hPa 0,0 l/m 2,6 km/h (1 Bft) W-NW 297 14,5 C 6,3 km/h (2 Bft) 100 %
01.07.2017 16:39 15,1 C 96 % 1007,9 hPa 0,0 l/m 4,3 km/h (1 Bft) W-NW 301 14,5 C 9,4 km/h (2 Bft) 100 %
01.07.2017 16:40 15,1 C 96 % 1007,9 hPa 0,0 l/m 2,1 km/h (1 Bft) W-NW 283 14,5 C 3,1 km/h (1 Bft) 100 %
01.07.2017 16:41 15,1 C 96 % 1007,9 hPa 0,0 l/m 3,0 km/h (1 Bft) W-NW 288 14,5 C 6,3 km/h (2 Bft) 100 %
01.07.2017 16:42 15,1 C 96 % 1007,9 hPa 0,0 l/m 5,1 km/h (1 Bft) NW 319 14,5 C 12,6 km/h (3 Bft) 100 %
01.07.2017 16:43 15,1 C 96 % 1007,9 hPa 0,0 l/m 4,4 km/h (1 Bft) NW 316 14,5 C 9,4 km/h (2 Bft) 100 %
01.07.2017 16:44 15,1 C 96 % 1007,9 hPa 0,0 l/m 3,3 km/h (1 Bft) W 278 14,5 C 6,3 km/h (2 Bft) 100 %
01.07.2017 16:45 15,1 C 96 % 1007,9 hPa 0,0 l/m 3,3 km/h (1 Bft) W-NW 300 14,5 C 12,6 km/h (3 Bft) 100 %
01.07.2017 16:46 15,1 C 96 % 1007,9 hPa 0,0 l/m 5,5 km/h (1 Bft) W-SW 243 14,5 C 9,4 km/h (2 Bft) 100 %
01.07.2017 16:47 15,1 C 96 % 1008,0 hPa 0,0 l/m 0,7 km/h (0 Bft) W-SW 247 14,5 C 6,3 km/h (2 Bft) 92 %
01.07.2017 16:48 15,1 C 96 % 1008,0 hPa 0,0 l/m 3,5 km/h (1 Bft) W-SW 250 14,5 C 6,3 km/h (2 Bft) 100 %
01.07.2017 16:49 15,1 C 96 % 1008,0 hPa 0,0 l/m 2,5 km/h (1 Bft) W 266 14,5 C 6,3 km/h (2 Bft) 100 %
01.07.2017 16:50 15,1 C 96 % 1008,0 hPa 0,0 l/m 1,4 km/h (1 Bft) W 278 14,5 C 6,3 km/h (2 Bft) 100 %
01.07.2017 16:51 15,1 C 96 % 1008,0 hPa 0,0 l/m 4,8 km/h (1 Bft) SW 220 14,5 C 6,3 km/h (2 Bft) 96 %
01.07.2017 16:52 15,1 C 96 % 1007,9 hPa 0,0 l/m 3,0 km/h (1 Bft) W 262 14,5 C 9,4 km/h (2 Bft) 96 %
01.07.2017 16:53 15,1 C 96 % 1008,0 hPa 0,0 l/m 4,8 km/h (1 Bft) W-NW 300 14,5 C 9,4 km/h (2 Bft) 100 %
01.07.2017 16:54 15,1 C 96 % 1008,0 hPa 0,0 l/m 4,7 km/h (1 Bft) W-NW 302 14,5 C 9,4 km/h (2 Bft) 96 %
01.07.2017 16:55 15,1 C 96 % 1008,0 hPa 0,0 l/m 4,6 km/h (1 Bft) W-NW 298 14,5 C 6,3 km/h (2 Bft) 100 %
01.07.2017 16:56 15,1 C 95 % 1008,0 hPa 0,0 l/m 0,3 km/h (0 Bft) SW 227 14,3 C 3,1 km/h (1 Bft) 92 %
01.07.2017 16:57 15,0 C 96 % 1008,0 hPa 0,0 l/m 2,7 km/h (1 Bft) W-NW 286 14,4 C 3,1 km/h (1 Bft) 100 %
01.07.2017 16:58 15,1 C 96 % 1008,0 hPa 0,0 l/m 3,1 km/h (1 Bft) W-SW 238 14,5 C 6,3 km/h (2 Bft) 96 %
01.07.2017 16:59 15,1 C 96 % 1008,0 hPa 0,0 l/m 0,1 km/h (0 Bft) SW 214 14,5 C 3,1 km/h (1 Bft) 100 %
01.07.2017 17:00 15,1 C 96 % 1008,0 hPa 0,0 l/m 0,8 km/h (0 Bft) W-SW 237 14,5 C 3,1 km/h (1 Bft) 96 %
01.07.2017 17:01 15,1 C 96 % 1008,0 hPa 0,0 l/m 4,4 km/h (1 Bft) W-NW 302 14,5 C 12,6 km/h (3 Bft) 100 %
01.07.2017 17:02 15,1 C 96 % 1008,0 hPa 0,0 l/m 3,8 km/h (1 Bft) SW 236 14,5 C 9,4 km/h (2 Bft) 100 %
01.07.2017 17:03 15,1 C 96 % 1008,0 hPa 0,0 l/m 4,9 km/h (1 Bft) NW 304 14,5 C 6,3 km/h (2 Bft) 100 %
01.07.2017 17:04 15,1 C 96 % 1008,0 hPa 0,0 l/m 4,8 km/h (1 Bft) W-NW 285 14,5 C 12,6 km/h (3 Bft) 100 %
01.07.2017 17:05 15,1 C 96 % 1008,0 hPa 0,0 l/m 2,7 km/h (1 Bft) W 269 14,5 C 6,3 km/h (2 Bft) 100 %
01.07.2017 17:06 15,1 C 96 % 1008,1 hPa 0,0 l/m 7,2 km/h (2 Bft) S-SW 212 14,5 C 9,4 km/h (2 Bft) 100 %
01.07.2017 17:07 15,1 C 96 % 1008,1 hPa 0,0 l/m 1,9 km/h (1 Bft) W-NW 297 14,5 C 3,1 km/h (1 Bft) 100 %
01.07.2017 17:08 15,1 C 96 % 1008,1 hPa 0,0 l/m 4,2 km/h (1 Bft) SW 232 14,5 C 6,3 km/h (2 Bft) 100 %
01.07.2017 17:09 15,1 C 96 % 1008,1 hPa 0,0 l/m 1,8 km/h (1 Bft) W-SW 255 14,5 C 3,1 km/h (1 Bft) 100 %
01.07.2017 17:10 15,1 C 95 % 1008,1 hPa 0,0 l/m 5,6 km/h (1 Bft) W 259 14,3 C 12,6 km/h (3 Bft) 100 %
01.07.2017 17:11 15,1 C 96 % 1008,1 hPa 0,0 l/m 2,8 km/h (1 Bft) NW 309 14,5 C 6,3 km/h (2 Bft) 100 %
01.07.2017 17:12 15,1 C 96 % 1008,1 hPa 0,0 l/m 5,5 km/h (1 Bft) W 278 14,5 C 9,4 km/h (2 Bft) 100 %
01.07.2017 17:13 15,1 C 96 % 1008,2 hPa 0,0 l/m 4,6 km/h (1 Bft) W-NW 290 14,5 C 9,4 km/h (2 Bft) 100 %
01.07.2017 17:14 15,1 C 96 % 1008,1 hPa 0,0 l/m 7,7 km/h (2 Bft) NW 308 14,5 C 12,6 km/h (3 Bft) 100 %
01.07.2017 17:15 15,1 C 96 % 1008,2 hPa 0,0 l/m 8,0 km/h (2 Bft) W-NW 298 14,5 C 12,6 km/h (3 Bft) 100 %
01.07.2017 17:16 15,1 C 96 % 1008,2 hPa 0,0 l/m 3,4 km/h (1 Bft) NW 313 14,5 C 6,3 km/h (2 Bft) 100 %
01.07.2017 17:17 15,1 C 96 % 1008,2 hPa 0,0 l/m 6,3 km/h (2 Bft) W-NW 285 14,5 C 9,4 km/h (2 Bft) 100 %
01.07.2017 17:18 15,1 C 96 % 1008,2 hPa 0,0 l/m 2,7 km/h (1 Bft) SW 214 14,5 C 6,3 km/h (2 Bft) 100 %
01.07.2017 17:19 15,1 C 96 % 1008,2 hPa 0,0 l/m 3,9 km/h (1 Bft) NW 324 14,5 C 9,4 km/h (2 Bft) 100 %
01.07.2017 17:20 15,1 C 96 % 1008,2 hPa 0,0 l/m 4,1 km/h (1 Bft) W 267 14,5 C 12,6 km/h (3 Bft) 100 %
01.07.2017 17:21 15,1 C 96 % 1008,2 hPa 0,0 l/m 6,7 km/h (2 Bft) W-SW 240 14,5 C 15,7 km/h (3 Bft) 100 %
01.07.2017 17:22 15,1 C 96 % 1008,2 hPa 0,0 l/m 3,7 km/h (1 Bft) W 281 14,5 C 9,4 km/h (2 Bft) 100 %
01.07.2017 17:23 15,1 C 96 % 1008,3 hPa 0,0 l/m 5,5 km/h (1 Bft) W 268 14,5 C 9,4 km/h (2 Bft) 100 %
01.07.2017 17:24 15,1 C 96 % 1008,2 hPa 0,0 l/m 1,8 km/h (1 Bft) W 279 14,5 C 6,3 km/h (2 Bft) 100 %
01.07.2017 17:25 15,1 C 96 % 1008,2 hPa 0,0 l/m 2,7 km/h (1 Bft) W-SW 249 14,5 C 6,3 km/h (2 Bft) 100 %
01.07.2017 17:26 15,1 C 96 % 1008,3 hPa 0,0 l/m 12,8 km/h (3 Bft) W-SW 238 14,5 C 18,8 km/h (3 Bft) 100 %
01.07.2017 17:27 15,1 C 95 % 1008,2 hPa 0,0 l/m 5,4 km/h (1 Bft) W-NW 297 14,3 C 9,4 km/h (2 Bft) 100 %
01.07.2017 17:28 15,1 C 96 % 1008,3 hPa 0,0 l/m 2,0 km/h (1 Bft) W-SW 248 14,5 C 9,4 km/h (2 Bft) 100 %
01.07.2017 17:29 15,1 C 96 % 1008,3 hPa 0,0 l/m 7,8 km/h (2 Bft) W-NW 297 14,5 C 12,6 km/h (3 Bft) 100 %
01.07.2017 17:30 15,1 C 96 % 1008,3 hPa 0,0 l/m 4,6 km/h (1 Bft) W 266 14,5 C 9,4 km/h (2 Bft) 100 %
01.07.2017 17:31 15,1 C 96 % 1008,3 hPa 0,0 l/m 1,0 km/h (0 Bft) NW 314 14,5 C 6,3 km/h (2 Bft) 100 %
01.07.2017 17:32 15,1 C 96 % 1008,3 hPa 0,0 l/m 3,0 km/h (1 Bft) SW 219 14,5 C 6,3 km/h (2 Bft) 100 %
01.07.2017 17:33 15,1 C 96 % 1008,3 hPa 0,0 l/m 2,1 km/h (1 Bft) W-NW 295 14,5 C 6,3 km/h (2 Bft) 100 %
01.07.2017 17:34 15,1 C 96 % 1008,3 hPa 0,0 l/m 1,6 km/h (1 Bft) NW 311 14,5 C 6,3 km/h (2 Bft) 100 %
01.07.2017 17:35 15,1 C 96 % 1008,4 hPa 0,0 l/m 5,8 km/h (2 Bft) W 277 14,5 C 9,4 km/h (2 Bft) 100 %
01.07.2017 17:36 15,1 C 96 % 1008,4 hPa 0,0 l/m 4,4 km/h (1 Bft) W-NW 300 14,5 C 9,4 km/h (2 Bft) 100 %
01.07.2017 17:37 15,1 C 96 % 1008,4 hPa 0,0 l/m 1,0 km/h (0 Bft) W-NW 303 14,5 C 3,1 km/h (1 Bft) 100 %
01.07.2017 17:38 15,1 C 96 % 1008,4 hPa 0,0 l/m 0,7 km/h (0 Bft) SW 222 14,5 C 3,1 km/h (1 Bft) 100 %
01.07.2017 17:39 15,1 C 96 % 1008,4 hPa 0,0 l/m 1,6 km/h (1 Bft) W 268 14,5 C 3,1 km/h (1 Bft) 100 %
01.07.2017 17:40 15,2 C 96 % 1008,5 hPa 0,0 l/m 1,7 km/h (1 Bft) W 266 14,6 C 3,1 km/h (1 Bft) 100 %
01.07.2017 17:41 15,2 C 96 % 1008,4 hPa 0,0 l/m 1,7 km/h (1 Bft) SW 219 14,6 C 3,1 km/h (1 Bft) 100 %
01.07.2017 17:42 15,2 C 96 % 1008,4 hPa 0,0 l/m 0,6 km/h (0 Bft) W 279 14,6 C 3,1 km/h (1 Bft) 100 %
01.07.2017 17:43 15,2 C 96 % 1008,4 hPa 0,0 l/m 2,0 km/h (1 Bft) SW 218 14,6 C 3,1 km/h (1 Bft) 100 %
01.07.2017 17:44 15,2 C 96 % 1008,4 hPa 0,0 l/m 3,3 km/h (1 Bft) W-NW 298 14,6 C 6,3 km/h (2 Bft) 100 %
01.07.2017 17:45 15,2 C 96 % 1008,4 hPa 0,0 l/m 0,4 km/h (0 Bft) W 267 14,6 C 3,1 km/h (1 Bft) 100 %
01.07.2017 17:46 15,2 C 96 % 1008,4 hPa 0,0 l/m 0,6 km/h (0 Bft) W-NW 286 14,6 C 3,1 km/h (1 Bft) 100 %
01.07.2017 17:47 15,2 C 96 % 1008,4 hPa 0,0 l/m 0,0 km/h (0 Bft) W-NW 286 14,6 C 0,0 km/h (0 Bft) 93 %
01.07.2017 17:48 15,2 C 96 % 1008,4 hPa 0,0 l/m 0,0 km/h (0 Bft) W-SW 242 14,6 C 0,0 km/h (0 Bft) 100 %
01.07.2017 17:49 15,2 C 96 % 1008,4 hPa 0,0 l/m 0,1 km/h (0 Bft) SW 234 14,6 C 3,1 km/h (1 Bft) 100 %
01.07.2017 17:50 15,2 C 96 % 1008,4 hPa 0,0 l/m 0,9 km/h (0 Bft) W 264 14,6 C 3,1 km/h (1 Bft) 96 %
01.07.2017 17:51 15,2 C 96 % 1008,5 hPa 0,0 l/m 0,1 km/h (0 Bft) W 277 14,6 C 3,1 km/h (1 Bft) 93 %
01.07.2017 17:52 15,2 C 96 % 1008,4 hPa 0,0 l/m 0,3 km/h (0 Bft) W 277 14,6 C 3,1 km/h (1 Bft) 100 %
01.07.2017 17:53 15,2 C 96 % 1008,4 hPa 0,0 l/m 1,8 km/h (1 Bft) W-SW 256 14,6 C 6,3 km/h (2 Bft) 96 %
01.07.2017 17:54 15,2 C 96 % 1008,5 hPa 0,0 l/m 2,9 km/h (1 Bft) W-NW 282 14,6 C 6,3 km/h (2 Bft) 100 %
01.07.2017 17:55 15,2 C 96 % 1008,4 hPa 0,0 l/m 2,0 km/h (1 Bft) SW 229 14,6 C 6,3 km/h (2 Bft) 100 %
01.07.2017 17:56 15,2 C 96 % 1008,5 hPa 0,0 l/m 0,3 km/h (0 Bft) SW 230 14,6 C 3,1 km/h (1 Bft) 97 %
01.07.2017 17:57 15,2 C 96 % 1008,5 hPa 0,0 l/m 2,1 km/h (1 Bft) W-NW 298 14,6 C 3,1 km/h (1 Bft) 96 %
01.07.2017 17:58 15,2 C 96 % 1008,5 hPa 0,2 l/m 0,9 km/h (0 Bft) W 267 14,6 C 3,1 km/h (1 Bft) 100 %
01.07.2017 17:59 15,2 C 96 % 1008,5 hPa 0,0 l/m 1,7 km/h (1 Bft) SW 214 14,6 C 3,1 km/h (1 Bft) 96 %
01.07.2017 18:00 15,2 C 96 % 1008,6 hPa 0,0 l/m 0,0 km/h (0 Bft) SW 214 14,6 C 0,0 km/h (0 Bft) 100 %
01.07.2017 18:01 15,2 C 96 % 1008,5 hPa 0,2 l/m 1,1 km/h (1 Bft) SW 224 14,6 C 6,3 km/h (2 Bft) 96 %
01.07.2017 18:02 15,2 C 96 % 1008,5 hPa 0,0 l/m 3,9 km/h (1 Bft) W-SW 238 14,6 C 6,3 km/h (2 Bft) 100 %
01.07.2017 18:03 15,2 C 96 % 1008,5 hPa 0,0 l/m 2,7 km/h (1 Bft) W-NW 291 14,6 C 3,1 km/h (1 Bft) 100 %
01.07.2017 18:04 15,2 C 96 % 1008,5 hPa 0,2 l/m 0,4 km/h (0 Bft) W-SW 249 14,6 C 3,1 km/h (1 Bft) 100 %
01.07.2017 18:05 15,2 C 96 % 1008,5 hPa 0,0 l/m 0,0 km/h (0 Bft) W-SW 253 14,6 C 0,0 km/h (0 Bft) 100 %
01.07.2017 18:06 15,3 C 96 % 1008,4 hPa 0,0 l/m 3,7 km/h (1 Bft) W-NW 292 14,7 C 9,4 km/h (2 Bft) 100 %
01.07.2017 18:07 15,2 C 96 % 1008,4 hPa 0,0 l/m 1,7 km/h (1 Bft) W-SW 258 14,6 C 3,1 km/h (1 Bft) 100 %
01.07.2017 18:08 15,2 C 96 % 1008,5 hPa 0,2 l/m 0,5 km/h (0 Bft) W-SW 256 14,6 C 3,1 km/h (1 Bft) 100 %
01.07.2017 18:09 15,2 C 96 % 1008,5 hPa 0,0 l/m 0,4 km/h (0 Bft) W-SW 258 14,6 C 3,1 km/h (1 Bft) 100 %
01.07.2017 18:10 15,2 C 96 % 1008,5 hPa 0,0 l/m 0,8 km/h (0 Bft) W 262 14,6 C 3,1 km/h (1 Bft) 100 %
01.07.2017 18:11 15,2 C 96 % 1008,5 hPa 0,0 l/m 2,5 km/h (1 Bft) W 276 14,6 C 3,1 km/h (1 Bft) 100 %
01.07.2017 18:12 15,2 C 96 % 1008,5 hPa 0,0 l/m 1,3 km/h (1 Bft) SW 220 14,6 C 9,4 km/h (2 Bft) 100 %
01.07.2017 18:13 15,2 C 96 % 1008,5 hPa 0,0 l/m 3,7 km/h (1 Bft) W 281 14,6 C 6,3 km/h (2 Bft) 100 %
01.07.2017 18:14 15,2 C 96 % 1008,5 hPa 0,0 l/m 3,5 km/h (1 Bft) W-NW 303 14,6 C 6,3 km/h (2 Bft) 100 %
01.07.2017 18:15 15,2 C 96 % 1008,5 hPa 0,0 l/m 3,1 km/h (1 Bft) SW 233 14,6 C 6,3 km/h (2 Bft) 100 %
01.07.2017 18:16 15,2 C 96 % 1008,6 hPa 0,0 l/m 2,9 km/h (1 Bft) W-NW 285 14,6 C 3,1 km/h (1 Bft) 100 %
01.07.2017 18:17 15,2 C 96 % 1008,5 hPa 0,0 l/m 2,7 km/h (1 Bft) W-NW 294 14,6 C 3,1 km/h (1 Bft) 100 %
01.07.2017 18:18 15,2 C 96 % 1008,6 hPa 0,0 l/m 2,1 km/h (1 Bft) W-SW 257 14,6 C 6,3 km/h (2 Bft) 100 %
01.07.2017 18:19 15,2 C 96 % 1008,6 hPa 0,0 l/m 1,2 km/h (1 Bft) W-SW 252 14,6 C 3,1 km/h (1 Bft) 100 %
01.07.2017 18:20 15,2 C 96 % 1008,6 hPa 0,0 l/m 1,8 km/h (1 Bft) W 267 14,6 C 3,1 km/h (1 Bft) 100 %
01.07.2017 18:21 15,2 C 96 % 1008,6 hPa 0,0 l/m 0,8 km/h (0 Bft) W 268 14,6 C 3,1 km/h (1 Bft) 100 %
01.07.2017 18:22 15,2 C 96 % 1008,7 hPa 0,0 l/m 3,0 km/h (1 Bft) SW 230 14,6 C 9,4 km/h (2 Bft) 100 %
01.07.2017 18:23 15,2 C 96 % 1008,6 hPa 0,0 l/m 2,2 km/h (1 Bft) W-NW 298 14,6 C 6,3 km/h (2 Bft) 100 %
01.07.2017 18:24 15,2 C 96 % 1008,6 hPa 0,0 l/m 3,5 km/h (1 Bft) W-NW 284 14,6 C 6,3 km/h (2 Bft) 100 %
01.07.2017 18:26 15,1 C 96 % 1008,6 hPa 0,0 l/m 1,5 km/h (1 Bft) W 272 14,5 C 3,1 km/h (1 Bft) 100 %
01.07.2017 18:27 15,1 C 97 % 1008,6 hPa 0,0 l/m 3,8 km/h (1 Bft) W-NW 293 14,6 C 6,3 km/h (2 Bft) 100 %
01.07.2017 18:28 15,1 C 96 % 1008,7 hPa 0,0 l/m 2,0 km/h (1 Bft) SW 224 14,5 C 6,3 km/h (2 Bft) 100 %
01.07.2017 18:29 15,1 C 97 % 1008,7 hPa 0,0 l/m 1,0 km/h (0 Bft) NW 305 14,6 C 6,3 km/h (2 Bft) 100 %
01.07.2017 18:30 15,1 C 97 % 1008,7 hPa 0,0 l/m 1,3 km/h (1 Bft) W-SW 243 14,6 C 3,1 km/h (1 Bft) 100 %
01.07.2017 18:31 15,1 C 97 % 1008,7 hPa 0,0 l/m 4,4 km/h (1 Bft) W 281 14,6 C 9,4 km/h (2 Bft) 100 %
01.07.2017 18:32 15,1 C 97 % 1008,7 hPa 0,0 l/m 5,5 km/h (1 Bft) SW 226 14,6 C 12,6 km/h (3 Bft) 100 %
01.07.2017 18:33 15,1 C 97 % 1008,7 hPa 0,0 l/m 5,3 km/h (1 Bft) NW 326 14,6 C 12,6 km/h (3 Bft) 100 %
01.07.2017 18:34 15,1 C 97 % 1008,7 hPa 0,0 l/m 3,1 km/h (1 Bft) W 268 14,6 C 6,3 km/h (2 Bft) 100 %
01.07.2017 18:35 15,1 C 97 % 1008,7 hPa 0,0 l/m 5,5 km/h (1 Bft) W 279 14,6 C 9,4 km/h (2 Bft) 100 %
01.07.2017 18:36 15,1 C 97 % 1008,7 hPa 0,0 l/m 4,6 km/h (1 Bft) W 280 14,6 C 9,4 km/h (2 Bft) 100 %
01.07.2017 18:37 15,1 C 97 % 1008,7 hPa 0,0 l/m 2,4 km/h (1 Bft) W-NW 288 14,6 C 6,3 km/h (2 Bft) 100 %
01.07.2017 18:38 15,1 C 97 % 1008,7 hPa 0,0 l/m 3,5 km/h (1 Bft) W 270 14,6 C 6,3 km/h (2 Bft) 100 %
01.07.2017 18:39 15,1 C 97 % 1008,7 hPa 0,0 l/m 2,7 km/h (1 Bft) W-NW 285 14,6 C 6,3 km/h (2 Bft) 100 %
01.07.2017 18:40 15,1 C 97 % 1008,7 hPa 0,0 l/m 2,6 km/h (1 Bft) SW 229 14,6 C 6,3 km/h (2 Bft) 100 %
01.07.2017 18:41 15,1 C 97 % 1008,8 hPa 0,0 l/m 0,3 km/h (0 Bft) W-SW 250 14,6 C 3,1 km/h (1 Bft) 100 %
01.07.2017 18:42 15,1 C 97 % 1008,8 hPa 0,0 l/m 0,1 km/h (0 Bft) W 271 14,6 C 3,1 km/h (1 Bft) 100 %
01.07.2017 18:43 15,1 C 97 % 1008,8 hPa 0,0 l/m 0,0 km/h (0 Bft) S-SW 209 14,6 C 0,0 km/h (0 Bft) 100 %
01.07.2017 18:44 15,1 C 97 % 1008,8 hPa 0,0 l/m 1,8 km/h (1 Bft) W 278 14,6 C 3,1 km/h (1 Bft) 100 %
01.07.2017 18:45 15,1 C 97 % 1008,8 hPa 0,0 l/m 3,5 km/h (1 Bft) W-NW 295 14,6 C 6,3 km/h (2 Bft) 100 %
01.07.2017 18:46 15,1 C 97 % 1008,8 hPa 0,0 l/m 5,1 km/h (1 Bft) S-SW 198 14,6 C 9,4 km/h (2 Bft) 100 %
01.07.2017 18:47 15,1 C 97 % 1008,8 hPa 0,0 l/m 1,6 km/h (1 Bft) NW 308 14,6 C 6,3 km/h (2 Bft) 100 %
01.07.2017 18:48 15,1 C 97 % 1008,8 hPa 0,0 l/m 0,0 km/h (0 Bft) W-SW 251 14,6 C 0,0 km/h (0 Bft) 100 %
01.07.2017 18:49 15,1 C 97 % 1008,8 hPa 0,0 l/m 0,8 km/h (0 Bft) W 261 14,6 C 3,1 km/h (1 Bft) 100 %
01.07.2017 18:50 15,1 C 97 % 1008,8 hPa 0,0 l/m 1,4 km/h (1 Bft) W 266 14,6 C 3,1 km/h (1 Bft) 100 %
01.07.2017 18:51 15,1 C 97 % 1008,9 hPa 0,0 l/m 2,7 km/h (1 Bft) W-NW 290 14,6 C 3,1 km/h (1 Bft) 100 %
01.07.2017 18:52 15,1 C 97 % 1008,9 hPa 0,0 l/m 3,8 km/h (1 Bft) W-NW 282 14,6 C 6,3 km/h (2 Bft) 92 %
01.07.2017 18:53 15,1 C 97 % 1008,9 hPa 0,0 l/m 2,8 km/h (1 Bft) W-NW 301 14,6 C 3,1 km/h (1 Bft) 100 %
01.07.2017 18:54 15,1 C 97 % 1008,9 hPa 0,0 l/m 3,1 km/h (1 Bft) W-SW 248 14,6 C 6,3 km/h (2 Bft) 96 %
01.07.2017 18:55 15,1 C 97 % 1008,9 hPa 0,0 l/m 0,4 km/h (0 Bft) W-NW 297 14,6 C 3,1 km/h (1 Bft) 100 %
01.07.2017 18:56 15,1 C 97 % 1008,9 hPa 0,2 l/m 0,0 km/h (0 Bft) W-NW 297 14,6 C 0,0 km/h (0 Bft) 96 %
01.07.2017 18:57 15,1 C 97 % 1008,9 hPa 0,0 l/m 1,4 km/h (1 Bft) NW 309 14,6 C 3,1 km/h (1 Bft) 100 %
01.07.2017 18:58 15,2 C 97 % 1008,9 hPa 0,0 l/m 1,0 km/h (0 Bft) NW 306 14,7 C 3,1 km/h (1 Bft) 92 %
01.07.2017 18:59 15,2 C 97 % 1008,9 hPa 0,0 l/m 0,0 km/h (0 Bft) SW 231 14,7 C 0,0 km/h (0 Bft) 100 %
01.07.2017 19:00 15,2 C 97 % 1009,0 hPa 0,0 l/m 1,2 km/h (1 Bft) W 276 14,7 C 3,1 km/h (1 Bft) 96 %
01.07.2017 19:01 15,2 C 97 % 1009,0 hPa 0,0 l/m 1,4 km/h (1 Bft) W-SW 248 14,7 C 6,3 km/h (2 Bft) 96 %
01.07.2017 19:02 15,2 C 97 % 1009,0 hPa 0,0 l/m 0,1 km/h (0 Bft) W-SW 250 14,7 C 3,1 km/h (1 Bft) 100 %
01.07.2017 19:03 15,2 C 97 % 1009,0 hPa 0,0 l/m 1,2 km/h (1 Bft) W-SW 243 14,7 C 3,1 km/h (1 Bft) 100 %
01.07.2017 19:04 15,2 C 97 % 1009,0 hPa 0,0 l/m 1,8 km/h (1 Bft) S-SW 206 14,7 C 6,3 km/h (2 Bft) 97 %
01.07.2017 19:05 15,2 C 97 % 1009,0 hPa 0,0 l/m 1,8 km/h (1 Bft) W 260 14,7 C 6,3 km/h (2 Bft) 100 %
01.07.2017 19:06 15,2 C 97 % 1009,0 hPa 0,0 l/m 1,1 km/h (1 Bft) W 269 14,7 C 3,1 km/h (1 Bft) 100 %
01.07.2017 19:07 15,2 C 97 % 1009,0 hPa 0,0 l/m 1,3 km/h (1 Bft) W-NW 295 14,7 C 3,1 km/h (1 Bft) 100 %
01.07.2017 19:08 15,2 C 97 % 1009,0 hPa 0,0 l/m 5,2 km/h (1 Bft) W-NW 288 14,7 C 6,3 km/h (2 Bft) 100 %
01.07.2017 19:09 15,2 C 97 % 1009,0 hPa 0,0 l/m 4,6 km/h (1 Bft) W-NW 300 14,7 C 9,4 km/h (2 Bft) 100 %
01.07.2017 19:10 15,2 C 97 % 1009,1 hPa 0,0 l/m 3,7 km/h (1 Bft) W 281 14,7 C 6,3 km/h (2 Bft) 100 %
01.07.2017 19:11 15,2 C 97 % 1009,1 hPa 0,0 l/m 2,3 km/h (1 Bft) W 280 14,7 C 6,3 km/h (2 Bft) 100 %
01.07.2017 19:12 15,2 C 97 % 1009,1 hPa 0,0 l/m 1,9 km/h (1 Bft) W-SW 255 14,7 C 6,3 km/h (2 Bft) 100 %
01.07.2017 19:13 15,2 C 97 % 1009,1 hPa 0,0 l/m 2,0 km/h (1 Bft) W 261 14,7 C 6,3 km/h (2 Bft) 100 %
01.07.2017 19:14 15,2 C 97 % 1009,1 hPa 0,0 l/m 0,7 km/h (0 Bft) SW 233 14,7 C 3,1 km/h (1 Bft) 100 %
01.07.2017 19:15 15,2 C 97 % 1009,2 hPa 0,0 l/m 3,7 km/h (1 Bft) W-NW 288 14,7 C 12,6 km/h (3 Bft) 100 %
01.07.2017 19:16 15,2 C 97 % 1009,2 hPa 0,0 l/m 6,0 km/h (2 Bft) W-NW 292 14,7 C 9,4 km/h (2 Bft) 100 %
01.07.2017 19:17 15,2 C 97 % 1009,2 hPa 0,0 l/m 5,6 km/h (1 Bft) W-NW 297 14,7 C 9,4 km/h (2 Bft) 100 %
01.07.2017 19:18 15,2 C 97 % 1009,2 hPa 0,0 l/m 2,7 km/h (1 Bft) W-NW 296 14,7 C 6,3 km/h (2 Bft) 100 %
01.07.2017 19:19 15,2 C 97 % 1009,2 hPa 0,0 l/m 4,6 km/h (1 Bft) SW 214 14,7 C 9,4 km/h (2 Bft) 100 %
01.07.2017 19:20 15,2 C 97 % 1009,2 hPa 0,0 l/m 4,6 km/h (1 Bft) S-SW 195 14,7 C 9,4 km/h (2 Bft) 100 %
01.07.2017 19:21 15,2 C 97 % 1009,2 hPa 0,0 l/m 1,6 km/h (1 Bft) W-SW 251 14,7 C 6,3 km/h (2 Bft) 100 %
01.07.2017 19:22 15,2 C 97 % 1009,3 hPa 0,0 l/m 1,6 km/h (1 Bft) N-NW 328 14,7 C 6,3 km/h (2 Bft) 100 %
01.07.2017 19:23 15,2 C 97 % 1009,3 hPa 0,0 l/m 1,8 km/h (1 Bft) W-NW 283 14,7 C 6,3 km/h (2 Bft) 100 %
01.07.2017 19:24 15,2 C 97 % 1009,3 hPa 0,0 l/m 2,2 km/h (1 Bft) SW 222 14,7 C 6,3 km/h (2 Bft) 100 %
01.07.2017 19:25 15,2 C 97 % 1009,3 hPa 0,0 l/m 3,3 km/h (1 Bft) W-NW 285 14,7 C 6,3 km/h (2 Bft) 100 %
01.07.2017 19:26 15,2 C 97 % 1009,3 hPa 0,0 l/m 4,9 km/h (1 Bft) W 276 14,7 C 12,6 km/h (3 Bft) 100 %
01.07.2017 19:27 15,2 C 97 % 1009,4 hPa 0,0 l/m 6,4 km/h (2 Bft) NW 312 14,7 C 15,7 km/h (3 Bft) 100 %
01.07.2017 19:28 15,2 C 97 % 1009,4 hPa 0,0 l/m 1,7 km/h (1 Bft) NO 44 14,7 C 6,3 km/h (2 Bft) 100 %
01.07.2017 19:29 15,1 C 97 % 1009,4 hPa 0,0 l/m 0,4 km/h (0 Bft) O-NO 72 14,6 C 3,1 km/h (1 Bft) 100 %
01.07.2017 19:30 15,1 C 97 % 1009,4 hPa 0,0 l/m 0,7 km/h (0 Bft) O-NO 63 14,6 C 3,1 km/h (1 Bft) 100 %
01.07.2017 19:31 15,1 C 97 % 1009,4 hPa 0,0 l/m 0,8 km/h (0 Bft) W 275 14,6 C 3,1 km/h (1 Bft) 100 %
01.07.2017 19:32 15,2 C 97 % 1009,4 hPa 0,0 l/m 1,5 km/h (1 Bft) W-NW 298 14,7 C 3,1 km/h (1 Bft) 100 %
01.07.2017 19:33 15,2 C 97 % 1009,4 hPa 0,0 l/m 2,2 km/h (1 Bft) W-NW 282 14,7 C 6,3 km/h (2 Bft) 100 %
01.07.2017 19:34 15,2 C 97 % 1009,5 hPa 0,0 l/m 5,1 km/h (1 Bft) W-SW 243 14,7 C 9,4 km/h (2 Bft) 100 %
01.07.2017 19:35 15,1 C 97 % 1009,5 hPa 0,0 l/m 1,0 km/h (0 Bft) O 92 14,6 C 6,3 km/h (2 Bft) 100 %
01.07.2017 19:36 15,1 C 97 % 1009,5 hPa 0,0 l/m 0,2 km/h (0 Bft) S-SW 212 14,6 C 3,1 km/h (1 Bft) 100 %
01.07.2017 19:37 15,1 C 96 % 1009,5 hPa 0,0 l/m 5,6 km/h (1 Bft) W-NW 293 14,5 C 12,6 km/h (3 Bft) 100 %
01.07.2017 19:38 15,1 C 96 % 1009,5 hPa 0,0 l/m 3,4 km/h (1 Bft) W-NW 295 14,5 C 9,4 km/h (2 Bft) 100 %
01.07.2017 19:39 15,1 C 96 % 1009,6 hPa 0,0 l/m 2,1 km/h (1 Bft) NW 310 14,5 C 6,3 km/h (2 Bft) 100 %
01.07.2017 19:40 15,1 C 96 % 1009,6 hPa 0,0 l/m 5,9 km/h (2 Bft) S-SW 195 14,5 C 12,6 km/h (3 Bft) 100 %
01.07.2017 19:41 15,1 C 96 % 1009,6 hPa 0,0 l/m 0,0 km/h (0 Bft) W 266 14,5 C 0,0 km/h (0 Bft) 100 %
01.07.2017 19:42 15,1 C 96 % 1009,6 hPa 0,0 l/m 2,5 km/h (1 Bft) NW 309 14,5 C 6,3 km/h (2 Bft) 100 %
01.07.2017 19:43 15,1 C 96 % 1009,6 hPa 0,0 l/m 3,3 km/h (1 Bft) W-NW 295 14,5 C 9,4 km/h (2 Bft) 100 %
01.07.2017 19:44 15,1 C 96 % 1009,6 hPa 0,0 l/m 2,1 km/h (1 Bft) W-SW 240 14,5 C 9,4 km/h (2 Bft) 100 %
01.07.2017 19:45 15,1 C 96 % 1009,6 hPa 0,0 l/m 3,5 km/h (1 Bft) NW 320 14,5 C 6,3 km/h (2 Bft) 100 %
01.07.2017 19:46 15,1 C 96 % 1009,6 hPa 0,0 l/m 4,6 km/h (1 Bft) W-NW 288 14,5 C 12,6 km/h (3 Bft) 100 %
01.07.2017 19:47 15,1 C 96 % 1009,6 hPa 0,0 l/m 5,2 km/h (1 Bft) W-NW 288 14,5 C 9,4 km/h (2 Bft) 100 %
01.07.2017 19:48 15,1 C 96 % 1009,7 hPa 0,0 l/m 2,2 km/h (1 Bft) W-SW 258 14,5 C 6,3 km/h (2 Bft) 100 %
01.07.2017 19:49 15,1 C 96 % 1009,6 hPa 0,0 l/m 2,2 km/h (1 Bft) W-NW 283 14,5 C 9,4 km/h (2 Bft) 100 %
01.07.2017 19:50 15,1 C 96 % 1009,6 hPa 0,0 l/m 3,8 km/h (1 Bft) W-NW 293 14,5 C 12,6 km/h (3 Bft) 100 %
01.07.2017 19:51 15,1 C 95 % 1009,6 hPa 0,0 l/m 4,5 km/h (1 Bft) W-NW 294 14,3 C 9,4 km/h (2 Bft) 100 %
01.07.2017 19:52 15,1 C 95 % 1009,6 hPa 0,0 l/m 6,1 km/h (2 Bft) W-NW 289 14,3 C 9,4 km/h (2 Bft) 95 %
01.07.2017 19:53 15,1 C 95 % 1009,7 hPa 0,0 l/m 3,8 km/h (1 Bft) W-NW 297 14,3 C 9,4 km/h (2 Bft) 96 %
01.07.2017 19:54 15,1 C 95 % 1009,8 hPa 0,0 l/m 5,2 km/h (1 Bft) W-NW 290 14,3 C 12,6 km/h (3 Bft) 100 %
01.07.2017 19:55 15,1 C 95 % 1009,7 hPa 0,0 l/m 2,7 km/h (1 Bft) W-SW 253 14,3 C 6,3 km/h (2 Bft) 96 %
01.07.2017 19:56 15,1 C 95 % 1009,8 hPa 0,0 l/m 2,2 km/h (1 Bft) W-SW 252 14,3 C 9,4 km/h (2 Bft) 100 %
01.07.2017 19:57 15,1 C 95 % 1009,8 hPa 0,0 l/m 7,7 km/h (2 Bft) NW 321 14,3 C 18,8 km/h (3 Bft) 92 %
01.07.2017 19:59 15,1 C 95 % 1009,8 hPa 0,0 l/m 3,5 km/h (1 Bft) W 276 14,3 C 9,4 km/h (2 Bft) 98 %
01.07.2017 20:00 15,1 C 95 % 1009,8 hPa 0,0 l/m 3,3 km/h (1 Bft) W-SW 245 14,3 C 6,3 km/h (2 Bft) 100 %
01.07.2017 20:02 15,1 C 95 % 1009,8 hPa 0,0 l/m 0,1 km/h (0 Bft) SW 234 14,3 C 3,1 km/h (1 Bft) 96 %
01.07.2017 20:03 15,1 C 95 % 1009,9 hPa 0,0 l/m 1,8 km/h (1 Bft) W-NW 300 14,3 C 6,3 km/h (2 Bft) 100 %
01.07.2017 20:04 15,1 C 95 % 1009,9 hPa 0,0 l/m 2,8 km/h (1 Bft) W-SW 249 14,3 C 6,3 km/h (2 Bft) 100 %
01.07.2017 20:05 15,1 C 95 % 1009,9 hPa 0,0 l/m 0,0 km/h (0 Bft) W-SW 246 14,3 C 0,0 km/h (0 Bft) 96 %
01.07.2017 20:07 15,1 C 95 % 1009,9 hPa 0,0 l/m 1,5 km/h (1 Bft) W-SW 240 14,3 C 6,3 km/h (2 Bft) 100 %
01.07.2017 20:08 15,1 C 95 % 1009,9 hPa 0,0 l/m 5,9 km/h (2 Bft) NW 305 14,3 C 12,6 km/h (3 Bft) 100 %
01.07.2017 20:09 15,1 C 95 % 1009,9 hPa 0,0 l/m 5,4 km/h (1 Bft) W-NW 289 14,3 C 9,4 km/h (2 Bft) 100 %
01.07.2017 20:10 15,1 C 95 % 1010,0 hPa 0,0 l/m 0,5 km/h (0 Bft) W 281 14,3 C 3,1 km/h (1 Bft) 100 %
01.07.2017 20:11 15,1 C 95 % 1010,0 hPa 0,0 l/m 3,9 km/h (1 Bft) NW 309 14,3 C 12,6 km/h (3 Bft) 100 %
01.07.2017 20:12 15,1 C 95 % 1010,0 hPa 0,0 l/m 4,9 km/h (1 Bft) W-NW 299 14,3 C 9,4 km/h (2 Bft) 100 %
01.07.2017 20:13 15,1 C 95 % 1010,0 hPa 0,0 l/m 1,8 km/h (1 Bft) W-NW 288 14,3 C 6,3 km/h (2 Bft) 100 %
01.07.2017 20:14 15,1 C 95 % 1010,0 hPa 0,0 l/m 2,6 km/h (1 Bft) W-NW 290 14,3 C 9,4 km/h (2 Bft) 100 %
01.07.2017 20:15 15,1 C 95 % 1010,0 hPa 0,0 l/m 3,0 km/h (1 Bft) W-SW 251 14,3 C 9,4 km/h (2 Bft) 100 %
01.07.2017 20:16 15,1 C 95 % 1010,1 hPa 0,0 l/m 5,3 km/h (1 Bft) W-NW 297 14,3 C 12,6 km/h (3 Bft) 100 %
01.07.2017 20:17 15,1 C 95 % 1010,1 hPa 0,0 l/m 0,3 km/h (0 Bft) O 81 14,3 C 3,1 km/h (1 Bft) 100 %
01.07.2017 20:18 15,1 C 95 % 1010,1 hPa 0,0 l/m 0,3 km/h (0 Bft) NW 314 14,3 C 3,1 km/h (1 Bft) 100 %
01.07.2017 20:19 15,1 C 95 % 1010,1 hPa 0,0 l/m 0,3 km/h (0 Bft) NW 311 14,3 C 3,1 km/h (1 Bft) 100 %
01.07.2017 20:20 15,1 C 95 % 1010,1 hPa 0,0 l/m 0,1 km/h (0 Bft) O-NO 72 14,3 C 3,1 km/h (1 Bft) 100 %
01.07.2017 20:21 15,1 C 95 % 1010,1 hPa 0,0 l/m 2,5 km/h (1 Bft) N 8 14,3 C 6,3 km/h (2 Bft) 100 %
01.07.2017 20:22 15,1 C 95 % 1010,1 hPa 0,0 l/m 1,7 km/h (1 Bft) W-NW 297 14,3 C 6,3 km/h (2 Bft) 100 %
01.07.2017 20:23 15,1 C 95 % 1010,1 hPa 0,0 l/m 2,5 km/h (1 Bft) NW 315 14,3 C 6,3 km/h (2 Bft) 100 %
01.07.2017 20:25 15,1 C 95 % 1010,1 hPa 0,0 l/m 0,9 km/h (0 Bft) NO 37 14,3 C 3,1 km/h (1 Bft) 100 %
01.07.2017 20:26 15,1 C 95 % 1010,1 hPa 0,0 l/m 0,0 km/h (0 Bft) NW 308 14,3 C 0,0 km/h (0 Bft) 100 %
01.07.2017 20:27 15,1 C 95 % 1010,2 hPa 0,0 l/m 3,1 km/h (1 Bft) W-NW 296 14,3 C 9,4 km/h (2 Bft) 100 %
01.07.2017 20:29 15,1 C 95 % 1010,2 hPa 0,0 l/m 2,1 km/h (1 Bft) W-SW 250 14,3 C 6,3 km/h (2 Bft) 100 %
01.07.2017 20:30 15,1 C 95 % 1010,2 hPa 0,0 l/m 0,3 km/h (0 Bft) W-NW 293 14,3 C 3,1 km/h (1 Bft) 100 %
01.07.2017 20:31 15,1 C 95 % 1010,2 hPa 0,0 l/m 2,9 km/h (1 Bft) W-NW 287 14,3 C 6,3 km/h (2 Bft) 100 %
01.07.2017 20:32 15,1 C 95 % 1010,3 hPa 0,0 l/m 3,0 km/h (1 Bft) W 279 14,3 C 6,3 km/h (2 Bft) 100 %
01.07.2017 20:33 15,1 C 95 % 1010,3 hPa 0,0 l/m 0,8 km/h (0 Bft) SW 218 14,3 C 3,1 km/h (1 Bft) 100 %
01.07.2017 20:34 15,0 C 95 % 1010,2 hPa 0,0 l/m 2,2 km/h (1 Bft) W 261 14,2 C 6,3 km/h (2 Bft) 100 %
01.07.2017 20:36 15,0 C 95 % 1010,2 hPa 0,0 l/m 1,4 km/h (1 Bft) O-NO 78 14,2 C 9,4 km/h (2 Bft) 100 %
01.07.2017 20:37 15,0 C 95 % 1010,3 hPa 0,0 l/m 0,0 km/h (0 Bft) O 80 14,2 C 0,0 km/h (0 Bft) 100 %
01.07.2017 20:39 15,0 C 96 % 1010,4 hPa 0,0 l/m 0,3 km/h (0 Bft) NO 42 14,4 C 3,1 km/h (1 Bft) 100 %
01.07.2017 20:40 15,0 C 96 % 1010,3 hPa 0,0 l/m 0,1 km/h (0 Bft) W-NW 284 14,4 C 3,1 km/h (1 Bft) 100 %
01.07.2017 20:42 15,0 C 96 % 1010,4 hPa 0,0 l/m 2,4 km/h (1 Bft) W-SW 252 14,4 C 6,3 km/h (2 Bft) 100 %
01.07.2017 20:43 15,0 C 96 % 1010,3 hPa 0,0 l/m 3,6 km/h (1 Bft) W-SW 258 14,4 C 6,3 km/h (2 Bft) 100 %
01.07.2017 20:44 15,0 C 96 % 1010,4 hPa 0,0 l/m 4,4 km/h (1 Bft) W-NW 297 14,4 C 9,4 km/h (2 Bft) 100 %
01.07.2017 20:45 14,9 C 96 % 1010,4 hPa 0,0 l/m 0,4 km/h (0 Bft) W-NW 298 14,3 C 3,1 km/h (1 Bft) 100 %
01.07.2017 20:46 15,0 C 96 % 1010,4 hPa 0,0 l/m 1,6 km/h (1 Bft) W 275 14,4 C 3,1 km/h (1 Bft) 100 %
01.07.2017 20:47 15,0 C 96 % 1010,4 hPa 0,0 l/m 1,1 km/h (1 Bft) W 280 14,4 C 3,1 km/h (1 Bft) 100 %
01.07.2017 20:48 15,0 C 96 % 1010,4 hPa 0,0 l/m 0,4 km/h (0 Bft) W 280 14,4 C 3,1 km/h (1 Bft) 100 %
01.07.2017 20:49 15,0 C 96 % 1010,5 hPa 0,0 l/m 0,1 km/h (0 Bft) W 280 14,4 C 3,1 km/h (1 Bft) 100 %
01.07.2017 20:50 15,0 C 96 % 1010,5 hPa 0,0 l/m 0,0 km/h (0 Bft) W 280 14,4 C 0,0 km/h (0 Bft) 100 %
01.07.2017 20:51 15,0 C 96 % 1010,5 hPa 0,0 l/m 0,0 km/h (0 Bft) W 280 14,4 C 0,0 km/h (0 Bft) 100 %
01.07.2017 20:52 15,1 C 96 % 1010,6 hPa 0,0 l/m 1,7 km/h (1 Bft) W-NW 300 14,5 C 6,3 km/h (2 Bft) 92 %
01.07.2017 20:53 15,1 C 96 % 1010,6 hPa 0,0 l/m 1,4 km/h (1 Bft) W-SW 237 14,5 C 6,3 km/h (2 Bft) 96 %
01.07.2017 20:54 15,1 C 96 % 1010,6 hPa 0,0 l/m 1,1 km/h (1 Bft) W 264 14,5 C 3,1 km/h (1 Bft) 100 %
01.07.2017 20:55 15,1 C 96 % 1010,6 hPa 0,0 l/m 0,0 km/h (0 Bft) W 264 14,5 C 0,0 km/h (0 Bft) 100 %
01.07.2017 20:56 15,1 C 96 % 1010,6 hPa 0,0 l/m 0,0 km/h (0 Bft) W 264 14,5 C 0,0 km/h (0 Bft) 96 %
01.07.2017 20:57 15,1 C 96 % 1010,6 hPa 0,0 l/m 2,4 km/h (1 Bft) W-NW 303 14,5 C 6,3 km/h (2 Bft) 100 %
01.07.2017 20:58 15,1 C 96 % 1010,7 hPa 0,0 l/m 3,3 km/h (1 Bft) W 265 14,5 C 6,3 km/h (2 Bft) 96 %
01.07.2017 20:59 15,1 C 96 % 1010,7 hPa 0,0 l/m 1,9 km/h (1 Bft) W-NW 285 14,5 C 3,1 km/h (1 Bft) 100 %
01.07.2017 21:00 15,1 C 96 % 1010,6 hPa 0,0 l/m 0,1 km/h (0 Bft) W 276 14,5 C 3,1 km/h (1 Bft) 96 %
01.07.2017 21:01 15,1 C 96 % 1010,7 hPa 0,0 l/m 0,0 km/h (0 Bft) W 276 14,5 C 0,0 km/h (0 Bft) 96 %
01.07.2017 21:02 15,1 C 96 % 1010,7 hPa 0,0 l/m 0,0 km/h (0 Bft) W 276 14,5 C 0,0 km/h (0 Bft) 96 %
01.07.2017 21:03 15,1 C 96 % 1010,7 hPa 0,0 l/m 0,0 km/h (0 Bft) W 276 14,5 C 0,0 km/h (0 Bft) 100 %
01.07.2017 21:04 15,1 C 96 % 1010,7 hPa 0,0 l/m 0,5 km/h (0 Bft) W-SW 249 14,5 C 3,1 km/h (1 Bft) 96 %
01.07.2017 21:05 15,1 C 96 % 1010,7 hPa 0,0 l/m 3,3 km/h (1 Bft) W-NW 293 14,5 C 6,3 km/h (2 Bft) 96 %
01.07.2017 21:06 15,1 C 96 % 1010,7 hPa 0,0 l/m 2,0 km/h (1 Bft) W 261 14,5 C 6,3 km/h (2 Bft) 100 %
01.07.2017 21:07 15,1 C 96 % 1010,7 hPa 0,0 l/m 0,8 km/h (0 Bft) W-SW 242 14,5 C 3,1 km/h (1 Bft) 100 %
01.07.2017 21:08 15,1 C 96 % 1010,8 hPa 0,0 l/m 2,0 km/h (1 Bft) W 278 14,5 C 3,1 km/h (1 Bft) 100 %
01.07.2017 21:09 15,1 C 96 % 1010,8 hPa 0,0 l/m 1,3 km/h (1 Bft) W-SW 248 14,5 C 3,1 km/h (1 Bft) 100 %
01.07.2017 21:10 15,1 C 96 % 1010,8 hPa 0,0 l/m 0,2 km/h (0 Bft) W-SW 248 14,5 C 3,1 km/h (1 Bft) 100 %
01.07.2017 21:11 15,1 C 96 % 1010,8 hPa 0,0 l/m 0,5 km/h (0 Bft) W-SW 250 14,5 C 3,1 km/h (1 Bft) 100 %
01.07.2017 21:12 15,1 C 96 % 1010,8 hPa 0,0 l/m 0,0 km/h (0 Bft) W-SW 250 14,5 C 0,0 km/h (0 Bft) 100 %
01.07.2017 21:13 15,1 C 96 % 1010,8 hPa 0,0 l/m 0,1 km/h (0 Bft) W-SW 250 14,5 C 3,1 km/h (1 Bft) 100 %
01.07.2017 21:14 15,1 C 96 % 1010,8 hPa 0,0 l/m 0,0 km/h (0 Bft) W-SW 250 14,5 C 0,0 km/h (0 Bft) 100 %
01.07.2017 21:15 15,1 C 96 % 1010,8 hPa 0,0 l/m 0,0 km/h (0 Bft) W-SW 250 14,5 C 0,0 km/h (0 Bft) 100 %
01.07.2017 21:16 15,1 C 96 % 1010,9 hPa 0,0 l/m 0,0 km/h (0 Bft) W-SW 250 14,5 C 0,0 km/h (0 Bft) 100 %
01.07.2017 21:17 15,1 C 96 % 1010,9 hPa 0,0 l/m 1,0 km/h (0 Bft) W-NW 300 14,5 C 3,1 km/h (1 Bft) 100 %
01.07.2017 21:18 15,1 C 96 % 1010,9 hPa 0,0 l/m 0,0 km/h (0 Bft) W-NW 300 14,5 C 0,0 km/h (0 Bft) 100 %
01.07.2017 21:19 15,1 C 96 % 1010,9 hPa 0,0 l/m 0,0 km/h (0 Bft) W-NW 300 14,5 C 0,0 km/h (0 Bft) 100 %
01.07.2017 21:20 15,1 C 96 % 1010,9 hPa 0,0 l/m 0,0 km/h (0 Bft) W-NW 300 14,5 C 0,0 km/h (0 Bft) 100 %
01.07.2017 21:21 15,1 C 96 % 1010,9 hPa 0,0 l/m 0,0 km/h (0 Bft) W-NW 300 14,5 C 0,0 km/h (0 Bft) 100 %
01.07.2017 21:22 15,1 C 96 % 1010,9 hPa 0,0 l/m 1,4 km/h (1 Bft) SW 229 14,5 C 3,1 km/h (1 Bft) 100 %
01.07.2017 21:23 15,1 C 96 % 1010,9 hPa 0,0 l/m 1,1 km/h (1 Bft) W 259 14,5 C 3,1 km/h (1 Bft) 100 %
01.07.2017 21:24 15,1 C 96 % 1010,9 hPa 0,0 l/m 0,6 km/h (0 Bft) W 272 14,5 C 3,1 km/h (1 Bft) 100 %
01.07.2017 21:25 15,1 C 96 % 1010,9 hPa 0,0 l/m 0,2 km/h (0 Bft) W 272 14,5 C 3,1 km/h (1 Bft) 100 %
01.07.2017 21:26 15,1 C 96 % 1010,9 hPa 0,0 l/m 0,0 km/h (0 Bft) W 272 14,5 C 0,0 km/h (0 Bft) 100 %
01.07.2017 21:27 15,1 C 96 % 1010,8 hPa 0,0 l/m 0,0 km/h (0 Bft) W 272 14,5 C 0,0 km/h (0 Bft) 100 %
01.07.2017 21:28 15,1 C 96 % 1010,8 hPa 0,0 l/m 0,1 km/h (0 Bft) SW 228 14,5 C 3,1 km/h (1 Bft) 100 %
01.07.2017 21:29 15,0 C 96 % 1010,9 hPa 0,0 l/m 0,3 km/h (0 Bft) SW 228 14,4 C 3,1 km/h (1 Bft) 100 %
01.07.2017 21:30 15,0 C 96 % 1010,8 hPa 0,0 l/m 0,0 km/h (0 Bft) SW 228 14,4 C 0,0 km/h (0 Bft) 100 %
01.07.2017 21:31 15,0 C 96 % 1010,9 hPa 0,0 l/m 0,0 km/h (0 Bft) SW 222 14,4 C 0,0 km/h (0 Bft) 100 %
01.07.2017 21:32 15,0 C 96 % 1010,9 hPa 0,0 l/m 0,1 km/h (0 Bft) SW 222 14,4 C 3,1 km/h (1 Bft) 100 %
01.07.2017 21:33 15,0 C 96 % 1010,9 hPa 0,0 l/m 0,0 km/h (0 Bft) SW 222 14,4 C 0,0 km/h (0 Bft) 100 %
01.07.2017 21:34 14,9 C 96 % 1010,9 hPa 0,0 l/m 0,0 km/h (0 Bft) SW 222 14,3 C 0,0 km/h (0 Bft) 100 %
01.07.2017 21:35 14,9 C 96 % 1010,9 hPa 0,0 l/m 0,1 km/h (0 Bft) SW 222 14,3 C 3,1 km/h (1 Bft) 100 %
01.07.2017 21:36 14,9 C 96 % 1011,0 hPa 0,0 l/m 1,6 km/h (1 Bft) W-NW 283 14,3 C 3,1 km/h (1 Bft) 100 %
01.07.2017 21:37 14,9 C 96 % 1011,0 hPa 0,0 l/m 1,4 km/h (1 Bft) W 281 14,3 C 3,1 km/h (1 Bft) 100 %
01.07.2017 21:38 14,9 C 96 % 1011,1 hPa 0,0 l/m 1,1 km/h (1 Bft) W-NW 293 14,3 C 3,1 km/h (1 Bft) 100 %
01.07.2017 21:39 14,9 C 96 % 1011,1 hPa 0,0 l/m 0,3 km/h (0 Bft) W-NW 293 14,3 C 3,1 km/h (1 Bft) 100 %
01.07.2017 21:40 14,9 C 96 % 1011,1 hPa 0,0 l/m 0,9 km/h (0 Bft) W 271 14,3 C 3,1 km/h (1 Bft) 100 %
01.07.2017 21:41 14,8 C 96 % 1011,0 hPa 0,0 l/m 0,3 km/h (0 Bft) W 271 14,2 C 3,1 km/h (1 Bft) 100 %
01.07.2017 21:42 14,8 C 96 % 1011,1 hPa 0,0 l/m 0,0 km/h (0 Bft) W 271 14,2 C 0,0 km/h (0 Bft) 100 %
01.07.2017 21:43 14,8 C 96 % 1011,1 hPa 0,0 l/m 1,3 km/h (1 Bft) W 276 14,2 C 3,1 km/h (1 Bft) 100 %
01.07.2017 21:44 14,8 C 96 % 1011,1 hPa 0,0 l/m 0,9 km/h (0 Bft) W-NW 293 14,2 C 3,1 km/h (1 Bft) 100 %
01.07.2017 21:45 14,8 C 96 % 1011,1 hPa 0,0 l/m 1,3 km/h (1 Bft) W-NW 292 14,2 C 3,1 km/h (1 Bft) 100 %
01.07.2017 21:46 14,8 C 96 % 1011,2 hPa 0,0 l/m 1,1 km/h (1 Bft) W-NW 293 14,2 C 3,1 km/h (1 Bft) 100 %
01.07.2017 21:47 14,7 C 96 % 1011,2 hPa 0,0 l/m 1,0 km/h (0 Bft) W-NW 293 14,1 C 3,1 km/h (1 Bft) 100 %
01.07.2017 21:48 14,7 C 96 % 1011,2 hPa 0,0 l/m 0,0 km/h (0 Bft) W-NW 293 14,1 C 0,0 km/h (0 Bft) 100 %
01.07.2017 21:49 14,7 C 96 % 1011,2 hPa 0,0 l/m 1,0 km/h (0 Bft) W 281 14,1 C 3,1 km/h (1 Bft) 99 %
01.07.2017 21:50 14,7 C 96 % 1011,2 hPa 0,0 l/m 0,9 km/h (0 Bft) W-NW 282 14,1 C 3,1 km/h (1 Bft) 100 %
01.07.2017 21:51 14,7 C 96 % 1011,2 hPa 0,0 l/m 0,0 km/h (0 Bft) W 281 14,1 C 0,0 km/h (0 Bft) 100 %
01.07.2017 21:52 14,7 C 96 % 1011,3 hPa 0,0 l/m 0,9 km/h (0 Bft) W-NW 282 14,1 C 3,1 km/h (1 Bft) 100 %
01.07.2017 21:53 14,7 C 96 % 1011,3 hPa 0,0 l/m 1,0 km/h (0 Bft) W-SW 257 14,1 C 3,1 km/h (1 Bft) 100 %
01.07.2017 21:54 14,7 C 96 % 1011,3 hPa 0,0 l/m 0,1 km/h (0 Bft) W-SW 257 14,1 C 3,1 km/h (1 Bft) 96 %
01.07.2017 21:55 14,7 C 96 % 1011,3 hPa 0,0 l/m 0,3 km/h (0 Bft) W-SW 257 14,1 C 3,1 km/h (1 Bft) 100 %
01.07.2017 21:56 14,7 C 96 % 1011,3 hPa 0,0 l/m 1,5 km/h (1 Bft) W-NW 295 14,1 C 6,3 km/h (2 Bft) 100 %
01.07.2017 21:57 14,7 C 96 % 1011,4 hPa 0,0 l/m 4,3 km/h (1 Bft) W 281 14,1 C 6,3 km/h (2 Bft) 96 %
01.07.2017 21:58 14,7 C 96 % 1011,4 hPa 0,0 l/m 1,7 km/h (1 Bft) W-NW 287 14,1 C 6,3 km/h (2 Bft) 100 %
01.07.2017 21:59 14,7 C 96 % 1011,4 hPa 0,0 l/m 1,4 km/h (1 Bft) W-NW 290 14,1 C 3,1 km/h (1 Bft) 96 %
01.07.2017 22:00 14,7 C 96 % 1011,4 hPa 0,0 l/m 5,8 km/h (2 Bft) NW 310 14,1 C 9,4 km/h (2 Bft) 96 %
01.07.2017 22:01 14,7 C 96 % 1011,4 hPa 0,0 l/m 0,8 km/h (0 Bft) W-NW 296 14,1 C 3,1 km/h (1 Bft) 100 %
01.07.2017 22:02 14,7 C 96 % 1011,4 hPa 0,0 l/m 1,3 km/h (1 Bft) W-NW 302 14,1 C 3,1 km/h (1 Bft) 100 %
01.07.2017 22:03 14,7 C 96 % 1011,4 hPa 0,0 l/m 0,1 km/h (0 Bft) NW 315 14,1 C 3,1 km/h (1 Bft) 96 %
01.07.2017 22:04 14,7 C 96 % 1011,4 hPa 0,0 l/m 1,3 km/h (1 Bft) W 270 14,1 C 9,4 km/h (2 Bft) 96 %
01.07.2017 22:05 14,6 C 96 % 1011,5 hPa 0,0 l/m 4,9 km/h (1 Bft) W-NW 286 14,0 C 6,3 km/h (2 Bft) 100 %
01.07.2017 22:06 14,6 C 96 % 1011,5 hPa 0,0 l/m 4,2 km/h (1 Bft) W 276 14,0 C 9,4 km/h (2 Bft) 96 %
01.07.2017 22:07 14,6 C 96 % 1011,5 hPa 0,0 l/m 0,4 km/h (0 Bft) W-SW 241 14,0 C 3,1 km/h (1 Bft) 100 %
01.07.2017 22:08 14,6 C 96 % 1011,4 hPa 0,0 l/m 1,2 km/h (1 Bft) W-NW 282 14,0 C 3,1 km/h (1 Bft) 97 %
01.07.2017 22:09 14,6 C 96 % 1011,5 hPa 0,0 l/m 0,5 km/h (0 Bft) W-NW 283 14,0 C 3,1 km/h (1 Bft) 100 %
01.07.2017 22:10 14,6 C 96 % 1011,5 hPa 0,0 l/m 1,3 km/h (1 Bft) W 269 14,0 C 3,1 km/h (1 Bft) 100 %
01.07.2017 22:11 14,6 C 96 % 1011,5 hPa 0,0 l/m 2,6 km/h (1 Bft) W-SW 243 14,0 C 6,3 km/h (2 Bft) 100 %
01.07.2017 22:12 14,6 C 96 % 1011,5 hPa 0,0 l/m 0,9 km/h (0 Bft) W 273 14,0 C 3,1 km/h (1 Bft) 100 %
01.07.2017 22:13 14,6 C 96 % 1011,6 hPa 0,0 l/m 0,3 km/h (0 Bft) W 273 14,0 C 3,1 km/h (1 Bft) 100 %
01.07.2017 22:15 14,5 C 96 % 1011,6 hPa 0,0 l/m 0,0 km/h (0 Bft) W 273 13,9 C 0,0 km/h (0 Bft) 100 %
01.07.2017 22:16 14,5 C 96 % 1011,6 hPa 0,0 l/m 0,0 km/h (0 Bft) W 273 13,9 C 0,0 km/h (0 Bft) 100 %
01.07.2017 22:17 14,5 C 96 % 1011,6 hPa 0,0 l/m 0,0 km/h (0 Bft) W 273 13,9 C 0,0 km/h (0 Bft) 100 %
01.07.2017 22:19 14,4 C 96 % 1011,6 hPa 0,0 l/m 0,1 km/h (0 Bft) N-NW 333 13,8 C 3,1 km/h (1 Bft) 100 %
01.07.2017 22:20 14,4 C 96 % 1011,6 hPa 0,0 l/m 0,2 km/h (0 Bft) N-NW 333 13,8 C 3,1 km/h (1 Bft) 100 %
01.07.2017 22:22 14,4 C 96 % 1011,6 hPa 0,0 l/m 0,0 km/h (0 Bft) N-NW 333 13,8 C 0,0 km/h (0 Bft) 100 %
01.07.2017 22:23 14,4 C 96 % 1011,6 hPa 0,0 l/m 0,0 km/h (0 Bft) N-NW 333 13,8 C 0,0 km/h (0 Bft) 96 %
01.07.2017 22:25 14,3 C 96 % 1011,6 hPa 0,0 l/m 0,1 km/h (0 Bft) W-SW 251 13,7 C 3,1 km/h (1 Bft) 100 %
01.07.2017 22:26 14,3 C 96 % 1011,6 hPa 0,0 l/m 0,6 km/h (0 Bft) W-SW 251 13,7 C 3,1 km/h (1 Bft) 100 %
01.07.2017 22:27 14,3 C 97 % 1011,6 hPa 0,0 l/m 0,3 km/h (0 Bft) W-SW 254 13,8 C 3,1 km/h (1 Bft) 100 %
01.07.2017 22:28 14,3 C 96 % 1011,6 hPa 0,0 l/m 0,0 km/h (0 Bft) W-SW 253 13,7 C 0,0 km/h (0 Bft) 100 %
01.07.2017 22:29 14,3 C 96 % 1011,6 hPa 0,0 l/m 0,0 km/h (0 Bft) S-SW 199 13,7 C 0,0 km/h (0 Bft) 100 %
01.07.2017 22:30 14,3 C 96 % 1011,6 hPa 0,0 l/m 1,8 km/h (1 Bft) SW 221 13,7 C 3,1 km/h (1 Bft) 100 %
01.07.2017 22:32 14,3 C 97 % 1011,6 hPa 0,0 l/m 0,7 km/h (0 Bft) W-SW 255 13,8 C 3,1 km/h (1 Bft) 100 %
01.07.2017 22:33 14,3 C 97 % 1011,7 hPa 0,0 l/m 0,2 km/h (0 Bft) W-NW 290 13,8 C 3,1 km/h (1 Bft) 100 %
01.07.2017 22:34 14,2 C 97 % 1011,7 hPa 0,0 l/m 1,6 km/h (1 Bft) NW 314 13,7 C 3,1 km/h (1 Bft) 100 %
01.07.2017 22:36 14,2 C 97 % 1011,7 hPa 0,0 l/m 0,0 km/h (0 Bft) NW 314 13,7 C 0,0 km/h (0 Bft) 100 %
01.07.2017 22:37 14,2 C 97 % 1011,8 hPa 0,0 l/m 1,1 km/h (1 Bft) W 266 13,7 C 3,1 km/h (1 Bft) 100 %
01.07.2017 22:38 14,2 C 97 % 1011,8 hPa 0,0 l/m 0,0 km/h (0 Bft) W 266 13,7 C 0,0 km/h (0 Bft) 100 %
01.07.2017 22:39 14,2 C 97 % 1011,8 hPa 0,0 l/m 0,0 km/h (0 Bft) W 266 13,7 C 0,0 km/h (0 Bft) 100 %
01.07.2017 22:40 14,2 C 97 % 1011,8 hPa 0,0 l/m 0,0 km/h (0 Bft) W-SW 247 13,7 C 0,0 km/h (0 Bft) 100 %
01.07.2017 22:42 14,2 C 97 % 1011,8 hPa 0,0 l/m 0,1 km/h (0 Bft) W-SW 248 13,7 C 3,1 km/h (1 Bft) 100 %
01.07.2017 22:43 14,2 C 97 % 1011,8 hPa 0,0 l/m 0,0 km/h (0 Bft) W-SW 248 13,7 C 0,0 km/h (0 Bft) 100 %
01.07.2017 22:44 14,1 C 97 % 1011,9 hPa 0,0 l/m 0,0 km/h (0 Bft) W-SW 249 13,6 C 0,0 km/h (0 Bft) 100 %
01.07.2017 22:45 14,1 C 97 % 1011,8 hPa 0,0 l/m 0,0 km/h (0 Bft) W-SW 248 13,6 C 0,0 km/h (0 Bft) 100 %
01.07.2017 22:47 14,1 C 97 % 1011,8 hPa 0,0 l/m 0,1 km/h (0 Bft) W-SW 249 13,6 C 3,1 km/h (1 Bft) 100 %
01.07.2017 22:48 14,1 C 97 % 1011,8 hPa 0,0 l/m 0,0 km/h (0 Bft) W-SW 249 13,6 C 0,0 km/h (0 Bft) 100 %
01.07.2017 22:49 14,1 C 97 % 1011,8 hPa 0,0 l/m 0,0 km/h (0 Bft) W-SW 249 13,6 C 0,0 km/h (0 Bft) 100 %
01.07.2017 22:50 14,1 C 97 % 1011,8 hPa 0,0 l/m 0,0 km/h (0 Bft) W-SW 249 13,6 C 0,0 km/h (0 Bft) 100 %
01.07.2017 22:51 14,0 C 97 % 1011,9 hPa 0,0 l/m 0,0 km/h (0 Bft) W-SW 249 13,5 C 0,0 km/h (0 Bft) 100 %
01.07.2017 22:52 14,0 C 97 % 1011,9 hPa 0,0 l/m 0,0 km/h (0 Bft) W-SW 249 13,5 C 0,0 km/h (0 Bft) 100 %
01.07.2017 22:53 14,0 C 97 % 1011,8 hPa 0,0 l/m 0,0 km/h (0 Bft) W-SW 249 13,5 C 0,0 km/h (0 Bft) 100 %
01.07.2017 22:54 14,0 C 97 % 1011,8 hPa 0,0 l/m 0,0 km/h (0 Bft) W-SW 249 13,5 C 0,0 km/h (0 Bft) 100 %
01.07.2017 22:55 13,9 C 97 % 1011,9 hPa 0,0 l/m 0,3 km/h (0 Bft) W 264 13,4 C 3,1 km/h (1 Bft) 100 %
01.07.2017 22:56 13,9 C 97 % 1011,8 hPa 0,0 l/m 0,0 km/h (0 Bft) W 264 13,4 C 0,0 km/h (0 Bft) 100 %
01.07.2017 22:57 13,9 C 97 % 1011,9 hPa 0,0 l/m 0,0 km/h (0 Bft) W 264 13,4 C 0,0 km/h (0 Bft) 100 %
01.07.2017 22:58 13,9 C 97 % 1011,9 hPa 0,0 l/m 0,0 km/h (0 Bft) W 264 13,4 C 0,0 km/h (0 Bft) 100 %
01.07.2017 22:59 13,9 C 97 % 1011,8 hPa 0,0 l/m 0,0 km/h (0 Bft) W 264 13,4 C 0,0 km/h (0 Bft) 93 %
01.07.2017 23:00 13,9 C 97 % 1011,9 hPa 0,0 l/m 0,0 km/h (0 Bft) W 264 13,4 C 0,0 km/h (0 Bft) 96 %
01.07.2017 23:01 13,9 C 97 % 1011,9 hPa 0,0 l/m 0,0 km/h (0 Bft) W 264 13,4 C 0,0 km/h (0 Bft) 100 %
01.07.2017 23:02 13,9 C 97 % 1011,9 hPa 0,0 l/m 0,0 km/h (0 Bft) W 264 13,4 C 0,0 km/h (0 Bft) 100 %
01.07.2017 23:03 13,9 C 97 % 1011,9 hPa 0,0 l/m 0,0 km/h (0 Bft) W 264 13,4 C 0,0 km/h (0 Bft) 100 %
01.07.2017 23:04 13,9 C 97 % 1012,0 hPa 0,0 l/m 0,0 km/h (0 Bft) W 264 13,4 C 0,0 km/h (0 Bft) 96 %
01.07.2017 23:05 13,8 C 97 % 1011,9 hPa 0,0 l/m 0,0 km/h (0 Bft) W 264 13,3 C 0,0 km/h (0 Bft) 96 %
01.07.2017 23:06 13,8 C 97 % 1012,0 hPa 0,0 l/m 0,0 km/h (0 Bft) W 264 13,3 C 0,0 km/h (0 Bft) 100 %
01.07.2017 23:07 13,8 C 97 % 1012,0 hPa 0,0 l/m 0,0 km/h (0 Bft) W 264 13,3 C 0,0 km/h (0 Bft) 92 %
01.07.2017 23:08 13,8 C 97 % 1012,0 hPa 0,0 l/m 0,8 km/h (0 Bft) W 267 13,3 C 3,1 km/h (1 Bft) 100 %
01.07.2017 23:09 13,9 C 98 % 1012,0 hPa 0,0 l/m 0,0 km/h (0 Bft) W 267 13,6 C 0,0 km/h (0 Bft) 96 %
01.07.2017 23:10 13,9 C 98 % 1012,0 hPa 0,0 l/m 0,0 km/h (0 Bft) W 267 13,6 C 0,0 km/h (0 Bft) 100 %
01.07.2017 23:11 13,9 C 98 % 1012,0 hPa 0,0 l/m 0,2 km/h (0 Bft) W 262 13,6 C 3,1 km/h (1 Bft) 97 %
01.07.2017 23:12 13,9 C 98 % 1012,0 hPa 0,0 l/m 0,0 km/h (0 Bft) W 262 13,6 C 0,0 km/h (0 Bft) 96 %
01.07.2017 23:13 13,9 C 98 % 1012,0 hPa 0,0 l/m 0,2 km/h (0 Bft) W 261 13,6 C 3,1 km/h (1 Bft) 100 %
01.07.2017 23:14 13,9 C 98 % 1012,0 hPa 0,0 l/m 0,0 km/h (0 Bft) W 262 13,6 C 0,0 km/h (0 Bft) 97 %
01.07.2017 23:15 13,9 C 98 % 1012,0 hPa 0,0 l/m 0,3 km/h (0 Bft) W 262 13,6 C 3,1 km/h (1 Bft) 100 %
01.07.2017 23:16 13,9 C 98 % 1012,1 hPa 0,0 l/m 0,1 km/h (0 Bft) W 262 13,6 C 3,1 km/h (1 Bft) 100 %
01.07.2017 23:17 13,9 C 98 % 1012,1 hPa 0,0 l/m 0,8 km/h (0 Bft) W-SW 255 13,6 C 3,1 km/h (1 Bft) 100 %
01.07.2017 23:18 13,9 C 98 % 1012,1 hPa 0,0 l/m 0,0 km/h (0 Bft) W-SW 255 13,6 C 0,0 km/h (0 Bft) 100 %
01.07.2017 23:19 13,9 C 98 % 1012,1 hPa 0,0 l/m 0,7 km/h (0 Bft) W 275 13,6 C 3,1 km/h (1 Bft) 100 %
01.07.2017 23:20 13,9 C 98 % 1012,1 hPa 0,0 l/m 0,0 km/h (0 Bft) W 274 13,6 C 0,0 km/h (0 Bft) 100 %
01.07.2017 23:21 13,9 C 98 % 1012,1 hPa 0,0 l/m 0,1 km/h (0 Bft) W 274 13,6 C 3,1 km/h (1 Bft) 100 %
01.07.2017 23:22 13,9 C 98 % 1012,1 hPa 0,0 l/m 0,0 km/h (0 Bft) W 274 13,6 C 0,0 km/h (0 Bft) 100 %
01.07.2017 23:23 13,9 C 98 % 1012,1 hPa 0,0 l/m 0,1 km/h (0 Bft) W 274 13,6 C 3,1 km/h (1 Bft) 100 %
01.07.2017 23:24 13,9 C 98 % 1012,1 hPa 0,0 l/m 0,5 km/h (0 Bft) W-NW 291 13,6 C 3,1 km/h (1 Bft) 100 %
01.07.2017 23:25 13,9 C 98 % 1012,1 hPa 0,0 l/m 2,0 km/h (1 Bft) W 259 13,6 C 6,3 km/h (2 Bft) 100 %
01.07.2017 23:26 13,9 C 98 % 1012,2 hPa 0,0 l/m 1,7 km/h (1 Bft) W-SW 250 13,6 C 6,3 km/h (2 Bft) 100 %
01.07.2017 23:27 13,9 C 98 % 1012,2 hPa 0,0 l/m 0,0 km/h (0 Bft) W-SW 250 13,6 C 0,0 km/h (0 Bft) 100 %
01.07.2017 23:28 13,9 C 98 % 1012,2 hPa 0,0 l/m 0,3 km/h (0 Bft) W-SW 237 13,6 C 3,1 km/h (1 Bft) 100 %
01.07.2017 23:29 13,9 C 98 % 1012,2 hPa 0,0 l/m 0,0 km/h (0 Bft) W-SW 237 13,6 C 0,0 km/h (0 Bft) 100 %
01.07.2017 23:30 14,0 C 98 % 1012,2 hPa 0,0 l/m 0,0 km/h (0 Bft) W-SW 237 13,7 C 0,0 km/h (0 Bft) 100 %
01.07.2017 23:31 14,0 C 98 % 1012,2 hPa 0,0 l/m 0,0 km/h (0 Bft) W-SW 237 13,7 C 0,0 km/h (0 Bft) 100 %
01.07.2017 23:32 14,0 C 98 % 1012,2 hPa 0,0 l/m 0,0 km/h (0 Bft) W-SW 237 13,7 C 0,0 km/h (0 Bft) 100 %
01.07.2017 23:33 14,0 C 98 % 1012,2 hPa 0,0 l/m 0,0 km/h (0 Bft) W-SW 237 13,7 C 0,0 km/h (0 Bft) 100 %
01.07.2017 23:34 14,0 C 98 % 1012,3 hPa 0,0 l/m 0,0 km/h (0 Bft) W-SW 237 13,7 C 0,0 km/h (0 Bft) 100 %
01.07.2017 23:35 14,0 C 98 % 1012,2 hPa 0,0 l/m 0,0 km/h (0 Bft) W-SW 237 13,7 C 0,0 km/h (0 Bft) 100 %
01.07.2017 23:36 14,0 C 98 % 1012,3 hPa 0,0 l/m 0,6 km/h (0 Bft) W-SW 248 13,7 C 3,1 km/h (1 Bft) 100 %
01.07.2017 23:37 14,0 C 98 % 1012,2 hPa 0,0 l/m 0,0 km/h (0 Bft) W-SW 248 13,7 C 0,0 km/h (0 Bft) 100 %
01.07.2017 23:38 14,0 C 98 % 1012,3 hPa 0,0 l/m 0,3 km/h (0 Bft) W 269 13,7 C 3,1 km/h (1 Bft) 100 %
01.07.2017 23:39 14,0 C 98 % 1012,3 hPa 0,0 l/m 0,0 km/h (0 Bft) W 269 13,7 C 0,0 km/h (0 Bft) 100 %
01.07.2017 23:40 14,0 C 98 % 1012,3 hPa 0,0 l/m 1,0 km/h (0 Bft) W 264 13,7 C 3,1 km/h (1 Bft) 100 %
01.07.2017 23:41 14,1 C 98 % 1012,3 hPa 0,0 l/m 0,0 km/h (0 Bft) W 264 13,8 C 0,0 km/h (0 Bft) 100 %
01.07.2017 23:42 14,1 C 98 % 1012,3 hPa 0,0 l/m 2,1 km/h (1 Bft) NW 306 13,8 C 6,3 km/h (2 Bft) 100 %
01.07.2017 23:43 14,1 C 98 % 1012,3 hPa 0,0 l/m 0,1 km/h (0 Bft) NW 307 13,8 C 3,1 km/h (1 Bft) 100 %
01.07.2017 23:44 14,1 C 98 % 1012,3 hPa 0,0 l/m 1,6 km/h (1 Bft) W 274 13,8 C 6,3 km/h (2 Bft) 100 %
01.07.2017 23:45 14,1 C 98 % 1012,4 hPa 0,0 l/m 1,8 km/h (1 Bft) W 259 13,8 C 6,3 km/h (2 Bft) 100 %
01.07.2017 23:46 14,1 C 98 % 1012,4 hPa 0,0 l/m 2,8 km/h (1 Bft) W 269 13,8 C 6,3 km/h (2 Bft) 100 %
01.07.2017 23:47 14,1 C 98 % 1012,4 hPa 0,0 l/m 2,6 km/h (1 Bft) SW 235 13,8 C 9,4 km/h (2 Bft) 100 %
01.07.2017 23:48 14,2 C 98 % 1012,4 hPa 0,0 l/m 2,2 km/h (1 Bft) W-NW 295 13,9 C 6,3 km/h (2 Bft) 100 %
01.07.2017 23:49 14,2 C 98 % 1012,4 hPa 0,0 l/m 3,0 km/h (1 Bft) W-NW 288 13,9 C 9,4 km/h (2 Bft) 100 %
01.07.2017 23:50 14,2 C 98 % 1012,4 hPa 0,0 l/m 2,9 km/h (1 Bft) W 262 13,9 C 9,4 km/h (2 Bft) 100 %
01.07.2017 23:51 14,2 C 98 % 1012,5 hPa 0,0 l/m 0,0 km/h (0 Bft) W 261 13,9 C 0,0 km/h (0 Bft) 100 %
01.07.2017 23:52 14,2 C 98 % 1012,5 hPa 0,0 l/m 2,1 km/h (1 Bft) W-SW 254 13,9 C 6,3 km/h (2 Bft) 100 %
01.07.2017 23:53 14,2 C 98 % 1012,5 hPa 0,0 l/m 2,7 km/h (1 Bft) W 261 13,9 C 9,4 km/h (2 Bft) 100 %
01.07.2017 23:54 14,3 C 98 % 1012,5 hPa 0,0 l/m 3,1 km/h (1 Bft) W 260 14,0 C 3,1 km/h (1 Bft) 100 %
01.07.2017 23:55 14,3 C 98 % 1012,5 hPa 0,0 l/m 0,3 km/h (0 Bft) NW 318 14,0 C 3,1 km/h (1 Bft) 100 %
01.07.2017 23:56 14,3 C 98 % 1012,5 hPa 0,0 l/m 0,3 km/h (0 Bft) W-NW 284 14,0 C 3,1 km/h (1 Bft) 100 %
01.07.2017 23:57 14,3 C 98 % 1012,5 hPa 0,0 l/m 0,4 km/h (0 Bft) W 278 14,0 C 3,1 km/h (1 Bft) 100 %
01.07.2017 23:58 14,4 C 98 % 1012,5 hPa 0,0 l/m 0,3 km/h (0 Bft) W-SW 247 14,1 C 3,1 km/h (1 Bft) 100 %
01.07.2017 23:59 14,4 C 98 % 1012,5 hPa 0,0 l/m 1,4 km/h (1 Bft) W-NW 282 14,1 C 3,1 km/h (1 Bft) 100 %
_ Min-Zeit 05:04 11:54 01:46 - 00:02 - - 00:12 00:02 11:04
Minimum _ 12,9 C 77 % 1003,8 hPa - 0,0 km/h (0 Bft) - - 11,6 C 0,0 km/h (0 Bft) 91 %
_ Max-Zeit 11:46 23:09 23:51 03:36 14:22 - - 18:58 12:46 00:00
Maximum _ 17,1 C 98 % 1012,5 hPa 0,2 l/m 18,7 km/h
S-SW (3 Bft)
- - 14,7 C 34,5 km/h
W-SW (5 Bft)
100 %
Durchschnitt _ 14,8 C 92 % 1006,5 hPa #4,2 l/m 2,9 km/h (1 Bft) W-NW - 13,4 C 6,8 km/h (2 Bft) 99 %